Missouri River (Missouri), Jefferson City (06910450)

StateMissouriLatestUnknown (114000 cfs)
RiverMissouri RiverRatingObservedEstimated
Updated2020-08-11 18:45 (1 hour ago)Flood - The river is flooding. Obstacles can be treacherous or deadly. The river should be avoided at this stage for casual trips and definitely for the inexperienced. Trips should be attempted only with protective gear and equipment.Flood(none)(none)
Discharge114000 cfs (median: 84900 cfs)High - The river is high and potentially dangerous, especially for the young and / or inexperienced. Normal stream obstacles are sometimes difficult to navigate. Extended distances can be attempted, but canoe travel may not be advisable.High(none)(none)
Height15.02 feetGood - Conditions are ideal for a canoe or kayak. Boats typically will drag on fewer than one-quarter of riffles, if at all, and portages are unnecessary or rare. Normal float lengths can be attempted without a problem.Good(none)(none)
TrendSteady (rising over 24 hours)Low - River is low but can still be floated. Some riffles are okay but most come with significant dragging and might need a portage. Float lengths should be reduced to accommodate low flow, dragging, and portages.Low(none)(none)
USGSExternal icon USGS Site (External icon Google Maps)Poor - River is too low to float comfortably. Most or all riffles will drag or must be portaged and some obstacles (such as slick shelf rock) cause undue problems. Avoid the river at this stage for casual paddling trips.Poor(none)(none)

Trending Data

Plot Image

Trips for Missouri River (Missouri), Jefferson City (06910450)

DateStartEndDistanceConditionDischargeHeightFishingDetails

A total of 0 rows are displayed.

Condition Descriptions

Fishing Conditions

Fish Species

Notes

Classic Trip List

The classic River Trips application is still available for use. It is updated with the new system using a data retrofit. It is no longer maintained. The original River Trips application is no longer updated (as of 1 Dec 2016) but can be checked for errors or for the condition of the data before it was converted to the new system.

Gauge Data Table

ObservationHeightDischargeMaximum
Discharge
Minimum
Discharge
Mean
Discharge
P05P10P20P25P50
(Median)
P75P80P90P95
2020-08-11 18:45 15.02 114000 130000 (2019) 62200 (2016) 88400 63000 64100 84900 115000 124000
2020-08-11 17:45 15.03 114000 130000 (2019) 62200 (2016) 88400 63000 64100 84900 115000 124000
2020-08-11 16:45 15.10 115000 130000 (2019) 62200 (2016) 88400 63000 64100 84900 115000 124000
2020-08-11 15:45 15.15 116000 130000 (2019) 62200 (2016) 88400 63000 64100 84900 115000 124000
2020-08-11 14:45 15.15 116000 130000 (2019) 62200 (2016) 88400 63000 64100 84900 115000 124000
2020-08-11 13:45 15.18 116000 130000 (2019) 62200 (2016) 88400 63000 64100 84900 115000 124000
2020-08-11 12:45 15.18 116000 130000 (2019) 62200 (2016) 88400 63000 64100 84900 115000 124000
2020-08-11 11:45 15.13 116000 130000 (2019) 62200 (2016) 88400 63000 64100 84900 115000 124000
2020-08-11 10:45 15.17 116000 130000 (2019) 62200 (2016) 88400 63000 64100 84900 115000 124000
2020-08-11 09:45 15.10 115000 130000 (2019) 62200 (2016) 88400 63000 64100 84900 115000 124000
2020-08-11 08:45 15.06 115000 130000 (2019) 62200 (2016) 88400 63000 64100 84900 115000 124000
2020-08-11 07:45 15.03 114000 130000 (2019) 62200 (2016) 88400 63000 64100 84900 115000 124000
2020-08-11 06:45 14.92 113000 130000 (2019) 62200 (2016) 88400 63000 64100 84900 115000 124000
2020-08-11 05:45 14.80 112000 130000 (2019) 62200 (2016) 88400 63000 64100 84900 115000 124000
2020-08-11 04:45 14.70 111000 130000 (2019) 62200 (2016) 88400 63000 64100 84900 115000 124000
2020-08-11 03:45 14.64 110000 130000 (2019) 62200 (2016) 88400 63000 64100 84900 115000 124000
2020-08-11 02:45 14.53 109000 130000 (2019) 62200 (2016) 88400 63000 64100 84900 115000 124000
2020-08-11 01:45 14.44 108000 130000 (2019) 62200 (2016) 88400 63000 64100 84900 115000 124000
2020-08-11 00:45 14.33 107000 130000 (2019) 62200 (2016) 88400 63000 64100 84900 115000 124000
2020-08-10 23:45 14.23 106000 133000 (2019) 65800 (2016) 87100 66100 66500 83200 110000 124000
2020-08-10 22:45 14.14 105000 133000 (2019) 65800 (2016) 87100 66100 66500 83200 110000 124000
2020-08-10 21:45 13.99 104000 133000 (2019) 65800 (2016) 87100 66100 66500 83200 110000 124000
2020-08-10 20:45 13.93 104000 133000 (2019) 65800 (2016) 87100 66100 66500 83200 110000 124000
2020-08-10 19:45 13.84 103000 133000 (2019) 65800 (2016) 87100 66100 66500 83200 110000 124000
2020-08-10 18:45 13.80 102000 133000 (2019) 65800 (2016) 87100 66100 66500 83200 110000 124000
2020-08-10 17:45 13.70 101000 133000 (2019) 65800 (2016) 87100 66100 66500 83200 110000 124000
2020-08-10 16:45 13.56 100000 133000 (2019) 65800 (2016) 87100 66100 66500 83200 110000 124000
2020-08-10 15:45 13.50 99700 133000 (2019) 65800 (2016) 87100 66100 66500 83200 110000 124000
2020-08-10 14:45 13.43 99000 133000 (2019) 65800 (2016) 87100 66100 66500 83200 110000 124000
2020-08-10 13:45 13.34 98300 133000 (2019) 65800 (2016) 87100 66100 66500 83200 110000 124000
2020-08-10 12:45 13.30 97900 133000 (2019) 65800 (2016) 87100 66100 66500 83200 110000 124000
2020-08-10 11:45 13.20 97000 133000 (2019) 65800 (2016) 87100 66100 66500 83200 110000 124000
2020-08-10 10:45 13.12 96300 133000 (2019) 65800 (2016) 87100 66100 66500 83200 110000 124000
2020-08-10 09:45 13.06 95800 133000 (2019) 65800 (2016) 87100 66100 66500 83200 110000 124000
2020-08-10 08:45 13.00 95300 133000 (2019) 65800 (2016) 87100 66100 66500 83200 110000 124000
2020-08-10 07:45 12.94 94700 133000 (2019) 65800 (2016) 87100 66100 66500 83200 110000 124000
2020-08-10 06:45 12.91 94500 133000 (2019) 65800 (2016) 87100 66100 66500 83200 110000 124000
2020-08-10 05:45 12.89 94300 133000 (2019) 65800 (2016) 87100 66100 66500 83200 110000 124000
2020-08-10 04:45 12.86 94100 133000 (2019) 65800 (2016) 87100 66100 66500 83200 110000 124000
2020-08-10 03:45 12.82 93700 133000 (2019) 65800 (2016) 87100 66100 66500 83200 110000 124000
2020-08-10 02:45 12.80 93500 133000 (2019) 65800 (2016) 87100 66100 66500 83200 110000 124000
2020-08-10 01:45 12.77 93300 133000 (2019) 65800 (2016) 87100 66100 66500 83200 110000 124000
2020-08-10 00:45 12.78 93400 133000 (2019) 65800 (2016) 87100 66100 66500 83200 110000 124000
2020-08-09 23:45 12.74 93000 135000 (2019) 71600 (2016) 93100 73700 76700 86500 113000 126000
2020-08-09 22:45 12.76 93200 135000 (2019) 71600 (2016) 93100 73700 76700 86500 113000 126000
2020-08-09 21:45 12.76 93200 135000 (2019) 71600 (2016) 93100 73700 76700 86500 113000 126000
2020-08-09 20:45 12.73 93000 135000 (2019) 71600 (2016) 93100 73700 76700 86500 113000 126000
2020-08-09 19:45 12.74 93000 135000 (2019) 71600 (2016) 93100 73700 76700 86500 113000 126000
2020-08-09 18:45 12.76 93200 135000 (2019) 71600 (2016) 93100 73700 76700 86500 113000 126000
2020-08-09 17:45 12.76 93200 135000 (2019) 71600 (2016) 93100 73700 76700 86500 113000 126000
2020-08-09 16:45 12.77 93300 135000 (2019) 71600 (2016) 93100 73700 76700 86500 113000 126000
2020-08-09 15:45 12.78 93400 135000 (2019) 71600 (2016) 93100 73700 76700 86500 113000 126000
2020-08-09 14:45 12.82 93700 135000 (2019) 71600 (2016) 93100 73700 76700 86500 113000 126000
2020-08-09 13:45 12.83 93800 135000 (2019) 71600 (2016) 93100 73700 76700 86500 113000 126000
2020-08-09 12:45 12.82 93700 135000 (2019) 71600 (2016) 93100 73700 76700 86500 113000 126000
2020-08-09 11:45 12.84 93900 135000 (2019) 71600 (2016) 93100 73700 76700 86500 113000 126000
2020-08-09 10:45 12.86 94100 135000 (2019) 71600 (2016) 93100 73700 76700 86500 113000 126000
2020-08-09 09:45 12.88 94200 135000 (2019) 71600 (2016) 93100 73700 76700 86500 113000 126000
2020-08-09 08:45 12.87 94100 135000 (2019) 71600 (2016) 93100 73700 76700 86500 113000 126000
2020-08-09 07:45 12.91 94500 135000 (2019) 71600 (2016) 93100 73700 76700 86500 113000 126000
2020-08-09 06:45 12.92 94600 135000 (2019) 71600 (2016) 93100 73700 76700 86500 113000 126000
2020-08-09 05:45 12.93 94700 135000 (2019) 71600 (2016) 93100 73700 76700 86500 113000 126000
2020-08-09 04:45 12.97 95000 135000 (2019) 71600 (2016) 93100 73700 76700 86500 113000 126000
2020-08-09 03:45 12.97 95000 135000 (2019) 71600 (2016) 93100 73700 76700 86500 113000 126000
2020-08-09 02:45 12.98 95100 135000 (2019) 71600 (2016) 93100 73700 76700 86500 113000 126000
2020-08-09 01:45 13.00 95300 135000 (2019) 71600 (2016) 93100 73700 76700 86500 113000 126000
2020-08-09 00:45 12.99 95200 135000 (2019) 71600 (2016) 93100 73700 76700 86500 113000 126000
2020-08-08 23:45 12.98 95100 136000 (2019) 84500 (2016) 102000 84800 85400 100000 119000 129000
2020-08-08 22:45 13.01 95400 136000 (2019) 84500 (2016) 102000 84800 85400 100000 119000 129000
2020-08-08 21:45 13.06 95800 136000 (2019) 84500 (2016) 102000 84800 85400 100000 119000 129000
2020-08-08 20:45 13.06 95800 136000 (2019) 84500 (2016) 102000 84800 85400 100000 119000 129000
2020-08-08 19:45 13.08 96000 136000 (2019) 84500 (2016) 102000 84800 85400 100000 119000 129000
2020-08-08 18:45 13.09 96100 136000 (2019) 84500 (2016) 102000 84800 85400 100000 119000 129000
2020-08-08 17:45 13.08 96000 136000 (2019) 84500 (2016) 102000 84800 85400 100000 119000 129000
2020-08-08 16:45 13.09 96100 136000 (2019) 84500 (2016) 102000 84800 85400 100000 119000 129000
2020-08-08 15:45 13.12 96300 136000 (2019) 84500 (2016) 102000 84800 85400 100000 119000 129000
2020-08-08 14:45 13.16 96600 136000 (2019) 84500 (2016) 102000 84800 85400 100000 119000 129000
2020-08-08 13:45 13.12 96300 136000 (2019) 84500 (2016) 102000 84800 85400 100000 119000 129000
2020-08-08 12:45 13.17 96700 136000 (2019) 84500 (2016) 102000 84800 85400 100000 119000 129000
2020-08-08 11:45 13.21 97100 136000 (2019) 84500 (2016) 102000 84800 85400 100000 119000 129000
2020-08-08 10:45 13.20 97000 136000 (2019) 84500 (2016) 102000 84800 85400 100000 119000 129000
2020-08-08 09:45 13.25 97400 136000 (2019) 84500 (2016) 102000 84800 85400 100000 119000 129000
2020-08-08 08:45 13.22 97200 136000 (2019) 84500 (2016) 102000 84800 85400 100000 119000 129000
2020-08-08 07:45 13.24 97400 136000 (2019) 84500 (2016) 102000 84800 85400 100000 119000 129000
2020-08-08 06:45 13.24 97400 136000 (2019) 84500 (2016) 102000 84800 85400 100000 119000 129000
2020-08-08 05:45 13.27 97600 136000 (2019) 84500 (2016) 102000 84800 85400 100000 119000 129000
2020-08-08 04:45 13.27 97600 136000 (2019) 84500 (2016) 102000 84800 85400 100000 119000 129000
2020-08-08 03:45 13.28 97700 136000 (2019) 84500 (2016) 102000 84800 85400 100000 119000 129000
2020-08-08 02:45 13.31 98000 136000 (2019) 84500 (2016) 102000 84800 85400 100000 119000 129000
2020-08-08 01:45 13.31 98000 136000 (2019) 84500 (2016) 102000 84800 85400 100000 119000 129000
2020-08-08 00:45 13.33 98200 136000 (2019) 84500 (2016) 102000 84800 85400 100000 119000 129000
2020-08-07 23:45 13.36 98500 140000 (2019) 65500 (2017) 98800 69600 75700 92700 125000 134000
2020-08-07 22:45 13.37 98600 140000 (2019) 65500 (2017) 98800 69600 75700 92700 125000 134000
2020-08-07 21:45 13.40 98700 140000 (2019) 65500 (2017) 98800 69600 75700 92700 125000 134000
2020-08-07 20:45 13.40 98700 140000 (2019) 65500 (2017) 98800 69600 75700 92700 125000 134000
2020-08-07 19:45 13.40 98700 140000 (2019) 65500 (2017) 98800 69600 75700 92700 125000 134000
2020-08-07 18:45 13.43 99000 140000 (2019) 65500 (2017) 98800 69600 75700 92700 125000 134000
2020-08-07 17:45 13.44 99100 140000 (2019) 65500 (2017) 98800 69600 75700 92700 125000 134000
2020-08-07 16:45 13.42 98900 140000 (2019) 65500 (2017) 98800 69600 75700 92700 125000 134000
2020-08-07 15:45 13.44 99100 140000 (2019) 65500 (2017) 98800 69600 75700 92700 125000 134000
2020-08-07 14:45 13.46 99300 140000 (2019) 65500 (2017) 98800 69600 75700 92700 125000 134000
2020-08-07 13:45 13.45 99200 140000 (2019) 65500 (2017) 98800 69600 75700 92700 125000 134000
2020-08-07 12:45 13.47 99400 140000 (2019) 65500 (2017) 98800 69600 75700 92700 125000 134000
2020-08-07 11:45 13.47 99400 140000 (2019) 65500 (2017) 98800 69600 75700 92700 125000 134000
2020-08-07 10:45 13.49 99600 140000 (2019) 65500 (2017) 98800 69600 75700 92700 125000 134000
2020-08-07 09:45 13.49 99600 140000 (2019) 65500 (2017) 98800 69600 75700 92700 125000 134000
2020-08-07 08:45 13.46 99300 140000 (2019) 65500 (2017) 98800 69600 75700 92700 125000 134000
2020-08-07 07:45 13.48 99500 140000 (2019) 65500 (2017) 98800 69600 75700 92700 125000 134000
2020-08-07 06:45 13.50 99700 140000 (2019) 65500 (2017) 98800 69600 75700 92700 125000 134000
2020-08-07 05:45 13.46 99300 140000 (2019) 65500 (2017) 98800 69600 75700 92700 125000 134000
2020-08-07 04:45 13.50 99700 140000 (2019) 65500 (2017) 98800 69600 75700 92700 125000 134000
2020-08-07 03:45 13.51 99800 140000 (2019) 65500 (2017) 98800 69600 75700 92700 125000 134000
2020-08-07 02:45 13.53 99900 140000 (2019) 65500 (2017) 98800 69600 75700 92700 125000 134000
2020-08-07 01:45 13.49 99600 140000 (2019) 65500 (2017) 98800 69600 75700 92700 125000 134000
2020-08-07 00:45 13.54 100000 140000 (2019) 65500 (2017) 98800 69600 75700 92700 125000 134000
2020-08-06 23:45 13.55 100000 142000 (2019) 53200 (2017) 96900 59800 69800 90200 128000 136000
2020-08-06 22:45 13.55 100000 142000 (2019) 53200 (2017) 96900 59800 69800 90200 128000 136000
2020-08-06 21:45 13.57 100000 142000 (2019) 53200 (2017) 96900 59800 69800 90200 128000 136000
2020-08-06 20:45 13.64 101000 142000 (2019) 53200 (2017) 96900 59800 69800 90200 128000 136000
2020-08-06 19:45 13.68 101000 142000 (2019) 53200 (2017) 96900 59800 69800 90200 128000 136000
2020-08-06 18:45 13.71 102000 142000 (2019) 53200 (2017) 96900 59800 69800 90200 128000 136000
2020-08-06 17:45 13.70 101000 142000 (2019) 53200 (2017) 96900 59800 69800 90200 128000 136000
2020-08-06 16:45 13.71 102000 142000 (2019) 53200 (2017) 96900 59800 69800 90200 128000 136000
2020-08-06 15:45 13.76 102000 142000 (2019) 53200 (2017) 96900 59800 69800 90200 128000 136000
2020-08-06 14:45 13.77 102000 142000 (2019) 53200 (2017) 96900 59800 69800 90200 128000 136000
2020-08-06 13:45 13.80 102000 142000 (2019) 53200 (2017) 96900 59800 69800 90200 128000 136000
2020-08-06 12:45 13.82 103000 142000 (2019) 53200 (2017) 96900 59800 69800 90200 128000 136000
2020-08-06 11:45 13.85 103000 142000 (2019) 53200 (2017) 96900 59800 69800 90200 128000 136000
2020-08-06 10:45 13.89 103000 142000 (2019) 53200 (2017) 96900 59800 69800 90200 128000 136000
2020-08-06 09:45 13.89 103000 142000 (2019) 53200 (2017) 96900 59800 69800 90200 128000 136000
2020-08-06 08:45 13.96 104000 142000 (2019) 53200 (2017) 96900 59800 69800 90200 128000 136000
2020-08-06 07:45 13.97 104000 142000 (2019) 53200 (2017) 96900 59800 69800 90200 128000 136000
2020-08-06 06:45 14.01 104000 142000 (2019) 53200 (2017) 96900 59800 69800 90200 128000 136000
2020-08-06 05:45 14.03 105000 142000 (2019) 53200 (2017) 96900 59800 69800 90200 128000 136000
2020-08-06 04:45 14.08 105000 142000 (2019) 53200 (2017) 96900 59800 69800 90200 128000 136000
2020-08-06 03:45 14.14 105000 142000 (2019) 53200 (2017) 96900 59800 69800 90200 128000 136000
2020-08-06 02:45 14.17 106000 142000 (2019) 53200 (2017) 96900 59800 69800 90200 128000 136000
2020-08-06 01:45 14.15 106000 142000 (2019) 53200 (2017) 96900 59800 69800 90200 128000 136000
2020-08-06 00:45 14.24 106000 142000 (2019) 53200 (2017) 96900 59800 69800 90200 128000 136000
2020-08-05 23:45 14.25 107000 149000 (2019) 53400 (2017) 102000 60300 70600 105000 133000 143000
2020-08-05 22:45 14.33 107000 149000 (2019) 53400 (2017) 102000 60300 70600 105000 133000 143000
2020-08-05 21:45 14.40 108000 149000 (2019) 53400 (2017) 102000 60300 70600 105000 133000 143000
2020-08-05 20:45 14.41 108000 149000 (2019) 53400 (2017) 102000 60300 70600 105000 133000 143000
2020-08-05 19:45 14.47 109000 149000 (2019) 53400 (2017) 102000 60300 70600 105000 133000 143000
2020-08-05 18:45 14.49 109000 149000 (2019) 53400 (2017) 102000 60300 70600 105000 133000 143000
2020-08-05 17:45 14.51 109000 149000 (2019) 53400 (2017) 102000 60300 70600 105000 133000 143000
2020-08-05 16:45 14.59 110000 149000 (2019) 53400 (2017) 102000 60300 70600 105000 133000 143000
2020-08-05 15:45 14.62 110000 149000 (2019) 53400 (2017) 102000 60300 70600 105000 133000 143000
2020-08-05 14:45 14.68 111000 149000 (2019) 53400 (2017) 102000 60300 70600 105000 133000 143000
2020-08-05 13:45 14.72 111000 149000 (2019) 53400 (2017) 102000 60300 70600 105000 133000 143000
2020-08-05 12:45 14.75 111000 149000 (2019) 53400 (2017) 102000 60300 70600 105000 133000 143000
2020-08-05 11:45 14.78 112000 149000 (2019) 53400 (2017) 102000 60300 70600 105000 133000 143000
2020-08-05 10:45 14.81 112000 149000 (2019) 53400 (2017) 102000 60300 70600 105000 133000 143000
2020-08-05 09:45 14.84 112000 149000 (2019) 53400 (2017) 102000 60300 70600 105000 133000 143000
2020-08-05 08:45 14.85 113000 149000 (2019) 53400 (2017) 102000 60300 70600 105000 133000 143000
2020-08-05 07:45 14.90 113000 149000 (2019) 53400 (2017) 102000 60300 70600 105000 133000 143000
2020-08-05 06:45 14.93 113000 149000 (2019) 53400 (2017) 102000 60300 70600 105000 133000 143000
2020-08-05 05:45 14.97 114000 149000 (2019) 53400 (2017) 102000 60300 70600 105000 133000 143000
2020-08-05 04:45 15.03 114000 149000 (2019) 53400 (2017) 102000 60300 70600 105000 133000 143000
2020-08-05 03:45 15.03 114000 149000 (2019) 53400 (2017) 102000 60300 70600 105000 133000 143000
2020-08-05 02:45 15.07 115000 149000 (2019) 53400 (2017) 102000 60300 70600 105000 133000 143000
2020-08-05 01:45 15.12 115000 149000 (2019) 53400 (2017) 102000 60300 70600 105000 133000 143000
2020-08-05 00:45 15.16 116000 149000 (2019) 53400 (2017) 102000 60300 70600 105000 133000 143000
2020-08-04 23:45 15.21 116000 157000 (2019) 55300 (2017) 112000 62100 72400 124000 145000 152000
2020-08-04 22:45 15.29 117000 157000 (2019) 55300 (2017) 112000 62100 72400 124000 145000 152000
2020-08-04 21:45 15.30 117000 157000 (2019) 55300 (2017) 112000 62100 72400 124000 145000 152000
2020-08-04 20:45 15.34 118000 157000 (2019) 55300 (2017) 112000 62100 72400 124000 145000 152000
2020-08-04 19:45 15.41 119000 157000 (2019) 55300 (2017) 112000 62100 72400 124000 145000 152000
2020-08-04 18:45 15.47 119000 157000 (2019) 55300 (2017) 112000 62100 72400 124000 145000 152000
2020-08-04 17:45 15.54 120000 157000 (2019) 55300 (2017) 112000 62100 72400 124000 145000 152000
2020-08-04 16:45 15.57 120000 157000 (2019) 55300 (2017) 112000 62100 72400 124000 145000 152000
2020-08-04 15:45 15.60 121000 157000 (2019) 55300 (2017) 112000 62100 72400 124000 145000 152000
2020-08-04 14:45 15.67 121000 157000 (2019) 55300 (2017) 112000 62100 72400 124000 145000 152000
2020-08-04 13:45 15.70 122000 157000 (2019) 55300 (2017) 112000 62100 72400 124000 145000 152000
2020-08-04 12:45 15.74 122000 157000 (2019) 55300 (2017) 112000 62100 72400 124000 145000 152000
2020-08-04 11:45 15.78 123000 157000 (2019) 55300 (2017) 112000 62100 72400 124000 145000 152000
2020-08-04 10:45 15.87 124000 157000 (2019) 55300 (2017) 112000 62100 72400 124000 145000 152000
2020-08-04 09:45 15.90 124000 157000 (2019) 55300 (2017) 112000 62100 72400 124000 145000 152000
2020-08-04 08:45 15.94 125000 157000 (2019) 55300 (2017) 112000 62100 72400 124000 145000 152000
2020-08-04 07:45 15.94 125000 157000 (2019) 55300 (2017) 112000 62100 72400 124000 145000 152000
2020-08-04 06:45 16.03 126000 157000 (2019) 55300 (2017) 112000 62100 72400 124000 145000 152000
2020-08-04 05:45 16.07 126000 157000 (2019) 55300 (2017) 112000 62100 72400 124000 145000 152000
2020-08-04 04:45 16.16 127000 157000 (2019) 55300 (2017) 112000 62100 72400 124000 145000 152000
2020-08-04 03:45 16.18 127000 157000 (2019) 55300 (2017) 112000 62100 72400 124000 145000 152000
2020-08-04 02:45 16.31 129000 157000 (2019) 55300 (2017) 112000 62100 72400 124000 145000 152000
2020-08-04 01:45 16.36 130000 157000 (2019) 55300 (2017) 112000 62100 72400 124000 145000 152000
2020-08-04 00:45 16.46 131000 157000 (2019) 55300 (2017) 112000 62100 72400 124000 145000 152000
2020-08-03 23:45 16.55 132000 158000 (2019) 60500 (2017) 118000 66600 75600 127000 155000 157000
2020-08-03 22:45 16.67 133000 158000 (2019) 60500 (2017) 118000 66600 75600 127000 155000 157000
2020-08-03 21:45 16.74 134000 158000 (2019) 60500 (2017) 118000 66600 75600 127000 155000 157000
2020-08-03 20:45 16.85 136000 158000 (2019) 60500 (2017) 118000 66600 75600 127000 155000 157000
2020-08-03 19:45 16.98 137000 158000 (2019) 60500 (2017) 118000 66600 75600 127000 155000 157000
2020-08-03 18:45 17.02 138000 158000 (2019) 60500 (2017) 118000 66600 75600 127000 155000 157000
2020-08-03 17:45 17.20 140000 158000 (2019) 60500 (2017) 118000 66600 75600 127000 155000 157000
2020-08-03 16:45 17.28 141000 158000 (2019) 60500 (2017) 118000 66600 75600 127000 155000 157000
2020-08-03 15:45 17.34 142000 158000 (2019) 60500 (2017) 118000 66600 75600 127000 155000 157000
2020-08-03 14:45 17.48 144000 158000 (2019) 60500 (2017) 118000 66600 75600 127000 155000 157000
2020-08-03 13:45 17.62 145000 158000 (2019) 60500 (2017) 118000 66600 75600 127000 155000 157000
2020-08-03 12:45 17.73 147000 158000 (2019) 60500 (2017) 118000 66600 75600 127000 155000 157000
2020-08-03 11:45 17.87 149000 158000 (2019) 60500 (2017) 118000 66600 75600 127000 155000 157000
2020-08-03 10:45 18.06 151000 158000 (2019) 60500 (2017) 118000 66600 75600 127000 155000 157000
2020-08-03 09:45 18.16 153000 158000 (2019) 60500 (2017) 118000 66600 75600 127000 155000 157000
2020-08-03 08:45 18.27 154000 158000 (2019) 60500 (2017) 118000 66600 75600 127000 155000 157000
2020-08-03 07:45 18.36 155000 158000 (2019) 60500 (2017) 118000 66600 75600 127000 155000 157000
2020-08-03 06:45 18.54 158000 158000 (2019) 60500 (2017) 118000 66600 75600 127000 155000 157000
2020-08-03 05:45 18.73 161000 158000 (2019) 60500 (2017) 118000 66600 75600 127000 155000 157000
2020-08-03 04:45 18.83 162000 158000 (2019) 60500 (2017) 118000 66600 75600 127000 155000 157000
2020-08-03 03:45 18.99 164000 158000 (2019) 60500 (2017) 118000 66600 75600 127000 155000 157000
2020-08-03 02:45 19.20 167000 158000 (2019) 60500 (2017) 118000 66600 75600 127000 155000 157000
2020-08-03 01:45 19.29 168000 158000 (2019) 60500 (2017) 118000 66600 75600 127000 155000 157000
2020-08-03 00:45 19.47 171000 158000 (2019) 60500 (2017) 118000 66600 75600 127000 155000 157000
2020-08-02 23:45 19.65 174000 165000 (2015) 65300 (2017) 116000 70600 78600 96600 163000 164000
2020-08-02 22:45 19.76 175000 165000 (2015) 65300 (2017) 116000 70600 78600 96600 163000 164000
2020-08-02 21:45 19.96 178000 165000 (2015) 65300 (2017) 116000 70600 78600 96600 163000 164000
2020-08-02 20:45 20.01 179000 165000 (2015) 65300 (2017) 116000 70600 78600 96600 163000 164000
2020-08-02 19:45 20.17 181000 165000 (2015) 65300 (2017) 116000 70600 78600 96600 163000 164000
2020-08-02 18:45 20.30 183000 165000 (2015) 65300 (2017) 116000 70600 78600 96600 163000 164000
2020-08-02 17:45 20.38 184000 165000 (2015) 65300 (2017) 116000 70600 78600 96600 163000 164000
2020-08-02 16:45 20.54 187000 165000 (2015) 65300 (2017) 116000 70600 78600 96600 163000 164000
2020-08-02 15:45 20.58 187000 165000 (2015) 65300 (2017) 116000 70600 78600 96600 163000 164000
2020-08-02 14:45 20.68 189000 165000 (2015) 65300 (2017) 116000 70600 78600 96600 163000 164000
2020-08-02 13:45 20.70 189000 165000 (2015) 65300 (2017) 116000 70600 78600 96600 163000 164000
2020-08-02 12:45 20.87 192000 165000 (2015) 65300 (2017) 116000 70600 78600 96600 163000 164000
2020-08-02 11:45 20.83 191000 165000 (2015) 65300 (2017) 116000 70600 78600 96600 163000 164000
2020-08-02 10:45 20.99 194000 165000 (2015) 65300 (2017) 116000 70600 78600 96600 163000 164000
2020-08-02 09:45 20.98 194000 165000 (2015) 65300 (2017) 116000 70600 78600 96600 163000 164000
2020-08-02 08:45 21.10 195000 165000 (2015) 65300 (2017) 116000 70600 78600 96600 163000 164000
2020-08-02 07:45 21.10 195000 165000 (2015) 65300 (2017) 116000 70600 78600 96600 163000 164000
2020-08-02 06:45 21.22 197000 165000 (2015) 65300 (2017) 116000 70600 78600 96600 163000 164000
2020-08-02 05:45 21.12 196000 165000 (2015) 65300 (2017) 116000 70600 78600 96600 163000 164000
2020-08-02 04:45 21.27 198000 165000 (2015) 65300 (2017) 116000 70600 78600 96600 163000 164000
2020-08-02 03:45 21.22 197000 165000 (2015) 65300 (2017) 116000 70600 78600 96600 163000 164000
2020-08-02 02:45 21.24 197000 165000 (2015) 65300 (2017) 116000 70600 78600 96600 163000 164000
2020-08-02 01:45 21.27 198000 165000 (2015) 65300 (2017) 116000 70600 78600 96600 163000 164000
2020-08-02 00:45 21.20 197000 165000 (2015) 65300 (2017) 116000 70600 78600 96600 163000 164000
2020-08-01 23:45 21.18 196000 168000 (2019) 67100 (2017) 114000 69600 73400 93400 165000 167000
2020-08-01 22:45 21.17 196000 168000 (2019) 67100 (2017) 114000 69600 73400 93400 165000 167000
2020-08-01 21:45 21.11 195000 168000 (2019) 67100 (2017) 114000 69600 73400 93400 165000 167000
2020-08-01 20:45 20.99 194000 168000 (2019) 67100 (2017) 114000 69600 73400 93400 165000 167000
2020-08-01 19:45 20.89 192000 168000 (2019) 67100 (2017) 114000 69600 73400 93400 165000 167000
2020-08-01 18:45 20.73 190000 168000 (2019) 67100 (2017) 114000 69600 73400 93400 165000 167000
2020-08-01 17:45 20.58 187000 168000 (2019) 67100 (2017) 114000 69600 73400 93400 165000 167000
2020-08-01 16:45 20.36 184000 168000 (2019) 67100 (2017) 114000 69600 73400 93400 165000 167000
2020-08-01 15:45 20.32 184000 168000 (2019) 67100 (2017) 114000 69600 73400 93400 165000 167000
2020-08-01 14:45 20.05 179000 168000 (2019) 67100 (2017) 114000 69600 73400 93400 165000 167000
2020-08-01 13:45 19.86 177000 168000 (2019) 67100 (2017) 114000 69600 73400 93400 165000 167000
2020-08-01 12:45 19.61 173000 168000 (2019) 67100 (2017) 114000 69600 73400 93400 165000 167000
2020-08-01 11:45 19.36 169000 168000 (2019) 67100 (2017) 114000 69600 73400 93400 165000 167000
2020-08-01 10:45 19.09 166000 168000 (2019) 67100 (2017) 114000 69600 73400 93400 165000 167000
2020-08-01 09:45 18.85 162000 168000 (2019) 67100 (2017) 114000 69600 73400 93400 165000 167000
2020-08-01 08:45 18.51 158000 168000 (2019) 67100 (2017) 114000 69600 73400 93400 165000 167000
2020-08-01 07:45 18.26 154000 168000 (2019) 67100 (2017) 114000 69600 73400 93400 165000 167000
2020-08-01 06:45 17.94 150000 168000 (2019) 67100 (2017) 114000 69600 73400 93400 165000 167000
2020-08-01 05:45 17.66 146000 168000 (2019) 67100 (2017) 114000 69600 73400 93400 165000 167000
2020-08-01 04:45 17.35 142000 168000 (2019) 67100 (2017) 114000 69600 73400 93400 165000 167000
2020-08-01 03:45 17.01 138000 168000 (2019) 67100 (2017) 114000 69600 73400 93400 165000 167000
2020-08-01 02:45 16.79 135000 168000 (2019) 67100 (2017) 114000 69600 73400 93400 165000 167000
2020-08-01 01:45 16.66 133000 168000 (2019) 67100 (2017) 114000 69600 73400 93400 165000 167000
2020-08-01 00:45 16.35 130000 168000 (2019) 67100 (2017) 114000 69600 73400 93400 165000 167000
2020-07-31 23:45 16.17 127000 173000 (2019) 58300 (2016) 108000 60800 64400 95300 158000 167000
2020-07-31 22:45 15.96 125000 173000 (2019) 58300 (2016) 108000 60800 64400 95300 158000 167000
2020-07-31 21:45 15.80 123000 173000 (2019) 58300 (2016) 108000 60800 64400 95300 158000 167000
2020-07-31 20:45 15.61 121000 173000 (2019) 58300 (2016) 108000 60800 64400 95300 158000 167000
2020-07-31 19:45 15.42 119000 173000 (2019) 58300 (2016) 108000 60800 64400 95300 158000 167000
2020-07-31 18:45 15.29 117000 173000 (2019) 58300 (2016) 108000 60800 64400 95300 158000 167000
2020-07-31 17:45 15.17 116000 173000 (2019) 58300 (2016) 108000 60800 64400 95300 158000 167000
2020-07-31 16:45 15.06 115000 173000 (2019) 58300 (2016) 108000 60800 64400 95300 158000 167000
2020-07-31 15:45 15.02 114000 173000 (2019) 58300 (2016) 108000 60800 64400 95300 158000 167000
2020-07-31 14:45 14.96 114000 173000 (2019) 58300 (2016) 108000 60800 64400 95300 158000 167000
2020-07-31 13:45 14.90 113000 173000 (2019) 58300 (2016) 108000 60800 64400 95300 158000 167000
2020-07-31 12:45 14.80 112000 173000 (2019) 58300 (2016) 108000 60800 64400 95300 158000 167000
2020-07-31 11:45 14.80 112000 173000 (2019) 58300 (2016) 108000 60800 64400 95300 158000 167000
2020-07-31 10:45 14.67 111000 173000 (2019) 58300 (2016) 108000 60800 64400 95300 158000 167000
2020-07-31 09:45 14.60 110000 173000 (2019) 58300 (2016) 108000 60800 64400 95300 158000 167000
2020-07-31 08:45 14.50 109000 173000 (2019) 58300 (2016) 108000 60800 64400 95300 158000 167000
2020-07-31 07:45 14.36 108000 173000 (2019) 58300 (2016) 108000 60800 64400 95300 158000 167000
2020-07-31 06:45 14.23 106000 173000 (2019) 58300 (2016) 108000 60800 64400 95300 158000 167000
2020-07-31 05:45 14.11 105000 173000 (2019) 58300 (2016) 108000 60800 64400 95300 158000 167000
2020-07-31 04:45 13.87 103000 173000 (2019) 58300 (2016) 108000 60800 64400 95300 158000 167000
2020-07-31 03:45 13.78 102000 173000 (2019) 58300 (2016) 108000 60800 64400 95300 158000 167000
2020-07-31 02:45 13.69 101000 173000 (2019) 58300 (2016) 108000 60800 64400 95300 158000 167000
2020-07-31 01:45 13.64 101000 173000 (2019) 58300 (2016) 108000 60800 64400 95300 158000 167000
2020-07-31 00:45 13.56 100000 173000 (2019) 58300 (2016) 108000 60800 64400 95300 158000 167000
2020-07-30 23:45 13.52 99900 180000 (2019) 59600 (2016) 111000 64600 72100 96600 157000 171000
2020-07-30 22:45 13.52 99900 180000 (2019) 59600 (2016) 111000 64600 72100 96600 157000 171000
2020-07-30 21:45 13.50 99700 180000 (2019) 59600 (2016) 111000 64600 72100 96600 157000 171000
2020-07-30 20:45 13.46 99300 180000 (2019) 59600 (2016) 111000 64600 72100 96600 157000 171000
2020-07-30 19:45 13.45 99200 180000 (2019) 59600 (2016) 111000 64600 72100 96600 157000 171000
2020-07-30 18:45 13.44 99100 180000 (2019) 59600 (2016) 111000 64600 72100 96600 157000 171000
2020-07-30 17:45 13.46 99300 180000 (2019) 59600 (2016) 111000 64600 72100 96600 157000 171000
2020-07-30 16:45 13.43 99000 180000 (2019) 59600 (2016) 111000 64600 72100 96600 157000 171000
2020-07-30 15:45 13.43 99000 180000 (2019) 59600 (2016) 111000 64600 72100 96600 157000 171000
2020-07-30 14:45 13.39 98600 180000 (2019) 59600 (2016) 111000 64600 72100 96600 157000 171000
2020-07-30 13:45 13.36 98500 180000 (2019) 59600 (2016) 111000 64600 72100 96600 157000 171000
2020-07-30 12:45 13.36 98500 180000 (2019) 59600 (2016) 111000 64600 72100 96600 157000 171000
2020-07-30 11:45 13.32 98100 180000 (2019) 59600 (2016) 111000 64600 72100 96600 157000 171000
2020-07-30 10:45 13.32 98100 180000 (2019) 59600 (2016) 111000 64600 72100 96600 157000 171000
2020-07-30 09:45 13.31 98000 180000 (2019) 59600 (2016) 111000 64600 72100 96600 157000 171000
2020-07-30 08:45 13.29 97800 180000 (2019) 59600 (2016) 111000 64600 72100 96600 157000 171000
2020-07-30 07:45 13.28 97700 180000 (2019) 59600 (2016) 111000 64600 72100 96600 157000 171000
2020-07-30 06:45 13.30 97900 180000 (2019) 59600 (2016) 111000 64600 72100 96600 157000 171000
2020-07-30 05:45 13.29 97800 180000 (2019) 59600 (2016) 111000 64600 72100 96600 157000 171000
2020-07-30 04:45 13.23 97300 180000 (2019) 59600 (2016) 111000 64600 72100 96600 157000 171000
2020-07-30 03:45 13.27 97600 180000 (2019) 59600 (2016) 111000 64600 72100 96600 157000 171000
2020-07-30 02:45 13.22 97200 180000 (2019) 59600 (2016) 111000 64600 72100 96600 157000 171000
2020-07-30 01:45 13.19 96900 180000 (2019) 59600 (2016) 111000 64600 72100 96600 157000 171000
2020-07-30 00:45 13.15 96500 180000 (2019) 59600 (2016) 111000 64600 72100 96600 157000 171000
2020-07-29 23:45 13.15 96500 178000 (2019) 61300 (2016) 116000 68400 79100 105000 158000 170000
2020-07-29 22:45 13.16 96600 178000 (2019) 61300 (2016) 116000 68400 79100 105000 158000 170000
2020-07-29 21:45 13.18 96800 178000 (2019) 61300 (2016) 116000 68400 79100 105000 158000 170000
2020-07-29 20:45 13.23 97300 178000 (2019) 61300 (2016) 116000 68400 79100 105000 158000 170000
2020-07-29 19:45 13.20 97000 178000 (2019) 61300 (2016) 116000 68400 79100 105000 158000 170000
2020-07-29 18:45 13.23 97300 178000 (2019) 61300 (2016) 116000 68400 79100 105000 158000 170000
2020-07-29 17:45 13.20 97000 178000 (2019) 61300 (2016) 116000 68400 79100 105000 158000 170000
2020-07-29 16:45 13.20 97000 178000 (2019) 61300 (2016) 116000 68400 79100 105000 158000 170000
2020-07-29 15:45 13.11 96300 178000 (2019) 61300 (2016) 116000 68400 79100 105000 158000 170000
2020-07-29 14:45 13.06 95800 178000 (2019) 61300 (2016) 116000 68400 79100 105000 158000 170000
2020-07-29 13:45 13.04 95600 178000 (2019) 61300 (2016) 116000 68400 79100 105000 158000 170000
2020-07-29 12:45 13.01 95400 178000 (2019) 61300 (2016) 116000 68400 79100 105000 158000 170000
2020-07-29 11:45 13.01 95400 178000 (2019) 61300 (2016) 116000 68400 79100 105000 158000 170000
2020-07-29 10:45 12.94 94700 178000 (2019) 61300 (2016) 116000 68400 79100 105000 158000 170000
2020-07-29 09:45 12.89 94300 178000 (2019) 61300 (2016) 116000 68400 79100 105000 158000 170000
2020-07-29 08:45 12.87 94100 178000 (2019) 61300 (2016) 116000 68400 79100 105000 158000 170000
2020-07-29 07:45 12.80 93500 178000 (2019) 61300 (2016) 116000 68400 79100 105000 158000 170000
2020-07-29 06:45 12.73 93000 178000 (2019) 61300 (2016) 116000 68400 79100 105000 158000 170000
2020-07-29 05:45 12.68 92500 178000 (2019) 61300 (2016) 116000 68400 79100 105000 158000 170000
2020-07-29 04:45 12.61 91900 178000 (2019) 61300 (2016) 116000 68400 79100 105000 158000 170000
2020-07-29 03:45 12.51 91100 178000 (2019) 61300 (2016) 116000 68400 79100 105000 158000 170000
2020-07-29 02:45 12.41 90300 178000 (2019) 61300 (2016) 116000 68400 79100 105000 158000 170000
2020-07-29 01:45 12.32 89500 178000 (2019) 61300 (2016) 116000 68400 79100 105000 158000 170000
2020-07-29 00:45 12.22 88700 178000 (2019) 61300 (2016) 116000 68400 79100 105000 158000 170000
2020-07-28 23:45 12.09 87600 179000 (2019) 64200 (2016) 107000 64600 65100 98100 154000 169000
2020-07-28 22:45 12.02 87100 179000 (2019) 64200 (2016) 107000 64600 65100 98100 154000 169000
2020-07-28 21:45 11.92 86300 179000 (2019) 64200 (2016) 107000 64600 65100 98100 154000 169000
2020-07-28 20:45 11.79 85200 179000 (2019) 64200 (2016) 107000 64600 65100 98100 154000 169000
2020-07-28 19:45 11.72 84700 179000 (2019) 64200 (2016) 107000 64600 65100 98100 154000 169000
2020-07-28 18:45 11.63 84000 179000 (2019) 64200 (2016) 107000 64600 65100 98100 154000 169000
2020-07-28 17:45 11.56 83400 179000 (2019) 64200 (2016) 107000 64600 65100 98100 154000 169000
2020-07-28 16:45 11.50 83000 179000 (2019) 64200 (2016) 107000 64600 65100 98100 154000 169000
2020-07-28 15:45 11.44 82500 179000 (2019) 64200 (2016) 107000 64600 65100 98100 154000 169000
2020-07-28 14:45 11.37 82000 179000 (2019) 64200 (2016) 107000 64600 65100 98100 154000 169000
2020-07-28 13:45 11.32 81600 179000 (2019) 64200 (2016) 107000 64600 65100 98100 154000 169000
2020-07-28 12:45 11.24 81000 179000 (2019) 64200 (2016) 107000 64600 65100 98100 154000 169000
2020-07-28 11:45 11.22 80800 179000 (2019) 64200 (2016) 107000 64600 65100 98100 154000 169000
2020-07-28 10:45 11.20 80700 179000 (2019) 64200 (2016) 107000 64600 65100 98100 154000 169000
2020-07-28 09:45 11.17 80400 179000 (2019) 64200 (2016) 107000 64600 65100 98100 154000 169000
2020-07-28 08:45 11.15 80300 179000 (2019) 64200 (2016) 107000 64600 65100 98100 154000 169000
2020-07-28 07:45 11.12 80100 179000 (2019) 64200 (2016) 107000 64600 65100 98100 154000 169000
2020-07-28 06:45 11.09 79800 179000 (2019) 64200 (2016) 107000 64600 65100 98100 154000 169000
2020-07-28 05:45 11.08 79800 179000 (2019) 64200 (2016) 107000 64600 65100 98100 154000 169000
2020-07-28 04:45 11.07 79700 179000 (2019) 64200 (2016) 107000 64600 65100 98100 154000 169000
2020-07-28 03:45 11.09 79800 179000 (2019) 64200 (2016) 107000 64600 65100 98100 154000 169000
2020-07-28 02:45 11.06 79600 179000 (2019) 64200 (2016) 107000 64600 65100 98100 154000 169000
2020-07-28 01:45 11.07 79700 179000 (2019) 64200 (2016) 107000 64600 65100 98100 154000 169000
2020-07-28 00:45 11.07 79700 179000 (2019) 64200 (2016) 107000 64600 65100 98100 154000 169000
2020-07-27 23:45 11.07 79700 183000 (2019) 55500 (2017) 106000 57900 61500 99600 154000 171000
2020-07-27 22:45 11.08 79800 183000 (2019) 55500 (2017) 106000 57900 61500 99600 154000 171000
2020-07-27 21:45 11.07 79700 183000 (2019) 55500 (2017) 106000 57900 61500 99600 154000 171000
2020-07-27 20:45 11.08 79800 183000 (2019) 55500 (2017) 106000 57900 61500 99600 154000 171000
2020-07-27 19:45 11.08 79800 183000 (2019) 55500 (2017) 106000 57900 61500 99600 154000 171000
2020-07-27 18:45 11.08 79800 183000 (2019) 55500 (2017) 106000 57900 61500 99600 154000 171000
2020-07-27 17:45 11.07 79700 183000 (2019) 55500 (2017) 106000 57900 61500 99600 154000 171000
2020-07-27 16:45 11.08 79800 183000 (2019) 55500 (2017) 106000 57900 61500 99600 154000 171000
2020-07-27 15:45 11.11 80000 183000 (2019) 55500 (2017) 106000 57900 61500 99600 154000 171000
2020-07-27 14:45 11.12 80100 183000 (2019) 55500 (2017) 106000 57900 61500 99600 154000 171000
2020-07-27 13:45 11.11 80000 183000 (2019) 55500 (2017) 106000 57900 61500 99600 154000 171000
2020-07-27 12:45 11.14 80200 183000 (2019) 55500 (2017) 106000 57900 61500 99600 154000 171000
2020-07-27 11:45 11.13 80100 183000 (2019) 55500 (2017) 106000 57900 61500 99600 154000 171000
2020-07-27 10:45 11.12 80100 183000 (2019) 55500 (2017) 106000 57900 61500 99600 154000 171000
2020-07-27 09:45 11.15 80300 183000 (2019) 55500 (2017) 106000 57900 61500 99600 154000 171000
2020-07-27 08:45 11.16 80400 183000 (2019) 55500 (2017) 106000 57900 61500 99600 154000 171000
2020-07-27 07:45 11.18 80500 183000 (2019) 55500 (2017) 106000 57900 61500 99600 154000 171000
2020-07-27 06:45 11.19 80600 183000 (2019) 55500 (2017) 106000 57900 61500 99600 154000 171000
2020-07-27 05:45 11.20 80700 183000 (2019) 55500 (2017) 106000 57900 61500 99600 154000 171000
2020-07-27 04:45 11.21 80800 183000 (2019) 55500 (2017) 106000 57900 61500 99600 154000 171000
2020-07-27 03:45 11.22 80800 183000 (2019) 55500 (2017) 106000 57900 61500 99600 154000 171000
2020-07-27 02:45 11.24 81000 183000 (2019) 55500 (2017) 106000 57900 61500 99600 154000 171000
2020-07-27 01:45 11.26 81100 183000 (2019) 55500 (2017) 106000 57900 61500 99600 154000 171000
2020-07-27 00:45 11.26 81100 183000 (2019) 55500 (2017) 106000 57900 61500 99600 154000 171000
2020-07-26 23:45 11.31 81500 189000 (2019) 58200 (2017) 110000 60500 63900 101000 160000 177000
2020-07-26 22:45 11.32 81600 189000 (2019) 58200 (2017) 110000 60500 63900 101000 160000 177000
2020-07-26 21:45 11.32 81600 189000 (2019) 58200 (2017) 110000 60500 63900 101000 160000 177000
2020-07-26 20:45 11.33 81700 189000 (2019) 58200 (2017) 110000 60500 63900 101000 160000 177000
2020-07-26 19:45 11.35 81800 189000 (2019) 58200 (2017) 110000 60500 63900 101000 160000 177000
2020-07-26 18:45 11.37 82000 189000 (2019) 58200 (2017) 110000 60500 63900 101000 160000 177000
2020-07-26 17:45 11.41 82300 189000 (2019) 58200 (2017) 110000 60500 63900 101000 160000 177000
2020-07-26 16:45 11.41 82300 189000 (2019) 58200 (2017) 110000 60500 63900 101000 160000 177000
2020-07-26 15:45 11.45 82600 189000 (2019) 58200 (2017) 110000 60500 63900 101000 160000 177000
2020-07-26 14:45 11.47 82700 189000 (2019) 58200 (2017) 110000 60500 63900 101000 160000 177000
2020-07-26 13:45 11.49 82900 189000 (2019) 58200 (2017) 110000 60500 63900 101000 160000 177000
2020-07-26 12:45 11.54 83300 189000 (2019) 58200 (2017) 110000 60500 63900 101000 160000 177000
2020-07-26 11:45 11.53 83200 189000 (2019) 58200 (2017) 110000 60500 63900 101000 160000 177000
2020-07-26 10:45 11.57 83500 189000 (2019) 58200 (2017) 110000 60500 63900 101000 160000 177000
2020-07-26 09:45 11.59 83700 189000 (2019) 58200 (2017) 110000 60500 63900 101000 160000 177000
2020-07-26 08:45 11.64 84100 189000 (2019) 58200 (2017) 110000 60500 63900 101000 160000 177000
2020-07-26 07:45 11.66 84200 189000 (2019) 58200 (2017) 110000 60500 63900 101000 160000 177000
2020-07-26 06:45 11.69 84500 189000 (2019) 58200 (2017) 110000 60500 63900 101000 160000 177000
2020-07-26 05:45 11.73 84800 189000 (2019) 58200 (2017) 110000 60500 63900 101000 160000 177000
2020-07-26 04:45 11.76 85000 189000 (2019) 58200 (2017) 110000 60500 63900 101000 160000 177000
2020-07-26 03:45 11.78 85200 189000 (2019) 58200 (2017) 110000 60500 63900 101000 160000 177000
2020-07-26 02:45 11.84 85600 189000 (2019) 58200 (2017) 110000 60500 63900 101000 160000 177000
2020-07-26 01:45 11.87 85900 189000 (2019) 58200 (2017) 110000 60500 63900 101000 160000 177000
2020-07-26 00:45 11.93 86400 189000 (2019) 58200 (2017) 110000 60500 63900 101000 160000 177000
2020-07-25 23:45 11.98 86800 195000 (2019) 61500 (2017) 112000 64200 68200 102000 160000 181000
2020-07-25 22:45 12.02 87100 195000 (2019) 61500 (2017) 112000 64200 68200 102000 160000 181000
2020-07-25 21:45 12.06 87400 195000 (2019) 61500 (2017) 112000 64200 68200 102000 160000 181000
2020-07-25 20:45 12.09 87600 195000 (2019) 61500 (2017) 112000 64200 68200 102000 160000 181000
2020-07-25 19:45 12.15 88100 195000 (2019) 61500 (2017) 112000 64200 68200 102000 160000 181000
2020-07-25 18:45 12.19 88500 195000 (2019) 61500 (2017) 112000 64200 68200 102000 160000 181000
2020-07-25 17:45 12.25 88900 195000 (2019) 61500 (2017) 112000 64200 68200 102000 160000 181000
2020-07-25 16:45 12.26 89000 195000 (2019) 61500 (2017) 112000 64200 68200 102000 160000 181000
2020-07-25 15:45 12.33 89600 195000 (2019) 61500 (2017) 112000 64200 68200 102000 160000 181000
2020-07-25 14:45 12.37 89900 195000 (2019) 61500 (2017) 112000 64200 68200 102000 160000 181000
2020-07-25 13:45 12.41 90300 195000 (2019) 61500 (2017) 112000 64200 68200 102000 160000 181000
2020-07-25 12:45 12.47 90800 195000 (2019) 61500 (2017) 112000 64200 68200 102000 160000 181000
2020-07-25 11:45 12.54 91400 195000 (2019) 61500 (2017) 112000 64200 68200 102000 160000 181000
2020-07-25 10:45 12.60 91900 195000 (2019) 61500 (2017) 112000 64200 68200 102000 160000 181000
2020-07-25 09:45 12.65 92300 195000 (2019) 61500 (2017) 112000 64200 68200 102000 160000 181000
2020-07-25 08:45 12.70 92700 195000 (2019) 61500 (2017) 112000 64200 68200 102000 160000 181000
2020-07-25 07:45 12.78 93400 195000 (2019) 61500 (2017) 112000 64200 68200 102000 160000 181000
2020-07-25 06:45 12.85 94000 195000 (2019) 61500 (2017) 112000 64200 68200 102000 160000 181000
2020-07-25 05:45 12.93 94700 195000 (2019) 61500 (2017) 112000 64200 68200 102000 160000 181000
2020-07-25 04:45 12.98 95100 195000 (2019) 61500 (2017) 112000 64200 68200 102000 160000 181000
2020-07-25 03:45 13.03 95500 195000 (2019) 61500 (2017) 112000 64200 68200 102000 160000 181000
2020-07-25 02:45 13.14 96400 195000 (2019) 61500 (2017) 112000 64200 68200 102000 160000 181000
2020-07-25 01:45 13.20 97000 195000 (2019) 61500 (2017) 112000 64200 68200 102000 160000 181000
2020-07-25 00:45 13.26 97500 195000 (2019) 61500 (2017) 112000 64200 68200 102000 160000 181000
2020-07-24 23:45 13.34 98300 199000 (2019) 63800 (2017) 121000 67600 73300 103000 176000 190000
2020-07-24 22:45 13.43 99000 199000 (2019) 63800 (2017) 121000 67600 73300 103000 176000 190000
2020-07-24 21:45 13.48 99500 199000 (2019) 63800 (2017) 121000 67600 73300 103000 176000 190000
2020-07-24 20:45 13.55 100000 199000 (2019) 63800 (2017) 121000 67600 73300 103000 176000 190000
2020-07-24 19:45 13.66 101000 199000 (2019) 63800 (2017) 121000 67600 73300 103000 176000 190000
2020-07-24 18:45 13.73 102000 199000 (2019) 63800 (2017) 121000 67600 73300 103000 176000 190000
2020-07-24 17:45 13.81 102000 199000 (2019) 63800 (2017) 121000 67600 73300 103000 176000 190000
2020-07-24 16:45 13.90 103000 199000 (2019) 63800 (2017) 121000 67600 73300 103000 176000 190000
2020-07-24 15:45 13.92 103000 199000 (2019) 63800 (2017) 121000 67600 73300 103000 176000 190000
2020-07-24 14:45 14.02 104000 199000 (2019) 63800 (2017) 121000 67600 73300 103000 176000 190000
2020-07-24 13:45 14.07 105000 199000 (2019) 63800 (2017) 121000 67600 73300 103000 176000 190000
2020-07-24 12:45 14.16 103000 199000 (2019) 63800 (2017) 121000 67600 73300 103000 176000 190000
2020-07-24 11:45 14.23 104000 199000 (2019) 63800 (2017) 121000 67600 73300 103000 176000 190000
2020-07-24 10:45 14.30 104000 199000 (2019) 63800 (2017) 121000 67600 73300 103000 176000 190000
2020-07-24 09:45 14.40 105000 199000 (2019) 63800 (2017) 121000 67600 73300 103000 176000 190000
2020-07-24 08:45 14.51 106000 199000 (2019) 63800 (2017) 121000 67600 73300 103000 176000 190000
2020-07-24 07:45 14.55 107000 199000 (2019) 63800 (2017) 121000 67600 73300 103000 176000 190000
2020-07-24 06:45 14.66 108000 199000 (2019) 63800 (2017) 121000 67600 73300 103000 176000 190000
2020-07-24 05:45 14.67 108000 199000 (2019) 63800 (2017) 121000 67600 73300 103000 176000 190000
2020-07-24 04:45 14.79 109000 199000 (2019) 63800 (2017) 121000 67600 73300 103000 176000 190000
2020-07-24 03:45 14.87 110000 199000 (2019) 63800 (2017) 121000 67600 73300 103000 176000 190000
2020-07-24 02:45 14.96 110000 199000 (2019) 63800 (2017) 121000 67600 73300 103000 176000 190000
2020-07-24 01:45 15.05 111000 199000 (2019) 63800 (2017) 121000 67600 73300 103000 176000 190000
2020-07-24 00:45 15.10 112000 199000 (2019) 63800 (2017) 121000 67600 73300 103000 176000 190000
2020-07-23 23:45 15.13 112000 196000 (2019) 61100 (2017) 130000 68500 79600 104000 193000 195000
2020-07-23 22:45 15.25 114000 196000 (2019) 61100 (2017) 130000 68500 79600 104000 193000 195000
2020-07-23 21:45 15.24 113000 196000 (2019) 61100 (2017) 130000 68500 79600 104000 193000 195000
2020-07-23 20:45 15.32 114000 196000 (2019) 61100 (2017) 130000 68500 79600 104000 193000 195000
2020-07-23 19:45 15.35 115000 196000 (2019) 61100 (2017) 130000 68500 79600 104000 193000 195000
2020-07-23 18:45 15.42 115000 196000 (2019) 61100 (2017) 130000 68500 79600 104000 193000 195000
2020-07-23 17:45 15.44 116000 196000 (2019) 61100 (2017) 130000 68500 79600 104000 193000 195000
2020-07-23 16:45 15.44 116000 196000 (2019) 61100 (2017) 130000 68500 79600 104000 193000 195000
2020-07-23 15:45 15.38 115000 196000 (2019) 61100 (2017) 130000 68500 79600 104000 193000 195000
2020-07-23 14:45 15.46 116000 196000 (2019) 61100 (2017) 130000 68500 79600 104000 193000 195000
2020-07-23 13:45 15.48 116000 196000 (2019) 61100 (2017) 130000 68500 79600 104000 193000 195000
2020-07-23 12:45 15.45 116000 196000 (2019) 61100 (2017) 130000 68500 79600 104000 193000 195000
2020-07-23 11:45 15.44 116000 196000 (2019) 61100 (2017) 130000 68500 79600 104000 193000 195000
2020-07-23 10:45 15.30 114000 196000 (2019) 61100 (2017) 130000 68500 79600 104000 193000 195000
2020-07-23 09:45 15.29 114000 196000 (2019) 61100 (2017) 130000 68500 79600 104000 193000 195000
2020-07-23 08:45 15.28 114000 196000 (2019) 61100 (2017) 130000 68500 79600 104000 193000 195000
2020-07-23 07:45 15.21 113000 196000 (2019) 61100 (2017) 130000 68500 79600 104000 193000 195000
2020-07-23 06:45 15.13 112000 196000 (2019) 61100 (2017) 130000 68500 79600 104000 193000 195000
2020-07-23 05:45 15.03 111000 196000 (2019) 61100 (2017) 130000 68500 79600 104000 193000 195000
2020-07-23 04:45 14.96 110000 196000 (2019) 61100 (2017) 130000 68500 79600 104000 193000 195000
2020-07-23 03:45 14.86 110000 196000 (2019) 61100 (2017) 130000 68500 79600 104000 193000 195000
2020-07-23 02:45 14.72 108000 196000 (2019) 61100 (2017) 130000 68500 79600 104000 193000 195000
2020-07-23 01:45 14.59 107000 196000 (2019) 61100 (2017) 130000 68500 79600 104000 193000 195000
2020-07-23 00:45 14.44 106000 196000 (2019) 61100 (2017) 130000 68500 79600 104000 193000 195000
2020-07-22 23:45 14.26 104000 211000 (2015) 59500 (2017) 134000 68400 81800 106000 199000 206000
2020-07-22 22:45 14.12 103000 211000 (2015) 59500 (2017) 134000 68400 81800 106000 199000 206000
2020-07-22 21:45 13.97 101000 211000 (2015) 59500 (2017) 134000 68400 81800 106000 199000 206000
2020-07-22 20:45 13.79 99600 211000 (2015) 59500 (2017) 134000 68400 81800 106000 199000 206000
2020-07-22 19:45 13.65 98300 211000 (2015) 59500 (2017) 134000 68400 81800 106000 199000 206000
2020-07-22 18:45 13.47 96700 211000 (2015) 59500 (2017) 134000 68400 81800 106000 199000 206000
2020-07-22 17:45 13.32 95500 211000 (2015) 59500 (2017) 134000 68400 81800 106000 199000 206000
2020-07-22 16:45 13.19 94300 211000 (2015) 59500 (2017) 134000 68400 81800 106000 199000 206000
2020-07-22 15:45 13.03 93000 211000 (2015) 59500 (2017) 134000 68400 81800 106000 199000 206000
2020-07-22 14:45 12.89 91800 211000 (2015) 59500 (2017) 134000 68400 81800 106000 199000 206000
2020-07-22 13:45 12.76 90700 211000 (2015) 59500 (2017) 134000 68400 81800 106000 199000 206000
2020-07-22 12:45 12.67 89900 211000 (2015) 59500 (2017) 134000 68400 81800 106000 199000 206000
2020-07-22 11:45 12.50 88500 211000 (2015) 59500 (2017) 134000 68400 81800 106000 199000 206000
2020-07-22 10:45 12.44 88100 211000 (2015) 59500 (2017) 134000 68400 81800 106000 199000 206000
2020-07-22 09:45 12.36 87400 211000 (2015) 59500 (2017) 134000 68400 81800 106000 199000 206000
2020-07-22 08:45 12.27 86700 211000 (2015) 59500 (2017) 134000 68400 81800 106000 199000 206000
2020-07-22 07:45 12.22 86300 211000 (2015) 59500 (2017) 134000 68400 81800 106000 199000 206000
2020-07-22 06:45 12.16 85800 211000 (2015) 59500 (2017) 134000 68400 81800 106000 199000 206000
2020-07-22 05:45 12.10 85300 211000 (2015) 59500 (2017) 134000 68400 81800 106000 199000 206000
2020-07-22 04:45 12.01 84600 211000 (2015) 59500 (2017) 134000 68400 81800 106000 199000 206000
2020-07-22 03:45 11.97 84300 211000 (2015) 59500 (2017) 134000 68400 81800 106000 199000 206000
2020-07-22 02:45 11.91 83800 211000 (2015) 59500 (2017) 134000 68400 81800 106000 199000 206000
2020-07-22 01:45 11.85 83400 211000 (2015) 59500 (2017) 134000 68400 81800 106000 199000 206000
2020-07-22 00:45 11.81 83100 211000 (2015) 59500 (2017) 134000 68400 81800 106000 199000 206000
2020-07-21 23:45 11.77 82700 213000 (2015) 61000 (2017) 127000 63700 67700 108000 197000 207000
2020-07-21 22:45 11.73 82400 213000 (2015) 61000 (2017) 127000 63700 67700 108000 197000 207000
2020-07-21 21:45 11.66 81900 213000 (2015) 61000 (2017) 127000 63700 67700 108000 197000 207000
2020-07-21 20:45 11.65 81800 213000 (2015) 61000 (2017) 127000 63700 67700 108000 197000 207000
2020-07-21 19:45 11.59 81400 213000 (2015) 61000 (2017) 127000 63700 67700 108000 197000 207000
2020-07-21 18:45 11.54 81000 213000 (2015) 61000 (2017) 127000 63700 67700 108000 197000 207000
2020-07-21 17:45 11.53 80900 213000 (2015) 61000 (2017) 127000 63700 67700 108000 197000 207000
2020-07-21 16:45 11.49 80600 213000 (2015) 61000 (2017) 127000 63700 67700 108000 197000 207000
2020-07-21 15:45 11.48 80500 213000 (2015) 61000 (2017) 127000 63700 67700 108000 197000 207000
2020-07-21 14:45 11.44 80200 213000 (2015) 61000 (2017) 127000 63700 67700 108000 197000 207000
2020-07-21 13:45 11.44 80200 213000 (2015) 61000 (2017) 127000 63700 67700 108000 197000 207000
2020-07-21 12:45 11.41 80000 213000 (2015) 61000 (2017) 127000 63700 67700 108000 197000 207000
2020-07-21 11:45 11.43 80100 213000 (2015) 61000 (2017) 127000 63700 67700 108000 197000 207000
2020-07-21 10:45 11.41 80000 213000 (2015) 61000 (2017) 127000 63700 67700 108000 197000 207000
2020-07-21 09:45 11.41 80000 213000 (2015) 61000 (2017) 127000 63700 67700 108000 197000 207000
2020-07-21 08:45 11.40 79900 213000 (2015) 61000 (2017) 127000 63700 67700 108000 197000 207000
2020-07-21 07:45 11.45 80300 213000 (2015) 61000 (2017) 127000 63700 67700 108000 197000 207000
2020-07-21 06:45 11.43 80100 213000 (2015) 61000 (2017) 127000 63700 67700 108000 197000 207000
2020-07-21 05:45 11.48 80500 213000 (2015) 61000 (2017) 127000 63700 67700 108000 197000 207000
2020-07-21 04:45 11.41 80000 213000 (2015) 61000 (2017) 127000 63700 67700 108000 197000 207000
2020-07-21 03:45 11.45 80300 213000 (2015) 61000 (2017) 127000 63700 67700 108000 197000 207000
2020-07-21 02:45 11.45 80300 213000 (2015) 61000 (2017) 127000 63700 67700 108000 197000 207000
2020-07-21 01:45 11.47 80400 213000 (2015) 61000 (2017) 127000 63700 67700 108000 197000 207000
2020-07-21 00:45 11.42 80100 213000 (2015) 61000 (2017) 127000 63700 67700 108000 197000 207000
2020-07-20 23:45 11.43 80100 200000 (2015) 63800 (2017) 125000 65100 67100 108000 191000 196000
2020-07-20 22:45 11.50 80700 200000 (2015) 63800 (2017) 125000 65100 67100 108000 191000 196000
2020-07-20 21:45 11.49 80600 200000 (2015) 63800 (2017) 125000 65100 67100 108000 191000 196000
2020-07-20 20:45 11.52 80800 200000 (2015) 63800 (2017) 125000 65100 67100 108000 191000 196000
2020-07-20 19:45 11.54 81000 200000 (2015) 63800 (2017) 125000 65100 67100 108000 191000 196000
2020-07-20 18:45 11.55 81100 200000 (2015) 63800 (2017) 125000 65100 67100 108000 191000 196000
2020-07-20 17:45 11.58 81300 200000 (2015) 63800 (2017) 125000 65100 67100 108000 191000 196000
2020-07-20 16:45 11.64 81700 200000 (2015) 63800 (2017) 125000 65100 67100 108000 191000 196000
2020-07-20 15:45 11.67 82000 200000 (2015) 63800 (2017) 125000 65100 67100 108000 191000 196000
2020-07-20 14:45 11.72 82400 200000 (2015) 63800 (2017) 125000 65100 67100 108000 191000 196000
2020-07-20 13:45 11.73 82400 200000 (2015) 63800 (2017) 125000 65100 67100 108000 191000 196000
2020-07-20 12:45 11.80 83000 200000 (2015) 63800 (2017) 125000 65100 67100 108000 191000 196000
2020-07-20 11:45 11.91 83800 200000 (2015) 63800 (2017) 125000 65100 67100 108000 191000 196000
2020-07-20 10:45 11.93 84000 200000 (2015) 63800 (2017) 125000 65100 67100 108000 191000 196000
2020-07-20 09:45 11.99 84500 200000 (2015) 63800 (2017) 125000 65100 67100 108000 191000 196000
2020-07-20 08:45 12.08 85200 200000 (2015) 63800 (2017) 125000 65100 67100 108000 191000 196000
2020-07-20 07:45 12.13 85600 200000 (2015) 63800 (2017) 125000 65100 67100 108000 191000 196000
2020-07-20 06:45 12.23 86400 200000 (2015) 63800 (2017) 125000 65100 67100 108000 191000 196000
2020-07-20 05:45 12.32 87100 200000 (2015) 63800 (2017) 125000 65100 67100 108000 191000 196000
2020-07-20 04:45 12.38 87600 200000 (2015) 63800 (2017) 125000 65100 67100 108000 191000 196000
2020-07-20 03:45 12.46 88200 200000 (2015) 63800 (2017) 125000 65100 67100 108000 191000 196000
2020-07-20 02:45 12.54 88900 200000 (2015) 63800 (2017) 125000 65100 67100 108000 191000 196000
2020-07-20 01:45 12.61 89400 200000 (2015) 63800 (2017) 125000 65100 67100 108000 191000 196000
2020-07-20 00:45 12.71 90300 200000 (2015) 63800 (2017) 125000 65100 67100 108000 191000 196000
2020-07-19 23:45 12.81 91100 182000 (2019) 70000 (2017) 119000 70600 71600 103000 174000 179000
2020-07-19 22:45 12.94 92200 182000 (2019) 70000 (2017) 119000 70600 71600 103000 174000 179000
2020-07-19 21:45 13.02 92900 182000 (2019) 70000 (2017) 119000 70600 71600 103000 174000 179000
2020-07-19 20:45 13.20 94400 182000 (2019) 70000 (2017) 119000 70600 71600 103000 174000 179000
2020-07-19 19:45 13.41 96200 182000 (2019) 70000 (2017) 119000 70600 71600 103000 174000 179000
2020-07-19 18:45 13.43 96400 182000 (2019) 70000 (2017) 119000 70600 71600 103000 174000 179000
2020-07-19 17:45 13.17 94100 182000 (2019) 70000 (2017) 119000 70600 71600 103000 174000 179000
2020-07-19 16:45 13.10 93600 182000 (2019) 70000 (2017) 119000 70600 71600 103000 174000 179000
2020-07-19 15:45 13.16 94000 182000 (2019) 70000 (2017) 119000 70600 71600 103000 174000 179000
2020-07-19 14:45 13.29 95200 182000 (2019) 70000 (2017) 119000 70600 71600 103000 174000 179000
2020-07-19 13:45 13.37 95900 182000 (2019) 70000 (2017) 119000 70600 71600 103000 174000 179000
2020-07-19 12:45 13.49 96900 182000 (2019) 70000 (2017) 119000 70600 71600 103000 174000 179000
2020-07-19 11:45 13.55 97500 182000 (2019) 70000 (2017) 119000 70600 71600 103000 174000 179000
2020-07-19 10:45 13.64 98200 182000 (2019) 70000 (2017) 119000 70600 71600 103000 174000 179000
2020-07-19 09:45 13.72 98900 182000 (2019) 70000 (2017) 119000 70600 71600 103000 174000 179000
2020-07-19 08:45 13.84 100000 182000 (2019) 70000 (2017) 119000 70600 71600 103000 174000 179000
2020-07-19 07:45 13.92 101000 182000 (2019) 70000 (2017) 119000 70600 71600 103000 174000 179000
2020-07-19 06:45 13.99 101000 182000 (2019) 70000 (2017) 119000 70600 71600 103000 174000 179000
2020-07-19 05:45 14.07 102000 182000 (2019) 70000 (2017) 119000 70600 71600 103000 174000 179000
2020-07-19 04:45 14.17 103000 182000 (2019) 70000 (2017) 119000 70600 71600 103000 174000 179000
2020-07-19 03:45 14.27 104000 182000 (2019) 70000 (2017) 119000 70600 71600 103000 174000 179000
2020-07-19 02:45 14.34 105000 182000 (2019) 70000 (2017) 119000 70600 71600 103000 174000 179000
2020-07-19 01:45 14.45 106000 182000 (2019) 70000 (2017) 119000 70600 71600 103000 174000 179000
2020-07-19 00:45 14.46 106000 182000 (2019) 70000 (2017) 119000 70600 71600 103000 174000 179000
2020-07-18 23:45 14.59 107000 183000 (2019) 78000 (2016) 111000 78100 78300 100000 150000 170000
2020-07-18 22:45 14.68 108000 183000 (2019) 78000 (2016) 111000 78100 78300 100000 150000 170000
2020-07-18 21:45 14.71 108000 183000 (2019) 78000 (2016) 111000 78100 78300 100000 150000 170000
2020-07-18 20:45 14.77 109000 183000 (2019) 78000 (2016) 111000 78100 78300 100000 150000 170000
2020-07-18 19:45 14.86 110000 183000 (2019) 78000 (2016) 111000 78100 78300 100000 150000 170000
2020-07-18 18:45 14.90 110000 183000 (2019) 78000 (2016) 111000 78100 78300 100000 150000 170000
2020-07-18 17:45 14.95 110000 183000 (2019) 78000 (2016) 111000 78100 78300 100000 150000 170000
2020-07-18 16:45 15.00 111000 183000 (2019) 78000 (2016) 111000 78100 78300 100000 150000 170000
2020-07-18 15:45 15.04 111000 183000 (2019) 78000 (2016) 111000 78100 78300 100000 150000 170000
2020-07-18 14:45 15.03 111000 183000 (2019) 78000 (2016) 111000 78100 78300 100000 150000 170000
2020-07-18 13:45 15.03 111000 183000 (2019) 78000 (2016) 111000 78100 78300 100000 150000 170000
2020-07-18 12:45 15.06 112000 183000 (2019) 78000 (2016) 111000 78100 78300 100000 150000 170000
2020-07-18 11:45 15.15 112000 183000 (2019) 78000 (2016) 111000 78100 78300 100000 150000 170000
2020-07-18 10:45 15.11 112000 183000 (2019) 78000 (2016) 111000 78100 78300 100000 150000 170000
2020-07-18 09:45 15.15 112000 183000 (2019) 78000 (2016) 111000 78100 78300 100000 150000 170000
2020-07-18 08:45 15.12 112000 183000 (2019) 78000 (2016) 111000 78100 78300 100000 150000 170000
2020-07-18 07:45 15.13 112000 183000 (2019) 78000 (2016) 111000 78100 78300 100000 150000 170000
2020-07-18 06:45 15.12 112000 183000 (2019) 78000 (2016) 111000 78100 78300 100000 150000 170000
2020-07-18 05:45 15.12 112000 183000 (2019) 78000 (2016) 111000 78100 78300 100000 150000 170000
2020-07-18 04:45 15.13 112000 183000 (2019) 78000 (2016) 111000 78100 78300 100000 150000 170000
2020-07-18 03:45 15.08 112000 183000 (2019) 78000 (2016) 111000 78100 78300 100000 150000 170000
2020-07-18 02:45 15.03 111000 183000 (2019) 78000 (2016) 111000 78100 78300 100000 150000 170000
2020-07-18 01:45 15.03 111000 183000 (2019) 78000 (2016) 111000 78100 78300 100000 150000 170000
2020-07-18 00:45 14.98 111000 183000 (2019) 78000 (2016) 111000 78100 78300 100000 150000 170000
2020-07-17 23:45 14.91 110000 186000 (2019) 88500 (2016) 114000 88900 89600 102000 145000 170000
2020-07-17 22:45 14.87 110000 186000 (2019) 88500 (2016) 114000 88900 89600 102000 145000 170000
2020-07-17 21:45 14.83 109000 186000 (2019) 88500 (2016) 114000 88900 89600 102000 145000 170000
2020-07-17 20:45 14.75 108000 186000 (2019) 88500 (2016) 114000 88900 89600 102000 145000 170000
2020-07-17 19:45 14.69 108000 186000 (2019) 88500 (2016) 114000 88900 89600 102000 145000 170000
2020-07-17 18:45 14.58 107000 186000 (2019) 88500 (2016) 114000 88900 89600 102000 145000 170000
2020-07-17 17:45 14.48 106000 186000 (2019) 88500 (2016) 114000 88900 89600 102000 145000 170000
2020-07-17 16:45 14.41 105000 186000 (2019) 88500 (2016) 114000 88900 89600 102000 145000 170000
2020-07-17 15:45 14.29 104000 186000 (2019) 88500 (2016) 114000 88900 89600 102000 145000 170000
2020-07-17 14:45 14.24 104000 186000 (2019) 88500 (2016) 114000 88900 89600 102000 145000 170000
2020-07-17 13:45 14.14 103000 186000 (2019) 88500 (2016) 114000 88900 89600 102000 145000 170000
2020-07-17 12:45 14.04 102000 186000 (2019) 88500 (2016) 114000 88900 89600 102000 145000 170000
2020-07-17 11:45 13.93 101000 186000 (2019) 88500 (2016) 114000 88900 89600 102000 145000 170000
2020-07-17 10:45 13.83 100000 186000 (2019) 88500 (2016) 114000 88900 89600 102000 145000 170000
2020-07-17 09:45 13.68 98600 186000 (2019) 88500 (2016) 114000 88900 89600 102000 145000 170000
2020-07-17 08:45 13.61 98000 186000 (2019) 88500 (2016) 114000 88900 89600 102000 145000 170000
2020-07-17 07:45 13.46 96600 186000 (2019) 88500 (2016) 114000 88900 89600 102000 145000 170000
2020-07-17 06:45 13.34 95600 186000 (2019) 88500 (2016) 114000 88900 89600 102000 145000 170000
2020-07-17 05:45 13.22 94600 186000 (2019) 88500 (2016) 114000 88900 89600 102000 145000 170000
2020-07-17 04:45 13.14 93800 186000 (2019) 88500 (2016) 114000 88900 89600 102000 145000 170000
2020-07-17 03:45 13.01 92800 186000 (2019) 88500 (2016) 114000 88900 89600 102000 145000 170000
2020-07-17 02:45 12.86 91500 186000 (2019) 88500 (2016) 114000 88900 89600 102000 145000 170000
2020-07-17 01:45 12.74 90500 186000 (2019) 88500 (2016) 114000 88900 89600 102000 145000 170000
2020-07-17 00:45 12.64 89700 186000 (2019) 88500 (2016) 114000 88900 89600 102000 145000 170000
2020-07-16 23:45 12.50 88500 190000 (2019) 99800 (2017) 123000 101000 102000 106000 152000 175000
2020-07-16 22:45 12.37 87500 190000 (2019) 99800 (2017) 123000 101000 102000 106000 152000 175000
2020-07-16 21:45 12.29 86800 190000 (2019) 99800 (2017) 123000 101000 102000 106000 152000 175000
2020-07-16 20:45 12.19 86000 190000 (2019) 99800 (2017) 123000 101000 102000 106000 152000 175000
2020-07-16 19:45 12.08 85200 190000 (2019) 99800 (2017) 123000 101000 102000 106000 152000 175000
2020-07-16 18:45 11.98 84400 190000 (2019) 99800 (2017) 123000 101000 102000 106000 152000 175000
2020-07-16 17:45 11.94 84100 190000 (2019) 99800 (2017) 123000 101000 102000 106000 152000 175000
2020-07-16 16:45 11.83 83200 190000 (2019) 99800 (2017) 123000 101000 102000 106000 152000 175000
2020-07-16 15:45 11.73 82400 190000 (2019) 99800 (2017) 123000 101000 102000 106000 152000 175000
2020-07-16 14:45 11.67 82000 190000 (2019) 99800 (2017) 123000 101000 102000 106000 152000 175000
2020-07-16 13:45 11.63 81700 190000 (2019) 99800 (2017) 123000 101000 102000 106000 152000 175000
2020-07-16 12:45 11.58 81300 190000 (2019) 99800 (2017) 123000 101000 102000 106000 152000 175000
2020-07-16 11:45 11.54 81000 190000 (2019) 99800 (2017) 123000 101000 102000 106000 152000 175000
2020-07-16 10:45 11.51 80800 190000 (2019) 99800 (2017) 123000 101000 102000 106000 152000 175000
2020-07-16 09:45 11.47 80400 190000 (2019) 99800 (2017) 123000 101000 102000 106000 152000 175000
2020-07-16 08:45 11.39 79800 190000 (2019) 99800 (2017) 123000 101000 102000 106000 152000 175000
2020-07-16 07:45 11.43 80100 190000 (2019) 99800 (2017) 123000 101000 102000 106000 152000 175000
2020-07-16 06:45 11.37 79700 190000 (2019) 99800 (2017) 123000 101000 102000 106000 152000 175000
2020-07-16 05:45 11.33 79400 190000 (2019) 99800 (2017) 123000 101000 102000 106000 152000 175000
2020-07-16 04:45 11.29 79100 190000 (2019) 99800 (2017) 123000 101000 102000 106000 152000 175000
2020-07-16 03:45 11.23 78700 190000 (2019) 99800 (2017) 123000 101000 102000 106000 152000 175000
2020-07-16 02:45 11.18 78300 190000 (2019) 99800 (2017) 123000 101000 102000 106000 152000 175000
2020-07-16 01:45 11.14 78000 190000 (2019) 99800 (2017) 123000 101000 102000 106000 152000 175000
2020-07-16 00:45 11.08 77500 190000 (2019) 99800 (2017) 123000 101000 102000 106000 152000 175000
2020-07-15 23:45 11.06 77400 195000 (2019) 94800 (2017) 128000 97000 100000 121000 160000 181000
2020-07-15 22:45 11.01 77000 195000 (2019) 94800 (2017) 128000 97000 100000 121000 160000 181000
2020-07-15 21:45 10.98 76800 195000 (2019) 94800 (2017) 128000 97000 100000 121000 160000 181000
2020-07-15 20:45 10.95 76600 195000 (2019) 94800 (2017) 128000 97000 100000 121000 160000 181000
2020-07-15 19:45 10.93 76400 195000 (2019) 94800 (2017) 128000 97000 100000 121000 160000 181000
2020-07-15 18:45 10.90 76200 195000 (2019) 94800 (2017) 128000 97000 100000 121000 160000 181000
2020-07-15 17:45 10.86 75900 195000 (2019) 94800 (2017) 128000 97000 100000 121000 160000 181000
2020-07-15 16:45 10.84 75800 195000 (2019) 94800 (2017) 128000 97000 100000 121000 160000 181000
2020-07-15 15:45 10.84 75800 195000 (2019) 94800 (2017) 128000 97000 100000 121000 160000 181000
2020-07-15 14:45 10.84 75800 195000 (2019) 94800 (2017) 128000 97000 100000 121000 160000 181000
2020-07-15 13:45 10.81 75600 195000 (2019) 94800 (2017) 128000 97000 100000 121000 160000 181000
2020-07-15 12:45 10.78 75400 195000 (2019) 94800 (2017) 128000 97000 100000 121000 160000 181000
2020-07-15 11:45 10.80 75500 195000 (2019) 94800 (2017) 128000 97000 100000 121000 160000 181000
2020-07-15 10:45 10.77 75300 195000 (2019) 94800 (2017) 128000 97000 100000 121000 160000 181000
2020-07-15 09:45 10.79 75400 195000 (2019) 94800 (2017) 128000 97000 100000 121000 160000 181000
2020-07-15 08:45 10.75 75200 195000 (2019) 94800 (2017) 128000 97000 100000 121000 160000 181000
2020-07-15 07:45 10.74 75100 195000 (2019) 94800 (2017) 128000 97000 100000 121000 160000 181000
2020-07-15 06:45 10.76 75200 195000 (2019) 94800 (2017) 128000 97000 100000 121000 160000 181000
2020-07-15 05:45 10.75 75200 195000 (2019) 94800 (2017) 128000 97000 100000 121000 160000 181000
2020-07-15 04:45 10.77 75300 195000 (2019) 94800 (2017) 128000 97000 100000 121000 160000 181000
2020-07-15 03:45 10.77 75300 195000 (2019) 94800 (2017) 128000 97000 100000 121000 160000 181000
2020-07-15 02:45 10.76 75200 195000 (2019) 94800 (2017) 128000 97000 100000 121000 160000 181000
2020-07-15 01:45 10.76 75200 195000 (2019) 94800 (2017) 128000 97000 100000 121000 160000 181000
2020-07-15 00:45 10.76 75200 195000 (2019) 94800 (2017) 128000 97000 100000 121000 160000 181000
2020-07-14 23:45 10.74 75100 200000 (2019) 74300 (2017) 128000 80800 90600 119000 171000 188000
2020-07-14 22:45 10.74 75100 200000 (2019) 74300 (2017) 128000 80800 90600 119000 171000 188000
2020-07-14 21:45 10.73 75000 200000 (2019) 74300 (2017) 128000 80800 90600 119000 171000 188000
2020-07-14 20:45 10.74 75100 200000 (2019) 74300 (2017) 128000 80800 90600 119000 171000 188000
2020-07-14 19:45 10.74 75100 200000 (2019) 74300 (2017) 128000 80800 90600 119000 171000 188000
2020-07-14 18:45 10.72 74900 200000 (2019) 74300 (2017) 128000 80800 90600 119000 171000 188000
2020-07-14 17:45 10.74 75100 200000 (2019) 74300 (2017) 128000 80800 90600 119000 171000 188000
2020-07-14 16:45 10.70 74800 200000 (2019) 74300 (2017) 128000 80800 90600 119000 171000 188000
2020-07-14 15:45 10.71 74900 200000 (2019) 74300 (2017) 128000 80800 90600 119000 171000 188000
2020-07-14 14:45 10.69 74700 200000 (2019) 74300 (2017) 128000 80800 90600 119000 171000 188000
2020-07-14 13:45 10.71 74900 200000 (2019) 74300 (2017) 128000 80800 90600 119000 171000 188000
2020-07-14 12:45 10.71 74900 200000 (2019) 74300 (2017) 128000 80800 90600 119000 171000 188000
2020-07-14 11:45 10.75 75200 200000 (2019) 74300 (2017) 128000 80800 90600 119000 171000 188000
2020-07-14 10:45 10.70 74800 200000 (2019) 74300 (2017) 128000 80800 90600 119000 171000 188000
2020-07-14 09:45 10.77 75300 200000 (2019) 74300 (2017) 128000 80800 90600 119000 171000 188000
2020-07-14 08:45 10.76 75200 200000 (2019) 74300 (2017) 128000 80800 90600 119000 171000 188000
2020-07-14 07:45 10.77 75300 200000 (2019) 74300 (2017) 128000 80800 90600 119000 171000 188000
2020-07-14 06:45 10.83 75700 200000 (2019) 74300 (2017) 128000 80800 90600 119000 171000 188000
2020-07-14 05:45 10.86 75900 200000 (2019) 74300 (2017) 128000 80800 90600 119000 171000 188000
2020-07-14 04:45 10.87 76000 200000 (2019) 74300 (2017) 128000 80800 90600 119000 171000 188000
2020-07-14 03:45 10.89 76200 200000 (2019) 74300 (2017) 128000 80800 90600 119000 171000 188000
2020-07-14 02:45 10.89 76200 200000 (2019) 74300 (2017) 128000 80800 90600 119000 171000 188000
2020-07-14 01:45 10.92 76400 200000 (2019) 74300 (2017) 128000 80800 90600 119000 171000 188000
2020-07-14 00:45 10.93 76400 200000 (2019) 74300 (2017) 128000 80800 90600 119000 171000 188000
2020-07-13 23:45 10.94 76500 205000 (2019) 71000 (2017) 123000 73400 76900 107000 177000 194000
2020-07-13 22:45 10.97 76700 205000 (2019) 71000 (2017) 123000 73400 76900 107000 177000 194000
2020-07-13 21:45 10.98 76800 205000 (2019) 71000 (2017) 123000 73400 76900 107000 177000 194000
2020-07-13 20:45 11.02 77100 205000 (2019) 71000 (2017) 123000 73400 76900 107000 177000 194000
2020-07-13 19:45 11.02 77100 205000 (2019) 71000 (2017) 123000 73400 76900 107000 177000 194000
2020-07-13 18:45 11.03 77200 205000 (2019) 71000 (2017) 123000 73400 76900 107000 177000 194000
2020-07-13 17:45 11.03 77200 205000 (2019) 71000 (2017) 123000 73400 76900 107000 177000 194000
2020-07-13 16:45 11.06 77400 205000 (2019) 71000 (2017) 123000 73400 76900 107000 177000 194000
2020-07-13 15:45 11.05 77300 205000 (2019) 71000 (2017) 123000 73400 76900 107000 177000 194000
2020-07-13 14:45 11.04 77300 205000 (2019) 71000 (2017) 123000 73400 76900 107000 177000 194000
2020-07-13 13:45 11.10 77700 205000 (2019) 71000 (2017) 123000 73400 76900 107000 177000 194000
2020-07-13 12:45 11.10 77700 205000 (2019) 71000 (2017) 123000 73400 76900 107000 177000 194000
2020-07-13 11:45 11.12 77800 205000 (2019) 71000 (2017) 123000 73400 76900 107000 177000 194000
2020-07-13 10:45 11.09 77600 205000 (2019) 71000 (2017) 123000 73400 76900 107000 177000 194000
2020-07-13 09:45 11.10 77700 205000 (2019) 71000 (2017) 123000 73400 76900 107000 177000 194000
2020-07-13 08:45 11.16 78100 205000 (2019) 71000 (2017) 123000 73400 76900 107000 177000 194000
2020-07-13 07:45 11.17 78200 205000 (2019) 71000 (2017) 123000 73400 76900 107000 177000 194000
2020-07-13 06:45 11.19 78400 205000 (2019) 71000 (2017) 123000 73400 76900 107000 177000 194000
2020-07-13 05:45 11.21 78500 205000 (2019) 71000 (2017) 123000 73400 76900 107000 177000 194000
2020-07-13 04:45 11.23 78700 205000 (2019) 71000 (2017) 123000 73400 76900 107000 177000 194000
2020-07-13 03:45 11.20 78400 205000 (2019) 71000 (2017) 123000 73400 76900 107000 177000 194000
2020-07-13 02:45 11.20 78400 205000 (2019) 71000 (2017) 123000 73400 76900 107000 177000 194000
2020-07-13 01:45 11.22 78600 205000 (2019) 71000 (2017) 123000 73400 76900 107000 177000 194000
2020-07-13 00:45 11.25 78800 205000 (2019) 71000 (2017) 123000 73400 76900 107000 177000 194000
2020-07-12 23:45 11.24 78700 213000 (2019) 73900 (2017) 125000 76600 80600 110000 176000 198000
2020-07-12 22:45 11.25 78800 213000 (2019) 73900 (2017) 125000 76600 80600 110000 176000 198000
2020-07-12 21:45 11.26 78900 213000 (2019) 73900 (2017) 125000 76600 80600 110000 176000 198000
2020-07-12 20:45 11.28 79000 213000 (2019) 73900 (2017) 125000 76600 80600 110000 176000 198000
2020-07-12 19:45 11.30 79200 213000 (2019) 73900 (2017) 125000 76600 80600 110000 176000 198000
2020-07-12 18:45 11.31 79200 213000 (2019) 73900 (2017) 125000 76600 80600 110000 176000 198000
2020-07-12 17:45 11.29 79100 213000 (2019) 73900 (2017) 125000 76600 80600 110000 176000 198000
2020-07-12 16:45 11.30 79200 213000 (2019) 73900 (2017) 125000 76600 80600 110000 176000 198000
2020-07-12 15:45 11.33 79400 213000 (2019) 73900 (2017) 125000 76600 80600 110000 176000 198000
2020-07-12 14:45 11.33 79400 213000 (2019) 73900 (2017) 125000 76600 80600 110000 176000 198000
2020-07-12 13:45 11.33 79400 213000 (2019) 73900 (2017) 125000 76600 80600 110000 176000 198000
2020-07-12 12:45 11.32 79300 213000 (2019) 73900 (2017) 125000 76600 80600 110000 176000 198000
2020-07-12 11:45 11.35 79500 213000 (2019) 73900 (2017) 125000 76600 80600 110000 176000 198000
2020-07-12 10:45 11.33 79400 213000 (2019) 73900 (2017) 125000 76600 80600 110000 176000 198000
2020-07-12 09:45 11.33 79400 213000 (2019) 73900 (2017) 125000 76600 80600 110000 176000 198000
2020-07-12 08:45 11.32 79300 213000 (2019) 73900 (2017) 125000 76600 80600 110000 176000 198000
2020-07-12 07:45 11.39 79800 213000 (2019) 73900 (2017) 125000 76600 80600 110000 176000 198000
2020-07-12 06:45 11.39 79800 213000 (2019) 73900 (2017) 125000 76600 80600 110000 176000 198000
2020-07-12 05:45 11.40 79900 213000 (2019) 73900 (2017) 125000 76600 80600 110000 176000 198000
2020-07-12 04:45 11.42 80100 213000 (2019) 73900 (2017) 125000 76600 80600 110000 176000 198000
2020-07-12 03:45 11.41 80000 213000 (2019) 73900 (2017) 125000 76600 80600 110000 176000 198000
2020-07-12 02:45 11.42 80100 213000 (2019) 73900 (2017) 125000 76600 80600 110000 176000 198000
2020-07-12 01:45 11.46 80400 213000 (2019) 73900 (2017) 125000 76600 80600 110000 176000 198000
2020-07-12 00:45 11.48 80500 213000 (2019) 73900 (2017) 125000 76600 80600 110000 176000 198000
2020-07-11 23:45 11.46 80400 221000 (2019) 76500 (2017) 134000 79100 83100 113000 197000 211000
2020-07-11 22:45 11.50 80700 221000 (2019) 76500 (2017) 134000 79100 83100 113000 197000 211000
2020-07-11 21:45 11.50 80700 221000 (2019) 76500 (2017) 134000 79100 83100 113000 197000 211000
2020-07-11 20:45 11.53 80900 221000 (2019) 76500 (2017) 134000 79100 83100 113000 197000 211000
2020-07-11 19:45 11.53 80900 221000 (2019) 76500 (2017) 134000 79100 83100 113000 197000 211000
2020-07-11 18:45 11.51 80800 221000 (2019) 76500 (2017) 134000 79100 83100 113000 197000 211000
2020-07-11 17:45 11.51 80800 221000 (2019) 76500 (2017) 134000 79100 83100 113000 197000 211000
2020-07-11 16:45 11.55 81100 221000 (2019) 76500 (2017) 134000 79100 83100 113000 197000 211000
2020-07-11 15:45 11.56 81100 221000 (2019) 76500 (2017) 134000 79100 83100 113000 197000 211000
2020-07-11 14:45 11.58 81300 221000 (2019) 76500 (2017) 134000 79100 83100 113000 197000 211000
2020-07-11 13:45 11.59 81400 221000 (2019) 76500 (2017) 134000 79100 83100 113000 197000 211000
2020-07-11 12:45 11.57 81200 221000 (2019) 76500 (2017) 134000 79100 83100 113000 197000 211000
2020-07-11 11:45 11.63 81700 221000 (2019) 76500 (2017) 134000 79100 83100 113000 197000 211000
2020-07-11 10:45 11.64 81700 221000 (2019) 76500 (2017) 134000 79100 83100 113000 197000 211000
2020-07-11 09:45 11.65 81800 221000 (2019) 76500 (2017) 134000 79100 83100 113000 197000 211000
2020-07-11 08:45 11.68 82000 221000 (2019) 76500 (2017) 134000 79100 83100 113000 197000 211000
2020-07-11 07:45 11.69 82100 221000 (2019) 76500 (2017) 134000 79100 83100 113000 197000 211000
2020-07-11 06:45 11.73 82400 221000 (2019) 76500 (2017) 134000 79100 83100 113000 197000 211000
2020-07-11 05:45 11.75 82600 221000 (2019) 76500 (2017) 134000 79100 83100 113000 197000 211000
2020-07-11 04:45 11.76 82700 221000 (2019) 76500 (2017) 134000 79100 83100 113000 197000 211000
2020-07-11 03:45 11.77 82700 221000 (2019) 76500 (2017) 134000 79100 83100 113000 197000 211000
2020-07-11 02:45 11.78 82800 221000 (2019) 76500 (2017) 134000 79100 83100 113000 197000 211000
2020-07-11 01:45 11.79 82900 221000 (2019) 76500 (2017) 134000 79100 83100 113000 197000 211000
2020-07-11 00:45 11.79 82900 221000 (2019) 76500 (2017) 134000 79100 83100 113000 197000 211000
2020-07-10 23:45 11.69 82100 231000 (2015) 79500 (2017) 149000 82000 85800 118000 229000 230000
2020-07-10 22:45 11.83 83200 231000 (2015) 79500 (2017) 149000 82000 85800 118000 229000 230000
2020-07-10 21:45 11.82 83100 231000 (2015) 79500 (2017) 149000 82000 85800 118000 229000 230000
2020-07-10 20:45 11.86 83400 231000 (2015) 79500 (2017) 149000 82000 85800 118000 229000 230000
2020-07-10 19:45 11.87 83500 231000 (2015) 79500 (2017) 149000 82000 85800 118000 229000 230000
2020-07-10 18:45 11.84 83300 231000 (2015) 79500 (2017) 149000 82000 85800 118000 229000 230000
2020-07-10 17:45 11.88 83600 231000 (2015) 79500 (2017) 149000 82000 85800 118000 229000 230000
2020-07-10 16:45 11.85 83400 231000 (2015) 79500 (2017) 149000 82000 85800 118000 229000 230000
2020-07-10 15:45 11.90 83800 231000 (2015) 79500 (2017) 149000 82000 85800 118000 229000 230000
2020-07-10 14:45 11.90 83800 231000 (2015) 79500 (2017) 149000 82000 85800 118000 229000 230000
2020-07-10 13:45 11.93 84000 231000 (2015) 79500 (2017) 149000 82000 85800 118000 229000 230000
2020-07-10 12:45 11.90 83800 231000 (2015) 79500 (2017) 149000 82000 85800 118000 229000 230000
2020-07-10 11:45 11.89 83700 231000 (2015) 79500 (2017) 149000 82000 85800 118000 229000 230000
2020-07-10 10:45 11.94 84100 231000 (2015) 79500 (2017) 149000 82000 85800 118000 229000 230000
2020-07-10 09:45 11.94 84100 231000 (2015) 79500 (2017) 149000 82000 85800 118000 229000 230000
2020-07-10 08:45 11.98 84400 231000 (2015) 79500 (2017) 149000 82000 85800 118000 229000 230000
2020-07-10 07:45 11.98 84400 231000 (2015) 79500 (2017) 149000 82000 85800 118000 229000 230000
2020-07-10 06:45 11.94 84100 231000 (2015) 79500 (2017) 149000 82000 85800 118000 229000 230000
2020-07-10 05:45 12.00 84500 231000 (2015) 79500 (2017) 149000 82000 85800 118000 229000 230000
2020-07-10 04:45 12.02 84700 231000 (2015) 79500 (2017) 149000 82000 85800 118000 229000 230000
2020-07-10 03:45 12.01 84600 231000 (2015) 79500 (2017) 149000 82000 85800 118000 229000 230000
2020-07-10 02:45 12.02 84700 231000 (2015) 79500 (2017) 149000 82000 85800 118000 229000 230000
2020-07-10 01:45 12.04 84900 231000 (2015) 79500 (2017) 149000 82000 85800 118000 229000 230000
2020-07-10 00:45 12.04 84900 231000 (2015) 79500 (2017) 149000 82000 85800 118000 229000 230000
2020-07-09 23:45 12.03 84800 244000 (2015) 85900 (2017) 158000 90300 97000 123000 237000 241000
2020-07-09 22:45 12.06 85000 244000 (2015) 85900 (2017) 158000 90300 97000 123000 237000 241000
2020-07-09 21:45 12.08 85200 244000 (2015) 85900 (2017) 158000 90300 97000 123000 237000 241000
2020-07-09 20:45 12.07 85100 244000 (2015) 85900 (2017) 158000 90300 97000 123000 237000 241000
2020-07-09 19:45 12.03 84800 244000 (2015) 85900 (2017) 158000 90300 97000 123000 237000 241000
2020-07-09 18:45 12.06 85000 244000 (2015) 85900 (2017) 158000 90300 97000 123000 237000 241000
2020-07-09 17:45 12.06 85000 244000 (2015) 85900 (2017) 158000 90300 97000 123000 237000 241000
2020-07-09 16:45 12.09 85200 244000 (2015) 85900 (2017) 158000 90300 97000 123000 237000 241000
2020-07-09 15:45 12.08 85200 244000 (2015) 85900 (2017) 158000 90300 97000 123000 237000 241000
2020-07-09 14:45 12.11 85400 244000 (2015) 85900 (2017) 158000 90300 97000 123000 237000 241000
2020-07-09 13:45 12.06 85000 244000 (2015) 85900 (2017) 158000 90300 97000 123000 237000 241000
2020-07-09 12:45 12.13 85600 244000 (2015) 85900 (2017) 158000 90300 97000 123000 237000 241000
2020-07-09 11:45 12.15 85700 244000 (2015) 85900 (2017) 158000 90300 97000 123000 237000 241000
2020-07-09 10:45 12.14 85600 244000 (2015) 85900 (2017) 158000 90300 97000 123000 237000 241000
2020-07-09 09:45 12.12 85500 244000 (2015) 85900 (2017) 158000 90300 97000 123000 237000 241000
2020-07-09 08:45 12.17 85900 244000 (2015) 85900 (2017) 158000 90300 97000 123000 237000 241000
2020-07-09 07:45 12.19 86000 244000 (2015) 85900 (2017) 158000 90300 97000 123000 237000 241000
2020-07-09 06:45 12.20 86100 244000 (2015) 85900 (2017) 158000 90300 97000 123000 237000 241000
2020-07-09 05:45 12.27 86700 244000 (2015) 85900 (2017) 158000 90300 97000 123000 237000 241000
2020-07-09 04:45 12.28 86800 244000 (2015) 85900 (2017) 158000 90300 97000 123000 237000 241000
2020-07-09 03:45 12.26 86600 244000 (2015) 85900 (2017) 158000 90300 97000 123000 237000 241000
2020-07-09 02:45 12.29 86800 244000 (2015) 85900 (2017) 158000 90300 97000 123000 237000 241000
2020-07-09 01:45 12.34 87200 244000 (2015) 85900 (2017) 158000 90300 97000 123000 237000 241000
2020-07-09 00:45 12.33 87200 244000 (2015) 85900 (2017) 158000 90300 97000 123000 237000 241000
2020-07-08 23:45 12.36 87400 236000 (2019) 94600 (2017) 147000 99900 108000 129000 196000 220000
2020-07-08 22:45 12.41 87800 236000 (2019) 94600 (2017) 147000 99900 108000 129000 196000 220000
2020-07-08 21:45 12.42 87900 236000 (2019) 94600 (2017) 147000 99900 108000 129000 196000 220000
2020-07-08 20:45 12.46 88200 236000 (2019) 94600 (2017) 147000 99900 108000 129000 196000 220000
2020-07-08 19:45 12.48 88400 236000 (2019) 94600 (2017) 147000 99900 108000 129000 196000 220000
2020-07-08 18:45 12.48 88400 236000 (2019) 94600 (2017) 147000 99900 108000 129000 196000 220000
2020-07-08 17:45 12.52 88700 236000 (2019) 94600 (2017) 147000 99900 108000 129000 196000 220000
2020-07-08 16:45 12.54 88900 236000 (2019) 94600 (2017) 147000 99900 108000 129000 196000 220000
2020-07-08 15:45 12.52 88700 236000 (2019) 94600 (2017) 147000 99900 108000 129000 196000 220000
2020-07-08 14:45 12.58 89200 236000 (2019) 94600 (2017) 147000 99900 108000 129000 196000 220000
2020-07-08 13:45 12.60 89400 236000 (2019) 94600 (2017) 147000 99900 108000 129000 196000 220000
2020-07-08 12:45 12.62 89500 236000 (2019) 94600 (2017) 147000 99900 108000 129000 196000 220000
2020-07-08 11:45 12.64 89700 236000 (2019) 94600 (2017) 147000 99900 108000 129000 196000 220000
2020-07-08 10:45 12.62 89500 236000 (2019) 94600 (2017) 147000 99900 108000 129000 196000 220000
2020-07-08 09:45 12.68 90000 236000 (2019) 94600 (2017) 147000 99900 108000 129000 196000 220000
2020-07-08 08:45 12.66 89900 236000 (2019) 94600 (2017) 147000 99900 108000 129000 196000 220000
2020-07-08 07:45 12.74 90500 236000 (2019) 94600 (2017) 147000 99900 108000 129000 196000 220000
2020-07-08 06:45 12.76 90700 236000 (2019) 94600 (2017) 147000 99900 108000 129000 196000 220000
2020-07-08 05:45 12.81 91100 236000 (2019) 94600 (2017) 147000 99900 108000 129000 196000 220000
2020-07-08 04:45 12.83 91300 236000 (2019) 94600 (2017) 147000 99900 108000 129000 196000 220000
2020-07-08 03:45 12.86 91500 236000 (2019) 94600 (2017) 147000 99900 108000 129000 196000 220000
2020-07-08 02:45 12.86 91500 236000 (2019) 94600 (2017) 147000 99900 108000 129000 196000 220000
2020-07-08 01:45 12.89 91800 236000 (2019) 94600 (2017) 147000 99900 108000 129000 196000 220000
2020-07-08 00:45 12.91 91900 236000 (2019) 94600 (2017) 147000 99900 108000 129000 196000 220000
2020-07-07 23:45 12.94 92200 245000 (2019) 106000 (2017) 144000 107000 108000 126000 189000 223000
2020-07-07 22:45 12.94 92200 245000 (2019) 106000 (2017) 144000 107000 108000 126000 189000 223000
2020-07-07 21:45 12.97 92400 245000 (2019) 106000 (2017) 144000 107000 108000 126000 189000 223000
2020-07-07 20:45 12.98 92500 245000 (2019) 106000 (2017) 144000 107000 108000 126000 189000 223000
2020-07-07 19:45 13.01 92800 245000 (2019) 106000 (2017) 144000 107000 108000 126000 189000 223000
2020-07-07 18:45 13.02 92900 245000 (2019) 106000 (2017) 144000 107000 108000 126000 189000 223000
2020-07-07 17:45 13.04 93000 245000 (2019) 106000 (2017) 144000 107000 108000 126000 189000 223000
2020-07-07 16:45 13.07 93300 245000 (2019) 106000 (2017) 144000 107000 108000 126000 189000 223000
2020-07-07 15:45 13.07 93300 245000 (2019) 106000 (2017) 144000 107000 108000 126000 189000 223000
2020-07-07 14:45 13.04 93000 245000 (2019) 106000 (2017) 144000 107000 108000 126000 189000 223000
2020-07-07 13:45 13.02 92900 245000 (2019) 106000 (2017) 144000 107000 108000 126000 189000 223000
2020-07-07 12:45 13.07 93300 245000 (2019) 106000 (2017) 144000 107000 108000 126000 189000 223000
2020-07-07 11:45 13.08 93400 245000 (2019) 106000 (2017) 144000 107000 108000 126000 189000 223000
2020-07-07 10:45 13.11 93700 245000 (2019) 106000 (2017) 144000 107000 108000 126000 189000 223000
2020-07-07 09:45 13.10 93600 245000 (2019) 106000 (2017) 144000 107000 108000 126000 189000 223000
2020-07-07 08:45 13.11 93700 245000 (2019) 106000 (2017) 144000 107000 108000 126000 189000 223000
2020-07-07 07:45 13.20 94400 245000 (2019) 106000 (2017) 144000 107000 108000 126000 189000 223000
2020-07-07 06:45 13.21 94500 245000 (2019) 106000 (2017) 144000 107000 108000 126000 189000 223000
2020-07-07 05:45 13.24 94700 245000 (2019) 106000 (2017) 144000 107000 108000 126000 189000 223000
2020-07-07 04:45 13.30 95300 245000 (2019) 106000 (2017) 144000 107000 108000 126000 189000 223000
2020-07-07 03:45 13.33 95600 245000 (2019) 106000 (2017) 144000 107000 108000 126000 189000 223000
2020-07-07 02:45 13.34 95600 245000 (2019) 106000 (2017) 144000 107000 108000 126000 189000 223000
2020-07-07 01:45 13.39 96000 245000 (2019) 106000 (2017) 144000 107000 108000 126000 189000 223000
2020-07-07 00:45 13.42 96300 245000 (2019) 106000 (2017) 144000 107000 108000 126000 189000 223000
2020-07-06 23:45 13.50 97000 250000 (2019) 122000 (2016) 152000 122000 122000 129000 193000 227000
2020-07-06 22:45 13.54 97400 250000 (2019) 122000 (2016) 152000 122000 122000 129000 193000 227000
2020-07-06 21:45 13.50 97000 250000 (2019) 122000 (2016) 152000 122000 122000 129000 193000 227000
2020-07-06 20:45 13.62 98100 250000 (2019) 122000 (2016) 152000 122000 122000 129000 193000 227000
2020-07-06 19:45 13.67 98500 250000 (2019) 122000 (2016) 152000 122000 122000 129000 193000 227000
2020-07-06 18:45 13.72 98900 250000 (2019) 122000 (2016) 152000 122000 122000 129000 193000 227000
2020-07-06 17:45 13.74 99100 250000 (2019) 122000 (2016) 152000 122000 122000 129000 193000 227000
2020-07-06 16:45 13.75 99200 250000 (2019) 122000 (2016) 152000 122000 122000 129000 193000 227000
2020-07-06 15:45 13.76 99300 250000 (2019) 122000 (2016) 152000 122000 122000 129000 193000 227000
2020-07-06 14:45 13.85 100000 250000 (2019) 122000 (2016) 152000 122000 122000 129000 193000 227000
2020-07-06 13:45 13.83 100000 250000 (2019) 122000 (2016) 152000 122000 122000 129000 193000 227000
2020-07-06 12:45 13.92 101000 250000 (2019) 122000 (2016) 152000 122000 122000 129000 193000 227000
2020-07-06 11:45 13.97 101000 250000 (2019) 122000 (2016) 152000 122000 122000 129000 193000 227000
2020-07-06 10:45 13.97 101000 250000 (2019) 122000 (2016) 152000 122000 122000 129000 193000 227000
2020-07-06 09:45 14.02 102000 250000 (2019) 122000 (2016) 152000 122000 122000 129000 193000 227000
2020-07-06 08:45 14.02 102000 250000 (2019) 122000 (2016) 152000 122000 122000 129000 193000 227000
2020-07-06 07:45 14.08 102000 250000 (2019) 122000 (2016) 152000 122000 122000 129000 193000 227000
2020-07-06 06:45 14.09 102000 250000 (2019) 122000 (2016) 152000 122000 122000 129000 193000 227000
2020-07-06 05:45 14.12 103000 250000 (2019) 122000 (2016) 152000 122000 122000 129000 193000 227000
2020-07-06 04:45 14.15 103000 250000 (2019) 122000 (2016) 152000 122000 122000 129000 193000 227000
2020-07-06 03:45 14.16 103000 250000 (2019) 122000 (2016) 152000 122000 122000 129000 193000 227000
2020-07-06 02:45 14.19 103000 250000 (2019) 122000 (2016) 152000 122000 122000 129000 193000 227000
2020-07-06 01:45 14.19 103000 250000 (2019) 122000 (2016) 152000 122000 122000 129000 193000 227000
2020-07-06 00:45 14.20 103000 250000 (2019) 122000 (2016) 152000 122000 122000 129000 193000 227000
2020-07-05 23:45 14.24 104000 260000 (2019) 137000 (2018) 169000 138000 141000 150000 207000 239000
2020-07-05 22:45 14.25 104000 260000 (2019) 137000 (2018) 169000 138000 141000 150000 207000 239000
2020-07-05 21:45 14.29 104000 260000 (2019) 137000 (2018) 169000 138000 141000 150000 207000 239000
2020-07-05 20:45 14.26 104000 260000 (2019) 137000 (2018) 169000 138000 141000 150000 207000 239000
2020-07-05 19:45 14.32 104000 260000 (2019) 137000 (2018) 169000 138000 141000 150000 207000 239000
2020-07-05 18:45 14.34 105000 260000 (2019) 137000 (2018) 169000 138000 141000 150000 207000 239000
2020-07-05 17:45 14.41 105000 260000 (2019) 137000 (2018) 169000 138000 141000 150000 207000 239000
2020-07-05 16:45 14.40 105000 260000 (2019) 137000 (2018) 169000 138000 141000 150000 207000 239000
2020-07-05 15:45 14.41 105000 260000 (2019) 137000 (2018) 169000 138000 141000 150000 207000 239000
2020-07-05 14:45 14.39 105000 260000 (2019) 137000 (2018) 169000 138000 141000 150000 207000 239000
2020-07-05 13:45 14.40 105000 260000 (2019) 137000 (2018) 169000 138000 141000 150000 207000 239000
2020-07-05 12:45 14.43 105000 260000 (2019) 137000 (2018) 169000 138000 141000 150000 207000 239000
2020-07-05 11:45 14.43 105000 260000 (2019) 137000 (2018) 169000 138000 141000 150000 207000 239000
2020-07-05 10:45 14.42 105000 260000 (2019) 137000 (2018) 169000 138000 141000 150000 207000 239000
2020-07-05 09:45 14.47 106000 260000 (2019) 137000 (2018) 169000 138000 141000 150000 207000 239000
2020-07-05 08:45 14.45 106000 260000 (2019) 137000 (2018) 169000 138000 141000 150000 207000 239000
2020-07-05 07:45 14.48 106000 260000 (2019) 137000 (2018) 169000 138000 141000 150000 207000 239000
2020-07-05 06:45 14.52 106000 260000 (2019) 137000 (2018) 169000 138000 141000 150000 207000 239000
2020-07-05 05:45 14.51 106000 260000 (2019) 137000 (2018) 169000 138000 141000 150000 207000 239000
2020-07-05 04:45 14.52 106000 260000 (2019) 137000 (2018) 169000 138000 141000 150000 207000 239000
2020-07-05 03:45 14.54 106000 260000 (2019) 137000 (2018) 169000 138000 141000 150000 207000 239000
2020-07-05 02:45 14.56 107000 260000 (2019) 137000 (2018) 169000 138000 141000 150000 207000 239000
2020-07-05 01:45 14.55 107000 260000 (2019) 137000 (2018) 169000 138000 141000 150000 207000 239000
2020-07-05 00:45 14.53 106000 260000 (2019) 137000 (2018) 169000 138000 141000 150000 207000 239000
2020-07-04 23:45 14.55 107000 273000 (2019) 138000 (2018) 184000 141000 146000 165000 231000 256000
2020-07-04 22:45 14.52 106000 273000 (2019) 138000 (2018) 184000 141000 146000 165000 231000 256000
2020-07-04 21:45 14.50 106000 273000 (2019) 138000 (2018) 184000 141000 146000 165000 231000 256000
2020-07-04 20:45 14.54 106000 273000 (2019) 138000 (2018) 184000 141000 146000 165000 231000 256000
2020-07-04 19:45 14.52 106000 273000 (2019) 138000 (2018) 184000 141000 146000 165000 231000 256000
2020-07-04 18:45 14.55 107000 273000 (2019) 138000 (2018) 184000 141000 146000 165000 231000 256000
2020-07-04 17:45 14.50 106000 273000 (2019) 138000 (2018) 184000 141000 146000 165000 231000 256000
2020-07-04 16:45 14.49 106000 273000 (2019) 138000 (2018) 184000 141000 146000 165000 231000 256000
2020-07-04 15:45 14.49 106000 273000 (2019) 138000 (2018) 184000 141000 146000 165000 231000 256000
2020-07-04 14:45 14.45 106000 273000 (2019) 138000 (2018) 184000 141000 146000 165000 231000 256000
2020-07-04 13:45 14.46 106000 273000 (2019) 138000 (2018) 184000 141000 146000 165000 231000 256000
2020-07-04 12:45 14.47 106000 273000 (2019) 138000 (2018) 184000 141000 146000 165000 231000 256000
2020-07-04 11:45 14.47 106000 273000 (2019) 138000 (2018) 184000 141000 146000 165000 231000 256000
2020-07-04 10:45 14.43 105000 273000 (2019) 138000 (2018) 184000 141000 146000 165000 231000 256000
2020-07-04 09:45 14.43 105000 273000 (2019) 138000 (2018) 184000 141000 146000 165000 231000 256000
2020-07-04 08:45 14.37 105000 273000 (2019) 138000 (2018) 184000 141000 146000 165000 231000 256000
2020-07-04 07:45 14.37 105000 273000 (2019) 138000 (2018) 184000 141000 146000 165000 231000 256000
2020-07-04 06:45 14.40 105000 273000 (2019) 138000 (2018) 184000 141000 146000 165000 231000 256000
2020-07-04 05:45 14.34 105000 273000 (2019) 138000 (2018) 184000 141000 146000 165000 231000 256000
2020-07-04 04:45 14.33 105000 273000 (2019) 138000 (2018) 184000 141000 146000 165000 231000 256000
2020-07-04 03:45 14.34 105000 273000 (2019) 138000 (2018) 184000 141000 146000 165000 231000 256000
2020-07-04 02:45 14.36 105000 273000 (2019) 138000 (2018) 184000 141000 146000 165000 231000 256000
2020-07-04 01:45 14.34 105000 273000 (2019) 138000 (2018) 184000 141000 146000 165000 231000 256000
2020-07-04 00:45 14.41 105000 273000 (2019) 138000 (2018) 184000 141000 146000 165000 231000 256000
2020-07-03 23:45 14.39 105000 290000 (2019) 108000 (2016) 185000 114000 123000 188000 246000 273000
2020-07-03 22:45 14.39 105000 290000 (2019) 108000 (2016) 185000 114000 123000 188000 246000 273000
2020-07-03 21:45 14.41 105000 290000 (2019) 108000 (2016) 185000 114000 123000 188000 246000 273000
2020-07-03 20:45 14.42 105000 290000 (2019) 108000 (2016) 185000 114000 123000 188000 246000 273000
2020-07-03 19:45 14.52 106000 290000 (2019) 108000 (2016) 185000 114000 123000 188000 246000 273000
2020-07-03 18:45 14.40 105000 290000 (2019) 108000 (2016) 185000 114000 123000 188000 246000 273000
2020-07-03 17:45 14.32 104000 290000 (2019) 108000 (2016) 185000 114000 123000 188000 246000 273000
2020-07-03 16:45 14.31 104000 290000 (2019) 108000 (2016) 185000 114000 123000 188000 246000 273000
2020-07-03 15:45 14.26 104000 290000 (2019) 108000 (2016) 185000 114000 123000 188000 246000 273000
2020-07-03 14:45 14.29 104000 290000 (2019) 108000 (2016) 185000 114000 123000 188000 246000 273000
2020-07-03 13:45 14.27 104000 290000 (2019) 108000 (2016) 185000 114000 123000 188000 246000 273000
2020-07-03 12:45 14.20 103000 290000 (2019) 108000 (2016) 185000 114000 123000 188000 246000 273000
2020-07-03 11:45 14.21 103000 290000 (2019) 108000 (2016) 185000 114000 123000 188000 246000 273000
2020-07-03 10:45 14.17 103000 290000 (2019) 108000 (2016) 185000 114000 123000 188000 246000 273000
2020-07-03 09:45 14.09 102000 290000 (2019) 108000 (2016) 185000 114000 123000 188000 246000 273000
2020-07-03 08:45 14.03 102000 290000 (2019) 108000 (2016) 185000 114000 123000 188000 246000 273000
2020-07-03 07:45 14.03 102000 290000 (2019) 108000 (2016) 185000 114000 123000 188000 246000 273000
2020-07-03 06:45 14.01 102000 290000 (2019) 108000 (2016) 185000 114000 123000 188000 246000 273000
2020-07-03 05:45 13.92 101000 290000 (2019) 108000 (2016) 185000 114000 123000 188000 246000 273000
2020-07-03 04:45 13.91 101000 290000 (2019) 108000 (2016) 185000 114000 123000 188000 246000 273000
2020-07-03 03:45 13.87 100000 290000 (2019) 108000 (2016) 185000 114000 123000 188000 246000 273000
2020-07-03 02:45 13.84 100000 290000 (2019) 108000 (2016) 185000 114000 123000 188000 246000 273000
2020-07-03 01:45 13.78 99500 290000 (2019) 108000 (2016) 185000 114000 123000 188000 246000 273000
2020-07-03 00:45 13.70 98800 290000 (2019) 108000 (2016) 185000 114000 123000 188000 246000 273000
2020-07-02 23:45 13.70 98800 305000 (2019) 73100 (2016) 181000 85100 103000 193000 253000 284000
2020-07-02 22:45 13.69 98700 305000 (2019) 73100 (2016) 181000 85100 103000 193000 253000 284000
2020-07-02 21:45 13.66 98400 305000 (2019) 73100 (2016) 181000 85100 103000 193000 253000 284000
2020-07-02 20:45 13.61 98000 305000 (2019) 73100 (2016) 181000 85100 103000 193000 253000 284000
2020-07-02 19:45 13.58 97700 305000 (2019) 73100 (2016) 181000 85100 103000 193000 253000 284000
2020-07-02 18:45 13.60 97900 305000 (2019) 73100 (2016) 181000 85100 103000 193000 253000 284000
2020-07-02 17:45 13.64 98200 305000 (2019) 73100 (2016) 181000 85100 103000 193000 253000 284000
2020-07-02 16:45 13.55 97500 305000 (2019) 73100 (2016) 181000 85100 103000 193000 253000 284000
2020-07-02 15:45 13.57 97600 305000 (2019) 73100 (2016) 181000 85100 103000 193000 253000 284000
2020-07-02 14:45 13.53 97300 305000 (2019) 73100 (2016) 181000 85100 103000 193000 253000 284000
2020-07-02 13:45 13.55 97500 305000 (2019) 73100 (2016) 181000 85100 103000 193000 253000 284000
2020-07-02 12:45 13.53 97300 305000 (2019) 73100 (2016) 181000 85100 103000 193000 253000 284000
2020-07-02 11:45 13.55 97500 305000 (2019) 73100 (2016) 181000 85100 103000 193000 253000 284000
2020-07-02 10:45 13.52 97200 305000 (2019) 73100 (2016) 181000 85100 103000 193000 253000 284000
2020-07-02 09:45 13.54 97400 305000 (2019) 73100 (2016) 181000 85100 103000 193000 253000 284000
2020-07-02 08:45 13.56 97600 305000 (2019) 73100 (2016) 181000 85100 103000 193000 253000 284000
2020-07-02 07:45 13.61 98000 305000 (2019) 73100 (2016) 181000 85100 103000 193000 253000 284000
2020-07-02 06:45 13.57 97600 305000 (2019) 73100 (2016) 181000 85100 103000 193000 253000 284000
2020-07-02 05:45 13.64 98200 305000 (2019) 73100 (2016) 181000 85100 103000 193000 253000 284000
2020-07-02 04:45 13.62 98100 305000 (2019) 73100 (2016) 181000 85100 103000 193000 253000 284000
2020-07-02 03:45 13.65 98300 305000 (2019) 73100 (2016) 181000 85100 103000 193000 253000 284000
2020-07-02 02:45 13.66 98400 305000 (2019) 73100 (2016) 181000 85100 103000 193000 253000 284000
2020-07-02 01:45 13.73 99000 305000 (2019) 73100 (2016) 181000 85100 103000 193000 253000 284000
2020-07-02 00:45 13.72 98900 305000 (2019) 73100 (2016) 181000 85100 103000 193000 253000 284000
2020-07-01 23:45 13.77 99400 316000 (2019) 74400 (2016) 174000 85100 101000 171000 247000 289000
2020-07-01 22:45 13.79 99600 316000 (2019) 74400 (2016) 174000 85100 101000 171000 247000 289000
2020-07-01 21:45 13.85 100000 316000 (2019) 74400 (2016) 174000 85100 101000 171000 247000 289000
2020-07-01 20:45 13.91 101000 316000 (2019) 74400 (2016) 174000 85100 101000 171000 247000 289000
2020-07-01 19:45 13.90 101000 316000 (2019) 74400 (2016) 174000 85100 101000 171000 247000 289000
2020-07-01 18:45 13.93 101000 316000 (2019) 74400 (2016) 174000 85100 101000 171000 247000 289000
2020-07-01 17:45 13.99 101000 316000 (2019) 74400 (2016) 174000 85100 101000 171000 247000 289000
2020-07-01 16:45 14.00 101000 316000 (2019) 74400 (2016) 174000 85100 101000 171000 247000 289000
2020-07-01 15:45 14.03 102000 316000 (2019) 74400 (2016) 174000 85100 101000 171000 247000 289000
2020-07-01 14:45 14.11 103000 316000 (2019) 74400 (2016) 174000 85100 101000 171000 247000 289000
2020-07-01 13:45 14.17 103000 316000 (2019) 74400 (2016) 174000 85100 101000 171000 247000 289000
2020-07-01 12:45 14.19 103000 316000 (2019) 74400 (2016) 174000 85100 101000 171000 247000 289000
2020-07-01 11:45 14.23 104000 316000 (2019) 74400 (2016) 174000 85100 101000 171000 247000 289000
2020-07-01 10:45 14.25 104000 316000 (2019) 74400 (2016) 174000 85100 101000 171000 247000 289000
2020-07-01 09:45 14.28 104000 316000 (2019) 74400 (2016) 174000 85100 101000 171000 247000 289000
2020-07-01 08:45 14.35 105000 316000 (2019) 74400 (2016) 174000 85100 101000 171000 247000 289000
2020-07-01 07:45 14.33 105000 316000 (2019) 74400 (2016) 174000 85100 101000 171000 247000 289000
2020-07-01 06:45 14.33 105000 316000 (2019) 74400 (2016) 174000 85100 101000 171000 247000 289000
2020-07-01 05:45 14.41 105000 316000 (2019) 74400 (2016) 174000 85100 101000 171000 247000 289000
2020-07-01 04:45 14.42 105000 316000 (2019) 74400 (2016) 174000 85100 101000 171000 247000 289000
2020-07-01 03:45 14.42 105000 316000 (2019) 74400 (2016) 174000 85100 101000 171000 247000 289000
2020-07-01 02:45 14.47 106000 316000 (2019) 74400 (2016) 174000 85100 101000 171000 247000 289000
2020-07-01 01:45 14.52 106000 316000 (2019) 74400 (2016) 174000 85100 101000 171000 247000 289000
2020-07-01 00:45 14.51 106000 316000 (2019) 74400 (2016) 174000 85100 101000 171000 247000 289000
2020-06-30 23:45 14.50 106000 322000 (2019) 76600 (2016) 169000 84100 95300 122000 267000 300000
2020-06-30 22:45 14.54 106000 322000 (2019) 76600 (2016) 169000 84100 95300 122000 267000 300000
2020-06-30 21:45 14.51 106000 322000 (2019) 76600 (2016) 169000 84100 95300 122000 267000 300000
2020-06-30 20:45 14.59 107000 322000 (2019) 76600 (2016) 169000 84100 95300 122000 267000 300000
2020-06-30 19:45 14.59 107000 322000 (2019) 76600 (2016) 169000 84100 95300 122000 267000 300000
2020-06-30 18:45 14.60 107000 322000 (2019) 76600 (2016) 169000 84100 95300 122000 267000 300000
2020-06-30 17:45 14.65 107000 322000 (2019) 76600 (2016) 169000 84100 95300 122000 267000 300000
2020-06-30 16:45 14.64 107000 322000 (2019) 76600 (2016) 169000 84100 95300 122000 267000 300000
2020-06-30 15:45 14.61 107000 322000 (2019) 76600 (2016) 169000 84100 95300 122000 267000 300000
2020-06-30 14:45 14.66 108000 322000 (2019) 76600 (2016) 169000 84100 95300 122000 267000 300000
2020-06-30 13:45 14.65 107000 322000 (2019) 76600 (2016) 169000 84100 95300 122000 267000 300000
2020-06-30 12:45 14.60 107000 322000 (2019) 76600 (2016) 169000 84100 95300 122000 267000 300000
2020-06-30 11:45 14.61 107000 322000 (2019) 76600 (2016) 169000 84100 95300 122000 267000 300000
2020-06-30 10:45 14.57 107000 322000 (2019) 76600 (2016) 169000 84100 95300 122000 267000 300000
2020-06-30 09:45 14.59 107000 322000 (2019) 76600 (2016) 169000 84100 95300 122000 267000 300000
2020-06-30 08:45 14.51 106000 322000 (2019) 76600 (2016) 169000 84100 95300 122000 267000 300000
2020-06-30 07:45 14.49 106000 322000 (2019) 76600 (2016) 169000 84100 95300 122000 267000 300000
2020-06-30 06:45 14.48 106000 322000 (2019) 76600 (2016) 169000 84100 95300 122000 267000 300000
2020-06-30 05:45 14.41 105000 322000 (2019) 76600 (2016) 169000 84100 95300 122000 267000 300000
2020-06-30 04:45 14.43 105000 322000 (2019) 76600 (2016) 169000 84100 95300 122000 267000 300000
2020-06-30 03:45 14.39 105000 322000 (2019) 76600 (2016) 169000 84100 95300 122000 267000 300000
2020-06-30 02:45 14.40 105000 322000 (2019) 76600 (2016) 169000 84100 95300 122000 267000 300000
2020-06-30 01:45 14.32 104000 322000 (2019) 76600 (2016) 169000 84100 95300 122000 267000 300000
2020-06-30 00:45 14.32 104000 322000 (2019) 76600 (2016) 169000 84100 95300 122000 267000 300000
2020-06-29 23:45 14.27 104000 324000 (2019) 71500 (2017) 167000 72800 74700 111000 288000 310000
2020-06-29 22:45 14.19 103000 324000 (2019) 71500 (2017) 167000 72800 74700 111000 288000 310000
2020-06-29 21:45 14.19 103000 324000 (2019) 71500 (2017) 167000 72800 74700 111000 288000 310000
2020-06-29 20:45 14.15 103000 324000 (2019) 71500 (2017) 167000 72800 74700 111000 288000 310000
2020-06-29 19:45 14.03 102000 324000 (2019) 71500 (2017) 167000 72800 74700 111000 288000 310000
2020-06-29 18:45 14.02 102000 324000 (2019) 71500 (2017) 167000 72800 74700 111000 288000 310000
2020-06-29 17:45 14.01 102000 324000 (2019) 71500 (2017) 167000 72800 74700 111000 288000 310000
2020-06-29 16:45 13.93 101000 324000 (2019) 71500 (2017) 167000 72800 74700 111000 288000 310000
2020-06-29 15:45 13.86 100000 324000 (2019) 71500 (2017) 167000 72800 74700 111000 288000 310000
2020-06-29 14:45 13.79 99600 324000 (2019) 71500 (2017) 167000 72800 74700 111000 288000 310000
2020-06-29 13:45 13.78 99500 324000 (2019) 71500 (2017) 167000 72800 74700 111000 288000 310000
2020-06-29 12:45 13.71 98800 324000 (2019) 71500 (2017) 167000 72800 74700 111000 288000 310000
2020-06-29 11:45 13.64 98200 324000 (2019) 71500 (2017) 167000 72800 74700 111000 288000 310000
2020-06-29 10:45 13.60 97900 324000 (2019) 71500 (2017) 167000 72800 74700 111000 288000 310000
2020-06-29 09:45 13.56 97600 324000 (2019) 71500 (2017) 167000 72800 74700 111000 288000 310000
2020-06-29 08:45 13.52 97200 324000 (2019) 71500 (2017) 167000 72800 74700 111000 288000 310000
2020-06-29 07:45 13.50 97000 324000 (2019) 71500 (2017) 167000 72800 74700 111000 288000 310000
2020-06-29 06:45 13.50 97000 324000 (2019) 71500 (2017) 167000 72800 74700 111000 288000 310000
2020-06-29 05:45 13.49 96900 324000 (2019) 71500 (2017) 167000 72800 74700 111000 288000 310000
2020-06-29 04:45 13.44 96500 324000 (2019) 71500 (2017) 167000 72800 74700 111000 288000 310000
2020-06-29 03:45 13.36 95800 324000 (2019) 71500 (2017) 167000 72800 74700 111000 288000 310000
2020-06-29 02:45 13.37 95900 324000 (2019) 71500 (2017) 167000 72800 74700 111000 288000 310000
2020-06-29 01:45 13.35 95700 324000 (2019) 71500 (2017) 167000 72800 74700 111000 288000 310000
2020-06-29 00:45 13.29 95200 324000 (2019) 71500 (2017) 167000 72800 74700 111000 288000 310000
2020-06-28 23:45 13.31 95400 318000 (2019) 72400 (2017) 169000 74100 76600 111000 290000 307000
2020-06-28 22:45 13.29 95200 318000 (2019) 72400 (2017) 169000 74100 76600 111000 290000 307000
2020-06-28 21:45 13.24 94700 318000 (2019) 72400 (2017) 169000 74100 76600 111000 290000 307000
2020-06-28 20:45 13.25 94800 318000 (2019) 72400 (2017) 169000 74100 76600 111000 290000 307000
2020-06-28 19:45 13.23 94700 318000 (2019) 72400 (2017) 169000 74100 76600 111000 290000 307000
2020-06-28 18:45 13.23 94700 318000 (2019) 72400 (2017) 169000 74100 76600 111000 290000 307000
2020-06-28 17:45 13.24 94700 318000 (2019) 72400 (2017) 169000 74100 76600 111000 290000 307000
2020-06-28 16:45 13.24 94700 318000 (2019) 72400 (2017) 169000 74100 76600 111000 290000 307000
2020-06-28 15:45 13.20 94400 318000 (2019) 72400 (2017) 169000 74100 76600 111000 290000 307000
2020-06-28 14:45 13.19 94300 318000 (2019) 72400 (2017) 169000 74100 76600 111000 290000 307000
2020-06-28 13:45 13.24 94700 318000 (2019) 72400 (2017) 169000 74100 76600 111000 290000 307000
2020-06-28 12:45 13.23 94700 318000 (2019) 72400 (2017) 169000 74100 76600 111000 290000 307000
2020-06-28 11:45 13.26 94900 318000 (2019) 72400 (2017) 169000 74100 76600 111000 290000 307000
2020-06-28 10:45 13.23 94700 318000 (2019) 72400 (2017) 169000 74100 76600 111000 290000 307000
2020-06-28 09:45 13.26 94900 318000 (2019) 72400 (2017) 169000 74100 76600 111000 290000 307000
2020-06-28 08:45 13.22 94600 318000 (2019) 72400 (2017) 169000 74100 76600 111000 290000 307000
2020-06-28 07:45 13.25 94800 318000 (2019) 72400 (2017) 169000 74100 76600 111000 290000 307000
2020-06-28 06:45 13.27 95000 318000 (2019) 72400 (2017) 169000 74100 76600 111000 290000 307000
2020-06-28 05:45 13.28 95100 318000 (2019) 72400 (2017) 169000 74100 76600 111000 290000 307000
2020-06-28 04:45 13.30 95300 318000 (2019) 72400 (2017) 169000 74100 76600 111000 290000 307000
2020-06-28 03:45 13.29 95200 318000 (2019) 72400 (2017) 169000 74100 76600 111000 290000 307000
2020-06-28 02:45 13.29 95200 318000 (2019) 72400 (2017) 169000 74100 76600 111000 290000 307000
2020-06-28 01:45 13.32 95500 318000 (2019) 72400 (2017) 169000 74100 76600 111000 290000 307000
2020-06-28 00:45 13.29 95200 318000 (2019) 72400 (2017) 169000 74100 76600 111000 290000 307000
2020-06-27 23:45 13.32 95500 307000 (2019) 75100 (2017) 164000 77100 80200 105000 277000 295000
2020-06-27 22:45 13.31 95400 307000 (2019) 75100 (2017) 164000 77100 80200 105000 277000 295000
2020-06-27 21:45 13.32 95500 307000 (2019) 75100 (2017) 164000 77100 80200 105000 277000 295000
2020-06-27 20:45 13.33 95600 307000 (2019) 75100 (2017) 164000 77100 80200 105000 277000 295000
2020-06-27 19:45 13.29 95200 307000 (2019) 75100 (2017) 164000 77100 80200 105000 277000 295000
2020-06-27 18:45 13.32 95500 307000 (2019) 75100 (2017) 164000 77100 80200 105000 277000 295000
2020-06-27 17:45 13.30 95300 307000 (2019) 75100 (2017) 164000 77100 80200 105000 277000 295000
2020-06-27 16:45 13.33 95600 307000 (2019) 75100 (2017) 164000 77100 80200 105000 277000 295000
2020-06-27 15:45 13.32 95500 307000 (2019) 75100 (2017) 164000 77100 80200 105000 277000 295000
2020-06-27 14:45 13.34 95600 307000 (2019) 75100 (2017) 164000 77100 80200 105000 277000 295000
2020-06-27 13:45 13.31 95400 307000 (2019) 75100 (2017) 164000 77100 80200 105000 277000 295000
2020-06-27 12:45 13.30 95300 307000 (2019) 75100 (2017) 164000 77100 80200 105000 277000 295000
2020-06-27 11:45 13.34 95600 307000 (2019) 75100 (2017) 164000 77100 80200 105000 277000 295000
2020-06-27 10:45 13.32 95500 307000 (2019) 75100 (2017) 164000 77100 80200 105000 277000 295000
2020-06-27 09:45 13.32 95500 307000 (2019) 75100 (2017) 164000 77100 80200 105000 277000 295000
2020-06-27 08:45 13.34 95600 307000 (2019) 75100 (2017) 164000 77100 80200 105000 277000 295000
2020-06-27 07:45 13.34 95600 307000 (2019) 75100 (2017) 164000 77100 80200 105000 277000 295000
2020-06-27 06:45 13.36 95800 307000 (2019) 75100 (2017) 164000 77100 80200 105000 277000 295000
2020-06-27 05:45 13.37 95900 307000 (2019) 75100 (2017) 164000 77100 80200 105000 277000 295000
2020-06-27 04:45 13.35 95700 307000 (2019) 75100 (2017) 164000 77100 80200 105000 277000 295000
2020-06-27 03:45 13.39 96000 307000 (2019) 75100 (2017) 164000 77100 80200 105000 277000 295000
2020-06-27 02:45 13.37 95900 307000 (2019) 75100 (2017) 164000 77100 80200 105000 277000 295000
2020-06-27 01:45 13.43 96400 307000 (2019) 75100 (2017) 164000 77100 80200 105000 277000 295000
2020-06-27 00:45 13.44 96500 307000 (2019) 75100 (2017) 164000 77100 80200 105000 277000 295000
2020-06-26 23:45 13.46 96600 293000 (2019) 78300 (2017) 150000 80900 84700 97600 242000 273000
2020-06-26 22:45 13.46 96600 293000 (2019) 78300 (2017) 150000 80900 84700 97600 242000 273000
2020-06-26 21:45 13.51 97100 293000 (2019) 78300 (2017) 150000 80900 84700 97600 242000 273000
2020-06-26 20:45 13.52 97200 293000 (2019) 78300 (2017) 150000 80900 84700 97600 242000 273000
2020-06-26 19:45 13.52 97200 293000 (2019) 78300 (2017) 150000 80900 84700 97600 242000 273000
2020-06-26 18:45 13.53 97300 293000 (2019) 78300 (2017) 150000 80900 84700 97600 242000 273000
2020-06-26 17:45 13.51 97100 293000 (2019) 78300 (2017) 150000 80900 84700 97600 242000 273000
2020-06-26 16:45 13.55 97500 293000 (2019) 78300 (2017) 150000 80900 84700 97600 242000 273000
2020-06-26 15:45 13.58 97700 293000 (2019) 78300 (2017) 150000 80900 84700 97600 242000 273000
2020-06-26 14:45 13.55 97500 293000 (2019) 78300 (2017) 150000 80900 84700 97600 242000 273000
2020-06-26 13:45 13.62 98100 293000 (2019) 78300 (2017) 150000 80900 84700 97600 242000 273000
2020-06-26 12:45 13.64 98200 293000 (2019) 78300 (2017) 150000 80900 84700 97600 242000 273000
2020-06-26 11:45 13.66 98400 293000 (2019) 78300 (2017) 150000 80900 84700 97600 242000 273000
2020-06-26 10:45 13.65 98300 293000 (2019) 78300 (2017) 150000 80900 84700 97600 242000 273000
2020-06-26 09:45 13.68 98600 293000 (2019) 78300 (2017) 150000 80900 84700 97600 242000 273000
2020-06-26 08:45 13.71 98800 293000 (2019) 78300 (2017) 150000 80900 84700 97600 242000 273000
2020-06-26 07:45 13.72 98900 293000 (2019) 78300 (2017) 150000 80900 84700 97600 242000 273000
2020-06-26 06:45 13.73 99000 293000 (2019) 78300 (2017) 150000 80900 84700 97600 242000 273000
2020-06-26 05:45 13.79 99600 293000 (2019) 78300 (2017) 150000 80900 84700 97600 242000 273000
2020-06-26 04:45 13.83 100000 293000 (2019) 78300 (2017) 150000 80900 84700 97600 242000 273000
2020-06-26 03:45 13.84 100000 293000 (2019) 78300 (2017) 150000 80900 84700 97600 242000 273000
2020-06-26 02:45 13.86 100000 293000 (2019) 78300 (2017) 150000 80900 84700 97600 242000 273000
2020-06-26 01:45 13.90 101000 293000 (2019) 78300 (2017) 150000 80900 84700 97600 242000 273000
2020-06-26 00:45 13.94 101000 293000 (2019) 78300 (2017) 150000 80900 84700 97600 242000 273000
2020-06-25 23:45 13.98 101000 281000 (2019) 82700 (2017) 149000 86200 91300 103000 229000 260000
2020-06-25 22:45 13.97 101000 281000 (2019) 82700 (2017) 149000 86200 91300 103000 229000 260000
2020-06-25 21:45 14.02 102000 281000 (2019) 82700 (2017) 149000 86200 91300 103000 229000 260000
2020-06-25 20:45 14.04 102000 281000 (2019) 82700 (2017) 149000 86200 91300 103000 229000 260000
2020-06-25 19:45 14.05 102000 281000 (2019) 82700 (2017) 149000 86200 91300 103000 229000 260000
2020-06-25 18:45 14.11 103000 281000 (2019) 82700 (2017) 149000 86200 91300 103000 229000 260000
2020-06-25 17:45 14.17 103000 281000 (2019) 82700 (2017) 149000 86200 91300 103000 229000 260000
2020-06-25 16:45 14.17 103000 281000 (2019) 82700 (2017) 149000 86200 91300 103000 229000 260000
2020-06-25 15:45 14.15 103000 281000 (2019) 82700 (2017) 149000 86200 91300 103000 229000 260000
2020-06-25 14:45 14.16 103000 281000 (2019) 82700 (2017) 149000 86200 91300 103000 229000 260000
2020-06-25 13:45 14.26 106000 281000 (2019) 82700 (2017) 149000 86200 91300 103000 229000 260000
2020-06-25 12:45 14.26 106000 281000 (2019) 82700 (2017) 149000 86200 91300 103000 229000 260000
2020-06-25 11:45 14.26 106000 281000 (2019) 82700 (2017) 149000 86200 91300 103000 229000 260000
2020-06-25 10:45 14.31 106000 281000 (2019) 82700 (2017) 149000 86200 91300 103000 229000 260000
2020-06-25 09:45 14.33 107000 281000 (2019) 82700 (2017) 149000 86200 91300 103000 229000 260000
2020-06-25 08:45 14.33 107000 281000 (2019) 82700 (2017) 149000 86200 91300 103000 229000 260000
2020-06-25 07:45 14.36 107000 281000 (2019) 82700 (2017) 149000 86200 91300 103000 229000 260000
2020-06-25 06:45 14.43 107000 281000 (2019) 82700 (2017) 149000 86200 91300 103000 229000 260000
2020-06-25 05:45 14.44 108000 281000 (2019) 82700 (2017) 149000 86200 91300 103000 229000 260000
2020-06-25 04:45 14.45 108000 281000 (2019) 82700 (2017) 149000 86200 91300 103000 229000 260000
2020-06-25 03:45 14.46 108000 281000 (2019) 82700 (2017) 149000 86200 91300 103000 229000 260000
2020-06-25 02:45 14.47 108000 281000 (2019) 82700 (2017) 149000 86200 91300 103000 229000 260000
2020-06-25 01:45 14.47 108000 281000 (2019) 82700 (2017) 149000 86200 91300 103000 229000 260000
2020-06-25 00:45 14.52 108000 281000 (2019) 82700 (2017) 149000 86200 91300 103000 229000 260000
2020-06-24 23:45 14.51 108000 268000 (2019) 86900 (2017) 155000 89700 94000 124000 232000 253000
2020-06-24 22:45 14.51 108000 268000 (2019) 86900 (2017) 155000 89700 94000 124000 232000 253000
2020-06-24 21:45 14.52 108000 268000 (2019) 86900 (2017) 155000 89700 94000 124000 232000 253000
2020-06-24 20:45 14.54 109000 268000 (2019) 86900 (2017) 155000 89700 94000 124000 232000 253000
2020-06-24 19:45 14.51 108000 268000 (2019) 86900 (2017) 155000 89700 94000 124000 232000 253000
2020-06-24 18:45 14.54 109000 268000 (2019) 86900 (2017) 155000 89700 94000 124000 232000 253000
2020-06-24 17:45 14.54 109000 268000 (2019) 86900 (2017) 155000 89700 94000 124000 232000 253000
2020-06-24 16:45 14.52 108000 268000 (2019) 86900 (2017) 155000 89700 94000 124000 232000 253000
2020-06-24 15:45 14.49 108000 268000 (2019) 86900 (2017) 155000 89700 94000 124000 232000 253000
2020-06-24 14:45 14.53 108000 268000 (2019) 86900 (2017) 155000 89700 94000 124000 232000 253000
2020-06-24 13:45 14.51 108000 268000 (2019) 86900 (2017) 155000 89700 94000 124000 232000 253000
2020-06-24 12:45 14.52 108000 268000 (2019) 86900 (2017) 155000 89700 94000 124000 232000 253000
2020-06-24 11:45 14.47 108000 268000 (2019) 86900 (2017) 155000 89700 94000 124000 232000 253000
2020-06-24 10:45 14.44 108000 268000 (2019) 86900 (2017) 155000 89700 94000 124000 232000 253000
2020-06-24 09:45 14.44 108000 268000 (2019) 86900 (2017) 155000 89700 94000 124000 232000 253000
2020-06-24 08:45 14.40 107000 268000 (2019) 86900 (2017) 155000 89700 94000 124000 232000 253000
2020-06-24 07:45 14.33 107000 268000 (2019) 86900 (2017) 155000 89700 94000 124000 232000 253000
2020-06-24 06:45 14.39 107000 268000 (2019) 86900 (2017) 155000 89700 94000 124000 232000 253000
2020-06-24 05:45 14.43 107000 268000 (2019) 86900 (2017) 155000 89700 94000 124000 232000 253000
2020-06-24 04:45 14.42 107000 268000 (2019) 86900 (2017) 155000 89700 94000 124000 232000 253000
2020-06-24 03:45 14.37 107000 268000 (2019) 86900 (2017) 155000 89700 94000 124000 232000 253000
2020-06-24 02:45 14.39 107000 268000 (2019) 86900 (2017) 155000 89700 94000 124000 232000 253000
2020-06-24 01:45 14.39 107000 268000 (2019) 86900 (2017) 155000 89700 94000 124000 232000 253000
2020-06-24 00:45 14.44 108000 268000 (2019) 86900 (2017) 155000 89700 94000 124000 232000 253000
2020-06-23 23:45 14.43 107000 256000 (2019) 91400 (2017) 153000 91600 91900 133000 225000 243000
2020-06-23 22:45 14.42 107000 256000 (2019) 91400 (2017) 153000 91600 91900 133000 225000 243000
2020-06-23 21:45 14.45 108000 256000 (2019) 91400 (2017) 153000 91600 91900 133000 225000 243000
2020-06-23 20:45 14.49 108000 256000 (2019) 91400 (2017) 153000 91600 91900 133000 225000 243000
2020-06-23 19:45 14.50 108000 256000 (2019) 91400 (2017) 153000 91600 91900 133000 225000 243000
2020-06-23 18:45 14.48 108000 256000 (2019) 91400 (2017) 153000 91600 91900 133000 225000 243000
2020-06-23 17:45 14.53 108000 256000 (2019) 91400 (2017) 153000 91600 91900 133000 225000 243000
2020-06-23 16:45 14.54 109000 256000 (2019) 91400 (2017) 153000 91600 91900 133000 225000 243000
2020-06-23 15:45 14.52 108000 256000 (2019) 91400 (2017) 153000 91600 91900 133000 225000 243000
2020-06-23 14:45 14.54 109000 256000 (2019) 91400 (2017) 153000 91600 91900 133000 225000 243000
2020-06-23 13:45 14.53 108000 256000 (2019) 91400 (2017) 153000 91600 91900 133000 225000 243000
2020-06-23 12:45 14.51 108000 256000 (2019) 91400 (2017) 153000 91600 91900 133000 225000 243000
2020-06-23 11:45 14.55 109000 256000 (2019) 91400 (2017) 153000 91600 91900 133000 225000 243000
2020-06-23 10:45 14.52 108000 256000 (2019) 91400 (2017) 153000 91600 91900 133000 225000 243000
2020-06-23 09:45 14.56 109000 256000 (2019) 91400 (2017) 153000 91600 91900 133000 225000 243000
2020-06-23 08:45 14.56 109000 256000 (2019) 91400 (2017) 153000 91600 91900 133000 225000 243000
2020-06-23 07:45 14.58 109000 256000 (2019) 91400 (2017) 153000 91600 91900 133000 225000 243000
2020-06-23 06:45 14.54 109000 256000 (2019) 91400 (2017) 153000 91600 91900 133000 225000 243000
2020-06-23 05:45 14.59 109000 256000 (2019) 91400 (2017) 153000 91600 91900 133000 225000 243000
2020-06-23 04:45 14.54 109000 256000 (2019) 91400 (2017) 153000 91600 91900 133000 225000 243000
2020-06-23 03:45 14.53 108000 256000 (2019) 91400 (2017) 153000 91600 91900 133000 225000 243000
2020-06-23 02:45 14.52 108000 256000 (2019) 91400 (2017) 153000 91600 91900 133000 225000 243000
2020-06-23 01:45 14.47 108000 256000 (2019) 91400 (2017) 153000 91600 91900 133000 225000 243000
2020-06-23 00:45 14.52 108000 256000 (2019) 91400 (2017) 153000 91600 91900 133000 225000 243000
2020-06-22 23:45 14.47 108000 246000 (2019) 82200 (2018) 143000 85600 90600 105000 215000 234000
2020-06-22 22:45 14.44 108000 246000 (2019) 82200 (2018) 143000 85600 90600 105000 215000 234000
2020-06-22 21:45 14.47 108000 246000 (2019) 82200 (2018) 143000 85600 90600 105000 215000 234000
2020-06-22 20:45 14.43 107000 246000 (2019) 82200 (2018) 143000 85600 90600 105000 215000 234000
2020-06-22 19:45 14.36 107000 246000 (2019) 82200 (2018) 143000 85600 90600 105000 215000 234000
2020-06-22 18:45 14.32 107000 246000 (2019) 82200 (2018) 143000 85600 90600 105000 215000 234000
2020-06-22 17:45 14.35 107000 246000 (2019) 82200 (2018) 143000 85600 90600 105000 215000 234000
2020-06-22 16:45 14.28 106000 246000 (2019) 82200 (2018) 143000 85600 90600 105000 215000 234000
2020-06-22 15:45 14.28 106000 246000 (2019) 82200 (2018) 143000 85600 90600 105000 215000 234000
2020-06-22 14:45 14.29 106000 246000 (2019) 82200 (2018) 143000 85600 90600 105000 215000 234000
2020-06-22 13:45 14.25 106000 246000 (2019) 82200 (2018) 143000 85600 90600 105000 215000 234000
2020-06-22 12:45 14.20 105000 246000 (2019) 82200 (2018) 143000 85600 90600 105000 215000 234000
2020-06-22 11:45 14.22 106000 246000 (2019) 82200 (2018) 143000 85600 90600 105000 215000 234000
2020-06-22 10:45 14.06 104000 246000 (2019) 82200 (2018) 143000 85600 90600 105000 215000 234000
2020-06-22 09:45 14.16 105000 246000 (2019) 82200 (2018) 143000 85600 90600 105000 215000 234000
2020-06-22 08:45 14.15 105000 246000 (2019) 82200 (2018) 143000 85600 90600 105000 215000 234000
2020-06-22 07:45 14.10 104000 246000 (2019) 82200 (2018) 143000 85600 90600 105000 215000 234000
2020-06-22 06:45 14.09 104000 246000 (2019) 82200 (2018) 143000 85600 90600 105000 215000 234000
2020-06-22 05:45 14.11 105000 246000 (2019) 82200 (2018) 143000 85600 90600 105000 215000 234000
2020-06-22 04:45 14.10 104000 246000 (2019) 82200 (2018) 143000 85600 90600 105000 215000 234000
2020-06-22 03:45 14.11 105000 246000 (2019) 82200 (2018) 143000 85600 90600 105000 215000 234000
2020-06-22 02:45 14.12 105000 246000 (2019) 82200 (2018) 143000 85600 90600 105000 215000 234000
2020-06-22 01:45 14.10 104000 246000 (2019) 82200 (2018) 143000 85600 90600 105000 215000 234000
2020-06-22 00:45 14.08 104000 246000 (2019) 82200 (2018) 143000 85600 90600 105000 215000 234000
2020-06-21 23:45 14.10 104000 231000 (2019) 79600 (2018) 139000 83100 88400 114000 203000 220000
2020-06-21 22:45 14.12 105000 231000 (2019) 79600 (2018) 139000 83100 88400 114000 203000 220000
2020-06-21 21:45 14.18 105000 231000 (2019) 79600 (2018) 139000 83100 88400 114000 203000 220000
2020-06-21 20:45 14.16 105000 231000 (2019) 79600 (2018) 139000 83100 88400 114000 203000 220000
2020-06-21 19:45 14.10 104000 231000 (2019) 79600 (2018) 139000 83100 88400 114000 203000 220000
2020-06-21 18:45 14.12 105000 231000 (2019) 79600 (2018) 139000 83100 88400 114000 203000 220000
2020-06-21 17:45 14.15 105000 231000 (2019) 79600 (2018) 139000 83100 88400 114000 203000 220000
2020-06-21 16:45 14.18 105000 231000 (2019) 79600 (2018) 139000 83100 88400 114000 203000 220000
2020-06-21 15:45 14.16 105000 231000 (2019) 79600 (2018) 139000 83100 88400 114000 203000 220000
2020-06-21 14:45 14.15 105000 231000 (2019) 79600 (2018) 139000 83100 88400 114000 203000 220000
2020-06-21 13:45 14.22 106000 231000 (2019) 79600 (2018) 139000 83100 88400 114000 203000 220000
2020-06-21 12:45 14.21 105000 231000 (2019) 79600 (2018) 139000 83100 88400 114000 203000 220000
2020-06-21 11:45 14.18 105000 231000 (2019) 79600 (2018) 139000 83100 88400 114000 203000 220000
2020-06-21 10:45 14.24 106000 231000 (2019) 79600 (2018) 139000 83100 88400 114000 203000 220000
2020-06-21 09:45 14.24 106000 231000 (2019) 79600 (2018) 139000 83100 88400 114000 203000 220000
2020-06-21 08:45 14.24 106000 231000 (2019) 79600 (2018) 139000 83100 88400 114000 203000 220000
2020-06-21 07:45 14.28 106000 231000 (2019) 79600 (2018) 139000 83100 88400 114000 203000 220000
2020-06-21 06:45 14.25 106000 231000 (2019) 79600 (2018) 139000 83100 88400 114000 203000 220000
2020-06-21 05:45 14.22 106000 231000 (2019) 79600 (2018) 139000 83100 88400 114000 203000 220000
2020-06-21 04:45 14.27 106000 231000 (2019) 79600 (2018) 139000 83100 88400 114000 203000 220000
2020-06-21 03:45 14.21 105000 231000 (2019) 79600 (2018) 139000 83100 88400 114000 203000 220000
2020-06-21 02:45 14.23 106000 231000 (2019) 79600 (2018) 139000 83100 88400 114000 203000 220000
2020-06-21 01:45 14.22 106000 231000 (2019) 79600 (2018) 139000 83100 88400 114000 203000 220000
2020-06-21 00:45 14.21 105000 231000 (2019) 79600 (2018) 139000 83100 88400 114000 203000 220000
2020-06-20 23:45 14.23 106000 237000 (2019) 79600 (2018) 151000 83500 89200 126000 225000 232000
2020-06-20 22:45 14.22 106000 237000 (2019) 79600 (2018) 151000 83500 89200 126000 225000 232000
2020-06-20 21:45 14.20 105000 237000 (2019) 79600 (2018) 151000 83500 89200 126000 225000 232000
2020-06-20 20:45 14.17 105000 237000 (2019) 79600 (2018) 151000 83500 89200 126000 225000 232000
2020-06-20 19:45 14.12 105000 237000 (2019) 79600 (2018) 151000 83500 89200 126000 225000 232000
2020-06-20 18:45 14.07 104000 237000 (2019) 79600 (2018) 151000 83500 89200 126000 225000 232000
2020-06-20 17:45 14.03 104000 237000 (2019) 79600 (2018) 151000 83500 89200 126000 225000 232000
2020-06-20 16:45 14.02 104000 237000 (2019) 79600 (2018) 151000 83500 89200 126000 225000 232000
2020-06-20 15:45 13.98 103000 237000 (2019) 79600 (2018) 151000 83500 89200 126000 225000 232000
2020-06-20 14:45 13.95 103000 237000 (2019) 79600 (2018) 151000 83500 89200 126000 225000 232000
2020-06-20 13:45 13.90 103000 237000 (2019) 79600 (2018) 151000 83500 89200 126000 225000 232000
2020-06-20 12:45 13.85 102000 237000 (2019) 79600 (2018) 151000 83500 89200 126000 225000 232000
2020-06-20 11:45 13.80 102000 237000 (2019) 79600 (2018) 151000 83500 89200 126000 225000 232000
2020-06-20 10:45 13.78 101000 237000 (2019) 79600 (2018) 151000 83500 89200 126000 225000 232000
2020-06-20 09:45 13.75 101000 237000 (2019) 79600 (2018) 151000 83500 89200 126000 225000 232000
2020-06-20 08:45 13.70 101000 237000 (2019) 79600 (2018) 151000 83500 89200 126000 225000 232000
2020-06-20 07:45 13.72 101000 237000 (2019) 79600 (2018) 151000 83500 89200 126000 225000 232000
2020-06-20 06:45 13.68 101000 237000 (2019) 79600 (2018) 151000 83500 89200 126000 225000 232000
2020-06-20 05:45 13.65 100000 237000 (2019) 79600 (2018) 151000 83500 89200 126000 225000 232000
2020-06-20 04:45 13.65 100000 237000 (2019) 79600 (2018) 151000 83500 89200 126000 225000 232000
2020-06-20 03:45 13.65 100000 237000 (2019) 79600 (2018) 151000 83500 89200 126000 225000 232000
2020-06-20 02:45 13.66 100000 237000 (2019) 79600 (2018) 151000 83500 89200 126000 225000 232000
2020-06-20 01:45 13.62 100000 237000 (2019) 79600 (2018) 151000 83500 89200 126000 225000 232000
2020-06-20 00:45 13.62 100000 237000 (2019) 79600 (2018) 151000 83500 89200 126000 225000 232000
2020-06-19 23:45 13.62 100000 262000 (2015) 80600 (2018) 161000 84700 90800 108000 258000 260000
2020-06-19 22:45 13.61 100000 262000 (2015) 80600 (2018) 161000 84700 90800 108000 258000 260000
2020-06-19 21:45 13.62 100000 262000 (2015) 80600 (2018) 161000 84700 90800 108000 258000 260000
2020-06-19 20:45 13.62 100000 262000 (2015) 80600 (2018) 161000 84700 90800 108000 258000 260000
2020-06-19 19:45 13.65 100000 262000 (2015) 80600 (2018) 161000 84700 90800 108000 258000 260000
2020-06-19 18:45 13.64 100000 262000 (2015) 80600 (2018) 161000 84700 90800 108000 258000 260000
2020-06-19 17:45 13.64 100000 262000 (2015) 80600 (2018) 161000 84700 90800 108000 258000 260000
2020-06-19 16:45 13.62 100000 262000 (2015) 80600 (2018) 161000 84700 90800 108000 258000 260000
2020-06-19 15:45 13.61 100000 262000 (2015) 80600 (2018) 161000 84700 90800 108000 258000 260000
2020-06-19 14:45 13.62 100000 262000 (2015) 80600 (2018) 161000 84700 90800 108000 258000 260000
2020-06-19 13:45 13.61 100000 262000 (2015) 80600 (2018) 161000 84700 90800 108000 258000 260000
2020-06-19 12:45 13.66 100000 262000 (2015) 80600 (2018) 161000 84700 90800 108000 258000 260000
2020-06-19 11:45 13.59 99800 262000 (2015) 80600 (2018) 161000 84700 90800 108000 258000 260000
2020-06-19 10:45 13.64 100000 262000 (2015) 80600 (2018) 161000 84700 90800 108000 258000 260000
2020-06-19 09:45 13.59 99800 262000 (2015) 80600 (2018) 161000 84700 90800 108000 258000 260000
2020-06-19 08:45 13.65 100000 262000 (2015) 80600 (2018) 161000 84700 90800 108000 258000 260000
2020-06-19 07:45 13.69 101000 262000 (2015) 80600 (2018) 161000 84700 90800 108000 258000 260000
2020-06-19 06:45 13.68 101000 262000 (2015) 80600 (2018) 161000 84700 90800 108000 258000 260000
2020-06-19 05:45 13.67 100000 262000 (2015) 80600 (2018) 161000 84700 90800 108000 258000 260000
2020-06-19 04:45 13.69 101000 262000 (2015) 80600 (2018) 161000 84700 90800 108000 258000 260000
2020-06-19 03:45 13.72 101000 262000 (2015) 80600 (2018) 161000 84700 90800 108000 258000 260000
2020-06-19 02:45 13.72 101000 262000 (2015) 80600 (2018) 161000 84700 90800 108000 258000 260000
2020-06-19 01:45 13.74 101000 262000 (2015) 80600 (2018) 161000 84700 90800 108000 258000 260000
2020-06-19 00:45 13.78 101000 262000 (2015) 80600 (2018) 161000 84700 90800 108000 258000 260000
2020-06-18 23:45 13.75 101000 274000 (2015) 83100 (2018) 165000 85200 88200 104000 271000 273000
2020-06-18 22:45 13.77 101000 274000 (2015) 83100 (2018) 165000 85200 88200 104000 271000 273000
2020-06-18 21:45 13.73 101000 274000 (2015) 83100 (2018) 165000 85200 88200 104000 271000 273000
2020-06-18 20:45 13.76 101000 274000 (2015) 83100 (2018) 165000 85200 88200 104000 271000 273000
2020-06-18 19:45 13.81 102000 274000 (2015) 83100 (2018) 165000 85200 88200 104000 271000 273000
2020-06-18 18:45 13.83 102000 274000 (2015) 83100 (2018) 165000 85200 88200 104000 271000 273000
2020-06-18 17:45 13.77 101000 274000 (2015) 83100 (2018) 165000 85200 88200 104000 271000 273000
2020-06-18 16:45 13.82 102000 274000 (2015) 83100 (2018) 165000 85200 88200 104000 271000 273000
2020-06-18 15:45 13.85 102000 274000 (2015) 83100 (2018) 165000 85200 88200 104000 271000 273000
2020-06-18 14:45 13.83 102000 274000 (2015) 83100 (2018) 165000 85200 88200 104000 271000 273000
2020-06-18 13:45 13.85 102000 274000 (2015) 83100 (2018) 165000 85200 88200 104000 271000 273000
2020-06-18 12:45 13.85 102000 274000 (2015) 83100 (2018) 165000 85200 88200 104000 271000 273000
2020-06-18 11:45 13.81 102000 274000 (2015) 83100 (2018) 165000 85200 88200 104000 271000 273000
2020-06-18 10:45 13.85 102000 274000 (2015) 83100 (2018) 165000 85200 88200 104000 271000 273000
2020-06-18 09:45 13.82 102000 274000 (2015) 83100 (2018) 165000 85200 88200 104000 271000 273000
2020-06-18 08:45 13.85 102000 274000 (2015) 83100 (2018) 165000 85200 88200 104000 271000 273000
2020-06-18 07:45 13.90 103000 274000 (2015) 83100 (2018) 165000 85200 88200 104000 271000 273000
2020-06-18 06:45 13.90 103000 274000 (2015) 83100 (2018) 165000 85200 88200 104000 271000 273000
2020-06-18 05:45 13.92 103000 274000 (2015) 83100 (2018) 165000 85200 88200 104000 271000 273000
2020-06-18 04:45 13.91 103000 274000 (2015) 83100 (2018) 165000 85200 88200 104000 271000 273000
2020-06-18 03:45 13.89 102000 274000 (2015) 83100 (2018) 165000 85200 88200 104000 271000 273000
2020-06-18 02:45 13.96 103000 274000 (2015) 83100 (2018) 165000 85200 88200 104000 271000 273000
2020-06-18 01:45 13.90 103000 274000 (2015) 83100 (2018) 165000 85200 88200 104000 271000 273000
2020-06-18 00:45 13.92 103000 274000 (2015) 83100 (2018) 165000 85200 88200 104000 271000 273000
2020-06-17 23:45 13.93 103000 277000 (2019) 88600 (2017) 167000 88700 88700 107000 275000 276000
2020-06-17 22:45 13.96 103000 277000 (2019) 88600 (2017) 167000 88700 88700 107000 275000 276000
2020-06-17 21:45 13.94 103000 277000 (2019) 88600 (2017) 167000 88700 88700 107000 275000 276000
2020-06-17 20:45 13.95 103000 277000 (2019) 88600 (2017) 167000 88700 88700 107000 275000 276000
2020-06-17 19:45 13.95 103000 277000 (2019) 88600 (2017) 167000 88700 88700 107000 275000 276000
2020-06-17 18:45 13.98 103000 277000 (2019) 88600 (2017) 167000 88700 88700 107000 275000 276000
2020-06-17 17:45 13.98 103000 277000 (2019) 88600 (2017) 167000 88700 88700 107000 275000 276000
2020-06-17 16:45 13.99 103000 277000 (2019) 88600 (2017) 167000 88700 88700 107000 275000 276000
2020-06-17 15:45 14.02 104000 277000 (2019) 88600 (2017) 167000 88700 88700 107000 275000 276000
2020-06-17 14:45 13.95 103000 277000 (2019) 88600 (2017) 167000 88700 88700 107000 275000 276000
2020-06-17 13:45 13.97 103000 277000 (2019) 88600 (2017) 167000 88700 88700 107000 275000 276000
2020-06-17 12:45 13.98 103000 277000 (2019) 88600 (2017) 167000 88700 88700 107000 275000 276000
2020-06-17 11:45 13.93 103000 277000 (2019) 88600 (2017) 167000 88700 88700 107000 275000 276000
2020-06-17 10:45 13.96 103000 277000 (2019) 88600 (2017) 167000 88700 88700 107000 275000 276000
2020-06-17 09:45 13.99 103000 277000 (2019) 88600 (2017) 167000 88700 88700 107000 275000 276000
2020-06-17 08:45 14.00 103000 277000 (2019) 88600 (2017) 167000 88700 88700 107000 275000 276000
2020-06-17 07:45 13.98 103000 277000 (2019) 88600 (2017) 167000 88700 88700 107000 275000 276000
2020-06-17 06:45 14.02 104000 277000 (2019) 88600 (2017) 167000 88700 88700 107000 275000 276000
2020-06-17 05:45 14.00 103000 277000 (2019) 88600 (2017) 167000 88700 88700 107000 275000 276000
2020-06-17 04:45 13.99 103000 277000 (2019) 88600 (2017) 167000 88700 88700 107000 275000 276000
2020-06-17 03:45 13.98 103000 277000 (2019) 88600 (2017) 167000 88700 88700 107000 275000 276000
2020-06-17 02:45 13.99 103000 277000 (2019) 88600 (2017) 167000 88700 88700 107000 275000 276000
2020-06-17 01:45 14.02 104000 277000 (2019) 88600 (2017) 167000 88700 88700 107000 275000 276000
2020-06-17 00:45 14.02 104000 277000 (2019) 88600 (2017) 167000 88700 88700 107000 275000 276000
2020-06-16 23:45 14.07 104000 286000 (2019) 88700 (2017) 170000 89600 90800 113000 277000 282000
2020-06-16 22:45 14.07 104000 286000 (2019) 88700 (2017) 170000 89600 90800 113000 277000 282000
2020-06-16 21:45 14.07 104000 286000 (2019) 88700 (2017) 170000 89600 90800 113000 277000 282000
2020-06-16 20:45 14.08 104000 286000 (2019) 88700 (2017) 170000 89600 90800 113000 277000 282000
2020-06-16 19:45 14.11 105000 286000 (2019) 88700 (2017) 170000 89600 90800 113000 277000 282000
2020-06-16 18:45 14.15 105000 286000 (2019) 88700 (2017) 170000 89600 90800 113000 277000 282000
2020-06-16 17:45 14.17 105000 286000 (2019) 88700 (2017) 170000 89600 90800 113000 277000 282000
2020-06-16 16:45 14.19 105000 286000 (2019) 88700 (2017) 170000 89600 90800 113000 277000 282000
2020-06-16 15:45 14.19 105000 286000 (2019) 88700 (2017) 170000 89600 90800 113000 277000 282000
2020-06-16 14:45 14.18 105000 286000 (2019) 88700 (2017) 170000 89600 90800 113000 277000 282000
2020-06-16 13:45 14.24 106000 286000 (2019) 88700 (2017) 170000 89600 90800 113000 277000 282000
2020-06-16 12:45 14.29 106000 286000 (2019) 88700 (2017) 170000 89600 90800 113000 277000 282000
2020-06-16 11:45 14.29 106000 286000 (2019) 88700 (2017) 170000 89600 90800 113000 277000 282000
2020-06-16 10:45 14.31 106000 286000 (2019) 88700 (2017) 170000 89600 90800 113000 277000 282000
2020-06-16 09:45 14.31 106000 286000 (2019) 88700 (2017) 170000 89600 90800 113000 277000 282000
2020-06-16 08:45 14.34 107000 286000 (2019) 88700 (2017) 170000 89600 90800 113000 277000 282000
2020-06-16 07:45 14.37 107000 286000 (2019) 88700 (2017) 170000 89600 90800 113000 277000 282000
2020-06-16 06:45 14.37 107000 286000 (2019) 88700 (2017) 170000 89600 90800 113000 277000 282000
2020-06-16 05:45 14.46 108000 286000 (2019) 88700 (2017) 170000 89600 90800 113000 277000 282000
2020-06-16 04:45 14.48 108000 286000 (2019) 88700 (2017) 170000 89600 90800 113000 277000 282000
2020-06-16 03:45 14.52 108000 286000 (2019) 88700 (2017) 170000 89600 90800 113000 277000 282000
2020-06-16 02:45 14.51 108000 286000 (2019) 88700 (2017) 170000 89600 90800 113000 277000 282000
2020-06-16 01:45 14.56 109000 286000 (2019) 88700 (2017) 170000 89600 90800 113000 277000 282000
2020-06-16 00:45 14.61 109000 286000 (2019) 88700 (2017) 170000 89600 90800 113000 277000 282000
2020-06-15 23:45 14.66 110000 295000 (2019) 85400 (2018) 168000 86500 88100 115000 275000 287000
2020-06-15 22:45 14.67 110000 295000 (2019) 85400 (2018) 168000 86500 88100 115000 275000 287000
2020-06-15 21:45 14.75 111000 295000 (2019) 85400 (2018) 168000 86500 88100 115000 275000 287000
2020-06-15 20:45 14.79 111000 295000 (2019) 85400 (2018) 168000 86500 88100 115000 275000 287000
2020-06-15 19:45 14.79 111000 295000 (2019) 85400 (2018) 168000 86500 88100 115000 275000 287000
2020-06-15 18:45 14.88 112000 295000 (2019) 85400 (2018) 168000 86500 88100 115000 275000 287000
2020-06-15 17:45 14.92 112000 295000 (2019) 85400 (2018) 168000 86500 88100 115000 275000 287000
2020-06-15 16:45 14.95 113000 295000 (2019) 85400 (2018) 168000 86500 88100 115000 275000 287000
2020-06-15 15:45 15.01 113000 295000 (2019) 85400 (2018) 168000 86500 88100 115000 275000 287000
2020-06-15 14:45 15.05 114000 295000 (2019) 85400 (2018) 168000 86500 88100 115000 275000 287000
2020-06-15 13:45 15.07 114000 295000 (2019) 85400 (2018) 168000 86500 88100 115000 275000 287000
2020-06-15 12:45 15.15 115000 295000 (2019) 85400 (2018) 168000 86500 88100 115000 275000 287000
2020-06-15 11:45 15.17 115000 295000 (2019) 85400 (2018) 168000 86500 88100 115000 275000 287000
2020-06-15 10:45 15.26 116000 295000 (2019) 85400 (2018) 168000 86500 88100 115000 275000 287000
2020-06-15 09:45 15.29 116000 295000 (2019) 85400 (2018) 168000 86500 88100 115000 275000 287000
2020-06-15 08:45 15.35 117000 295000 (2019) 85400 (2018) 168000 86500 88100 115000 275000 287000
2020-06-15 07:45 15.40 118000 295000 (2019) 85400 (2018) 168000 86500 88100 115000 275000 287000
2020-06-15 06:45 15.45 118000 295000 (2019) 85400 (2018) 168000 86500 88100 115000 275000 287000
2020-06-15 05:45 15.51 119000 295000 (2019) 85400 (2018) 168000 86500 88100 115000 275000 287000
2020-06-15 04:45 15.53 119000 295000 (2019) 85400 (2018) 168000 86500 88100 115000 275000 287000
2020-06-15 03:45 15.59 120000 295000 (2019) 85400 (2018) 168000 86500 88100 115000 275000 287000
2020-06-15 02:45 15.63 120000 295000 (2019) 85400 (2018) 168000 86500 88100 115000 275000 287000
2020-06-15 01:45 15.63 120000 295000 (2019) 85400 (2018) 168000 86500 88100 115000 275000 287000
2020-06-15 00:45 15.74 121000 295000 (2019) 85400 (2018) 168000 86500 88100 115000 275000 287000
2020-06-14 23:45 15.74 121000 304000 (2019) 79300 (2018) 160000 81700 85300 117000 257000 285000
2020-06-14 22:45 15.77 122000 304000 (2019) 79300 (2018) 160000 81700 85300 117000 257000 285000
2020-06-14 21:45 15.81 122000 304000 (2019) 79300 (2018) 160000 81700 85300 117000 257000 285000
2020-06-14 20:45 15.87 123000 304000 (2019) 79300 (2018) 160000 81700 85300 117000 257000 285000
2020-06-14 19:45 15.90 123000 304000 (2019) 79300 (2018) 160000 81700 85300 117000 257000 285000
2020-06-14 18:45 15.94 124000 304000 (2019) 79300 (2018) 160000 81700 85300 117000 257000 285000
2020-06-14 17:45 16.00 124000 304000 (2019) 79300 (2018) 160000 81700 85300 117000 257000 285000
2020-06-14 16:45 16.03 125000 304000 (2019) 79300 (2018) 160000 81700 85300 117000 257000 285000
2020-06-14 15:45 16.03 125000 304000 (2019) 79300 (2018) 160000 81700 85300 117000 257000 285000
2020-06-14 14:45 16.10 126000 304000 (2019) 79300 (2018) 160000 81700 85300 117000 257000 285000
2020-06-14 13:45 16.08 125000 304000 (2019) 79300 (2018) 160000 81700 85300 117000 257000 285000
2020-06-14 12:45 16.10 126000 304000 (2019) 79300 (2018) 160000 81700 85300 117000 257000 285000
2020-06-14 11:45 16.12 126000 304000 (2019) 79300 (2018) 160000 81700 85300 117000 257000 285000
2020-06-14 10:45 16.10 126000 304000 (2019) 79300 (2018) 160000 81700 85300 117000 257000 285000
2020-06-14 09:45 16.12 126000 304000 (2019) 79300 (2018) 160000 81700 85300 117000 257000 285000
2020-06-14 08:45 16.16 126000 304000 (2019) 79300 (2018) 160000 81700 85300 117000 257000 285000
2020-06-14 07:45 16.12 126000 304000 (2019) 79300 (2018) 160000 81700 85300 117000 257000 285000
2020-06-14 06:45 16.15 126000 304000 (2019) 79300 (2018) 160000 81700 85300 117000 257000 285000
2020-06-14 05:45 16.13 126000 304000 (2019) 79300 (2018) 160000 81700 85300 117000 257000 285000
2020-06-14 04:45 16.12 126000 304000 (2019) 79300 (2018) 160000 81700 85300 117000 257000 285000
2020-06-14 03:45 16.12 126000 304000 (2019) 79300 (2018) 160000 81700 85300 117000 257000 285000
2020-06-14 02:45 16.09 125000 304000 (2019) 79300 (2018) 160000 81700 85300 117000 257000 285000
2020-06-14 01:45 16.09 125000 304000 (2019) 79300 (2018) 160000 81700 85300 117000 257000 285000
2020-06-14 00:45 16.06 125000 304000 (2019) 79300 (2018) 160000 81700 85300 117000 257000 285000
2020-06-13 23:45 16.08 125000 311000 (2019) 77900 (2018) 150000 80900 85300 119000 229000 278000
2020-06-13 22:45 16.07 125000 311000 (2019) 77900 (2018) 150000 80900 85300 119000 229000 278000
2020-06-13 21:45 16.08 125000 311000 (2019) 77900 (2018) 150000 80900 85300 119000 229000 278000
2020-06-13 20:45 16.06 125000 311000 (2019) 77900 (2018) 150000 80900 85300 119000 229000 278000
2020-06-13 19:45 16.01 125000 311000 (2019) 77900 (2018) 150000 80900 85300 119000 229000 278000
2020-06-13 18:45 16.02 125000 311000 (2019) 77900 (2018) 150000 80900 85300 119000 229000 278000
2020-06-13 17:45 15.99 124000 311000 (2019) 77900 (2018) 150000 80900 85300 119000 229000 278000
2020-06-13 16:45 15.98 124000 311000 (2019) 77900 (2018) 150000 80900 85300 119000 229000 278000
2020-06-13 15:45 15.95 124000 311000 (2019) 77900 (2018) 150000 80900 85300 119000 229000 278000
2020-06-13 14:45 15.91 123000 311000 (2019) 77900 (2018) 150000 80900 85300 119000 229000 278000
2020-06-13 13:45 15.91 123000 311000 (2019) 77900 (2018) 150000 80900 85300 119000 229000 278000
2020-06-13 12:45 15.93 124000 311000 (2019) 77900 (2018) 150000 80900 85300 119000 229000 278000
2020-06-13 11:45 15.91 123000 311000 (2019) 77900 (2018) 150000 80900 85300 119000 229000 278000
2020-06-13 10:45 15.84 123000 311000 (2019) 77900 (2018) 150000 80900 85300 119000 229000 278000
2020-06-13 09:45 15.86 123000 311000 (2019) 77900 (2018) 150000 80900 85300 119000 229000 278000
2020-06-13 08:45 15.87 123000 311000 (2019) 77900 (2018) 150000 80900 85300 119000 229000 278000
2020-06-13 07:45 15.86 123000 311000 (2019) 77900 (2018) 150000 80900 85300 119000 229000 278000
2020-06-13 06:45 15.90 123000 311000 (2019) 77900 (2018) 150000 80900 85300 119000 229000 278000
2020-06-13 05:45 15.92 123000 311000 (2019) 77900 (2018) 150000 80900 85300 119000 229000 278000
2020-06-13 04:45 15.90 123000 311000 (2019) 77900 (2018) 150000 80900 85300 119000 229000 278000
2020-06-13 03:45 15.91 123000 311000 (2019) 77900 (2018) 150000 80900 85300 119000 229000 278000
2020-06-13 02:45 15.91 123000 311000 (2019) 77900 (2018) 150000 80900 85300 119000 229000 278000
2020-06-13 01:45 15.92 123000 311000 (2019) 77900 (2018) 150000 80900 85300 119000 229000 278000
2020-06-13 00:45 15.91 123000 311000 (2019) 77900 (2018) 150000 80900 85300 119000 229000 278000
2020-06-12 23:45 15.95 124000 317000 (2019) 77000 (2018) 150000 80400 85600 123000 228000 281000
2020-06-12 22:45 16.01 125000 317000 (2019) 77000 (2018) 150000 80400 85600 123000 228000 281000
2020-06-12 21:45 16.06 125000 317000 (2019) 77000 (2018) 150000 80400 85600 123000 228000 281000
2020-06-12 20:45 16.07 125000 317000 (2019) 77000 (2018) 150000 80400 85600 123000 228000 281000
2020-06-12 19:45 16.12 126000 317000 (2019) 77000 (2018) 150000 80400 85600 123000 228000 281000
2020-06-12 18:45 16.12 126000 317000 (2019) 77000 (2018) 150000 80400 85600 123000 228000 281000
2020-06-12 17:45 16.16 126000 317000 (2019) 77000 (2018) 150000 80400 85600 123000 228000 281000
2020-06-12 16:45 16.24 127000 317000 (2019) 77000 (2018) 150000 80400 85600 123000 228000 281000
2020-06-12 15:45 16.27 128000 317000 (2019) 77000 (2018) 150000 80400 85600 123000 228000 281000
2020-06-12 14:45 16.32 128000 317000 (2019) 77000 (2018) 150000 80400 85600 123000 228000 281000
2020-06-12 13:45 16.32 128000 317000 (2019) 77000 (2018) 150000 80400 85600 123000 228000 281000
2020-06-12 12:45 16.44 130000 317000 (2019) 77000 (2018) 150000 80400 85600 123000 228000 281000
2020-06-12 11:45 16.50 130000 317000 (2019) 77000 (2018) 150000 80400 85600 123000 228000 281000
2020-06-12 10:45 16.54 131000 317000 (2019) 77000 (2018) 150000 80400 85600 123000 228000 281000
2020-06-12 09:45 16.62 132000 317000 (2019) 77000 (2018) 150000 80400 85600 123000 228000 281000
2020-06-12 08:45 16.72 133000 317000 (2019) 77000 (2018) 150000 80400 85600 123000 228000 281000
2020-06-12 07:45 16.79 134000 317000 (2019) 77000 (2018) 150000 80400 85600 123000 228000 281000
2020-06-12 06:45 16.85 135000 317000 (2019) 77000 (2018) 150000 80400 85600 123000 228000 281000
2020-06-12 05:45 16.98 136000 317000 (2019) 77000 (2018) 150000 80400 85600 123000 228000 281000
2020-06-12 04:45 17.08 137000 317000 (2019) 77000 (2018) 150000 80400 85600 123000 228000 281000
2020-06-12 03:45 17.17 139000 317000 (2019) 77000 (2018) 150000 80400 85600 123000 228000 281000
2020-06-12 02:45 17.22 139000 317000 (2019) 77000 (2018) 150000 80400 85600 123000 228000 281000
2020-06-12 01:45 17.33 141000 317000 (2019) 77000 (2018) 150000 80400 85600 123000 228000 281000
2020-06-12 00:45 17.42 142000 317000 (2019) 77000 (2018) 150000 80400 85600 123000 228000 281000
2020-06-11 23:45 17.57 144000 322000 (2019) 77800 (2018) 158000 81200 86400 127000 245000 291000
2020-06-11 22:45 17.63 145000 322000 (2019) 77800 (2018) 158000 81200 86400 127000 245000 291000
2020-06-11 21:45 17.81 147000 322000 (2019) 77800 (2018) 158000 81200 86400 127000 245000 291000
2020-06-11 20:45 17.91 148000 322000 (2019) 77800 (2018) 158000 81200 86400 127000 245000 291000
2020-06-11 19:45 18.02 150000 322000 (2019) 77800 (2018) 158000 81200 86400 127000 245000 291000
2020-06-11 18:45 18.19 152000 322000 (2019) 77800 (2018) 158000 81200 86400 127000 245000 291000
2020-06-11 17:45 18.35 154000 322000 (2019) 77800 (2018) 158000 81200 86400 127000 245000 291000
2020-06-11 16:45 18.46 156000 322000 (2019) 77800 (2018) 158000 81200 86400 127000 245000 291000
2020-06-11 15:45 18.65 158000 322000 (2019) 77800 (2018) 158000 81200 86400 127000 245000 291000
2020-06-11 14:45 18.79 160000 322000 (2019) 77800 (2018) 158000 81200 86400 127000 245000 291000
2020-06-11 13:45 18.93 162000 322000 (2019) 77800 (2018) 158000 81200 86400 127000 245000 291000
2020-06-11 12:45 19.10 165000 322000 (2019) 77800 (2018) 158000 81200 86400 127000 245000 291000
2020-06-11 11:45 19.30 167000 322000 (2019) 77800 (2018) 158000 81200 86400 127000 245000 291000
2020-06-11 10:45 19.48 170000 322000 (2019) 77800 (2018) 158000 81200 86400 127000 245000 291000
2020-06-11 09:45 19.61 172000 322000 (2019) 77800 (2018) 158000 81200 86400 127000 245000 291000
2020-06-11 08:45 19.74 174000 322000 (2019) 77800 (2018) 158000 81200 86400 127000 245000 291000
2020-06-11 07:45 19.90 176000 322000 (2019) 77800 (2018) 158000 81200 86400 127000 245000 291000
2020-06-11 06:45 20.05 178000 322000 (2019) 77800 (2018) 158000 81200 86400 127000 245000 291000
2020-06-11 05:45 20.18 180000 322000 (2019) 77800 (2018) 158000 81200 86400 127000 245000 291000
2020-06-11 04:45 20.22 181000 322000 (2019) 77800 (2018) 158000 81200 86400 127000 245000 291000
2020-06-11 03:45 20.40 184000 322000 (2019) 77800 (2018) 158000 81200 86400 127000 245000 291000
2020-06-11 02:45 20.48 185000 322000 (2019) 77800 (2018) 158000 81200 86400 127000 245000 291000
2020-06-11 01:45 20.61 187000 322000 (2019) 77800 (2018) 158000 81200 86400 127000 245000 291000
2020-06-11 00:45 20.69 188000 322000 (2019) 77800 (2018) 158000 81200 86400 127000 245000 291000
2020-06-10 23:45 20.78 189000 333000 (2019) 79200 (2018) 172000 82300 87100 129000 279000 311000
2020-06-10 22:45 20.83 190000 333000 (2019) 79200 (2018) 172000 82300 87100 129000 279000 311000
2020-06-10 21:45 20.88 191000 333000 (2019) 79200 (2018) 172000 82300 87100 129000 279000 311000
2020-06-10 20:45 20.94 192000 333000 (2019) 79200 (2018) 172000 82300 87100 129000 279000 311000
2020-06-10 19:45 21.01 193000 333000 (2019) 79200 (2018) 172000 82300 87100 129000 279000 311000
2020-06-10 18:45 21.06 194000 333000 (2019) 79200 (2018) 172000 82300 87100 129000 279000 311000
2020-06-10 17:45 21.10 194000 333000 (2019) 79200 (2018) 172000 82300 87100 129000 279000 311000
2020-06-10 16:45 21.17 195000 333000 (2019) 79200 (2018) 172000 82300 87100 129000 279000 311000
2020-06-10 15:45 21.23 196000 333000 (2019) 79200 (2018) 172000 82300 87100 129000 279000 311000
2020-06-10 14:45 21.28 197000 333000 (2019) 79200 (2018) 172000 82300 87100 129000 279000 311000
2020-06-10 13:45 21.28 197000 333000 (2019) 79200 (2018) 172000 82300 87100 129000 279000 311000
2020-06-10 12:45 21.40 199000 333000 (2019) 79200 (2018) 172000 82300 87100 129000 279000 311000
2020-06-10 11:45 21.36 198000 333000 (2019) 79200 (2018) 172000 82300 87100 129000 279000 311000
2020-06-10 10:45 21.43 199000 333000 (2019) 79200 (2018) 172000 82300 87100 129000 279000 311000
2020-06-10 09:45 21.46 199000 333000 (2019) 79200 (2018) 172000 82300 87100 129000 279000 311000
2020-06-10 08:45 21.47 200000 333000 (2019) 79200 (2018) 172000 82300 87100 129000 279000 311000
2020-06-10 07:45 21.47 200000 333000 (2019) 79200 (2018) 172000 82300 87100 129000 279000 311000
2020-06-10 06:45 21.50 200000 333000 (2019) 79200 (2018) 172000 82300 87100 129000 279000 311000
2020-06-10 05:45 21.44 199000 333000 (2019) 79200 (2018) 172000 82300 87100 129000 279000 311000
2020-06-10 04:45 21.28 197000 333000 (2019) 79200 (2018) 172000 82300 87100 129000 279000 311000
2020-06-10 03:45 21.29 197000 333000 (2019) 79200 (2018) 172000 82300 87100 129000 279000 311000
2020-06-10 02:45 21.13 195000 333000 (2019) 79200 (2018) 172000 82300 87100 129000 279000 311000
2020-06-10 01:45 21.09 194000 333000 (2019) 79200 (2018) 172000 82300 87100 129000 279000 311000
2020-06-10 00:45 20.95 192000 333000 (2019) 79200 (2018) 172000 82300 87100 129000 279000 311000
2020-06-09 23:45 20.90 191000 345000 (2019) 80600 (2018) 187000 83700 88200 133000 314000 332000
2020-06-09 22:45 20.75 189000 345000 (2019) 80600 (2018) 187000 83700 88200 133000 314000 332000
2020-06-09 21:45 20.66 188000 345000 (2019) 80600 (2018) 187000 83700 88200 133000 314000 332000
2020-06-09 20:45 20.48 185000 345000 (2019) 80600 (2018) 187000 83700 88200 133000 314000 332000
2020-06-09 19:45 20.30 182000 345000 (2019) 80600 (2018) 187000 83700 88200 133000 314000 332000
2020-06-09 18:45 20.10 179000 345000 (2019) 80600 (2018) 187000 83700 88200 133000 314000 332000
2020-06-09 17:45 19.88 176000 345000 (2019) 80600 (2018) 187000 83700 88200 133000 314000 332000
2020-06-09 16:45 19.65 172000 345000 (2019) 80600 (2018) 187000 83700 88200 133000 314000 332000
2020-06-09 15:45 19.33 168000 345000 (2019) 80600 (2018) 187000 83700 88200 133000 314000 332000
2020-06-09 14:45 19.09 164000 345000 (2019) 80600 (2018) 187000 83700 88200 133000 314000 332000
2020-06-09 13:45 18.79 160000 345000 (2019) 80600 (2018) 187000 83700 88200 133000 314000 332000
2020-06-09 12:45 18.56 157000 345000 (2019) 80600 (2018) 187000 83700 88200 133000 314000 332000
2020-06-09 11:45 18.24 153000 345000 (2019) 80600 (2018) 187000 83700 88200 133000 314000 332000
2020-06-09 10:45 18.06 150000 345000 (2019) 80600 (2018) 187000 83700 88200 133000 314000 332000
2020-06-09 09:45 17.82 147000 345000 (2019) 80600 (2018) 187000 83700 88200 133000 314000 332000
2020-06-09 08:45 17.70 145000 345000 (2019) 80600 (2018) 187000 83700 88200 133000 314000 332000
2020-06-09 07:45 17.50 143000 345000 (2019) 80600 (2018) 187000 83700 88200 133000 314000 332000
2020-06-09 06:45 17.44 142000 345000 (2019) 80600 (2018) 187000 83700 88200 133000 314000 332000
2020-06-09 05:45 17.38 141000 345000 (2019) 80600 (2018) 187000 83700 88200 133000 314000 332000
2020-06-09 04:45 17.37 141000 345000 (2019) 80600 (2018) 187000 83700 88200 133000 314000 332000
2020-06-09 03:45 17.44 142000 345000 (2019) 80600 (2018) 187000 83700 88200 133000 314000 332000
2020-06-09 02:45 17.53 143000 345000 (2019) 80600 (2018) 187000 83700 88200 133000 314000 332000
2020-06-09 01:45 17.62 144000 345000 (2019) 80600 (2018) 187000 83700 88200 133000 314000 332000
2020-06-09 00:45 17.68 145000 345000 (2019) 80600 (2018) 187000 83700 88200 133000 314000 332000
2020-06-08 23:45 17.79 147000 355000 (2019) 81500 (2018) 190000 84900 90000 140000 316000 339000
2020-06-08 22:45 17.86 148000 355000 (2019) 81500 (2018) 190000 84900 90000 140000 316000 339000
2020-06-08 21:45 17.97 149000 355000 (2019) 81500 (2018) 190000 84900 90000 140000 316000 339000
2020-06-08 20:45 18.03 150000 355000 (2019) 81500 (2018) 190000 84900 90000 140000 316000 339000
2020-06-08 19:45 18.17 152000 355000 (2019) 81500 (2018) 190000 84900 90000 140000 316000 339000
2020-06-08 18:45 18.26 153000 355000 (2019) 81500 (2018) 190000 84900 90000 140000 316000 339000
2020-06-08 17:45 18.35 154000 355000 (2019) 81500 (2018) 190000 84900 90000 140000 316000 339000
2020-06-08 16:45 18.42 155000 355000 (2019) 81500 (2018) 190000 84900 90000 140000 316000 339000
2020-06-08 15:45 18.53 157000 355000 (2019) 81500 (2018) 190000 84900 90000 140000 316000 339000
2020-06-08 14:45 18.54 157000 355000 (2019) 81500 (2018) 190000 84900 90000 140000 316000 339000
2020-06-08 13:45 18.62 158000 355000 (2019) 81500 (2018) 190000 84900 90000 140000 316000 339000
2020-06-08 12:45 18.75 160000 355000 (2019) 81500 (2018) 190000 84900 90000 140000 316000 339000
2020-06-08 11:45 18.82 161000 355000 (2019) 81500 (2018) 190000 84900 90000 140000 316000 339000
2020-06-08 10:45 18.90 162000 355000 (2019) 81500 (2018) 190000 84900 90000 140000 316000 339000
2020-06-08 09:45 18.95 162000 355000 (2019) 81500 (2018) 190000 84900 90000 140000 316000 339000
2020-06-08 08:45 19.06 164000 355000 (2019) 81500 (2018) 190000 84900 90000 140000 316000 339000
2020-06-08 07:45 19.11 165000 355000 (2019) 81500 (2018) 190000 84900 90000 140000 316000 339000
2020-06-08 06:45 19.17 165000 355000 (2019) 81500 (2018) 190000 84900 90000 140000 316000 339000
2020-06-08 05:45 19.24 167000 355000 (2019) 81500 (2018) 190000 84900 90000 140000 316000 339000
2020-06-08 04:45 19.30 167000 355000 (2019) 81500 (2018) 190000 84900 90000 140000 316000 339000
2020-06-08 03:45 19.38 169000 355000 (2019) 81500 (2018) 190000 84900 90000 140000 316000 339000
2020-06-08 02:45 19.46 170000 355000 (2019) 81500 (2018) 190000 84900 90000 140000 316000 339000
2020-06-08 01:45 19.51 170000 355000 (2019) 81500 (2018) 190000 84900 90000 140000 316000 339000
2020-06-08 00:45 19.52 171000 355000 (2019) 81500 (2018) 190000 84900 90000 140000 316000 339000
2020-06-07 23:45 19.62 172000 361000 (2019) 82300 (2018) 188000 86400 92600 145000 305000 339000
2020-06-07 22:45 19.68 173000 361000 (2019) 82300 (2018) 188000 86400 92600 145000 305000 339000
2020-06-07 21:45 19.77 174000 361000 (2019) 82300 (2018) 188000 86400 92600 145000 305000 339000
2020-06-07 20:45 19.77 174000 361000 (2019) 82300 (2018) 188000 86400 92600 145000 305000 339000
2020-06-07 19:45 19.92 176000 361000 (2019) 82300 (2018) 188000 86400 92600 145000 305000 339000
2020-06-07 18:45 19.88 176000 361000 (2019) 82300 (2018) 188000 86400 92600 145000 305000 339000
2020-06-07 17:45 19.88 176000 361000 (2019) 82300 (2018) 188000 86400 92600 145000 305000 339000
2020-06-07 16:45 19.96 177000 361000 (2019) 82300 (2018) 188000 86400 92600 145000 305000 339000
2020-06-07 15:45 20.02 178000 361000 (2019) 82300 (2018) 188000 86400 92600 145000 305000 339000
2020-06-07 14:45 20.09 179000 361000 (2019) 82300 (2018) 188000 86400 92600 145000 305000 339000
2020-06-07 13:45 20.15 180000 361000 (2019) 82300 (2018) 188000 86400 92600 145000 305000 339000
2020-06-07 12:45 20.22 181000 361000 (2019) 82300 (2018) 188000 86400 92600 145000 305000 339000
2020-06-07 11:45 20.29 182000 361000 (2019) 82300 (2018) 188000 86400 92600 145000 305000 339000
2020-06-07 10:45 20.27 182000 361000 (2019) 82300 (2018) 188000 86400 92600 145000 305000 339000
2020-06-07 09:45 20.33 183000 361000 (2019) 82300 (2018) 188000 86400 92600 145000 305000 339000
2020-06-07 08:45 20.47 185000 361000 (2019) 82300 (2018) 188000 86400 92600 145000 305000 339000
2020-06-07 07:45 20.47 185000 361000 (2019) 82300 (2018) 188000 86400 92600 145000 305000 339000
2020-06-07 06:45 20.53 186000 361000 (2019) 82300 (2018) 188000 86400 92600 145000 305000 339000
2020-06-07 05:45 20.59 186000 361000 (2019) 82300 (2018) 188000 86400 92600 145000 305000 339000
2020-06-07 04:45 20.68 188000 361000 (2019) 82300 (2018) 188000 86400 92600 145000 305000 339000
2020-06-07 03:45 20.69 188000 361000 (2019) 82300 (2018) 188000 86400 92600 145000 305000 339000
2020-06-07 02:45 20.73 189000 361000 (2019) 82300 (2018) 188000 86400 92600 145000 305000 339000
2020-06-07 01:45 20.75 189000 361000 (2019) 82300 (2018) 188000 86400 92600 145000 305000 339000
2020-06-07 00:45 20.86 191000 361000 (2019) 82300 (2018) 188000 86400 92600 145000 305000 339000
2020-06-06 23:45 20.94 192000 363000 (2019) 81000 (2018) 183000 86000 93500 146000 291000 334000
2020-06-06 22:45 20.97 192000 363000 (2019) 81000 (2018) 183000 86000 93500 146000 291000 334000
2020-06-06 21:45 21.10 194000 363000 (2019) 81000 (2018) 183000 86000 93500 146000 291000 334000
2020-06-06 20:45 21.12 194000 363000 (2019) 81000 (2018) 183000 86000 93500 146000 291000 334000
2020-06-06 19:45 21.20 196000 363000 (2019) 81000 (2018) 183000 86000 93500 146000 291000 334000
2020-06-06 18:45 21.18 195000 363000 (2019) 81000 (2018) 183000 86000 93500 146000 291000 334000
2020-06-06 17:45 21.22 196000 363000 (2019) 81000 (2018) 183000 86000 93500 146000 291000 334000
2020-06-06 16:45 21.24 196000 363000 (2019) 81000 (2018) 183000 86000 93500 146000 291000 334000
2020-06-06 15:45 21.32 197000 363000 (2019) 81000 (2018) 183000 86000 93500 146000 291000 334000
2020-06-06 14:45 21.37 198000 363000 (2019) 81000 (2018) 183000 86000 93500 146000 291000 334000
2020-06-06 13:45 21.40 199000 363000 (2019) 81000 (2018) 183000 86000 93500 146000 291000 334000
2020-06-06 12:45 21.46 199000 363000 (2019) 81000 (2018) 183000 86000 93500 146000 291000 334000
2020-06-06 11:45 21.52 200000 363000 (2019) 81000 (2018) 183000 86000 93500 146000 291000 334000
2020-06-06 10:45 21.52 200000 363000 (2019) 81000 (2018) 183000 86000 93500 146000 291000 334000
2020-06-06 09:45 21.56 201000 363000 (2019) 81000 (2018) 183000 86000 93500 146000 291000 334000
2020-06-06 08:45 21.65 202000 363000 (2019) 81000 (2018) 183000 86000 93500 146000 291000 334000
2020-06-06 07:45 21.60 201000 363000 (2019) 81000 (2018) 183000 86000 93500 146000 291000 334000
2020-06-06 06:45 21.66 202000 363000 (2019) 81000 (2018) 183000 86000 93500 146000 291000 334000
2020-06-06 05:45 21.74 203000 363000 (2019) 81000 (2018) 183000 86000 93500 146000 291000 334000
2020-06-06 04:45 21.73 203000 363000 (2019) 81000 (2018) 183000 86000 93500 146000 291000 334000
2020-06-06 03:45 21.75 204000 363000 (2019) 81000 (2018) 183000 86000 93500 146000 291000 334000
2020-06-06 02:45 21.78 204000 363000 (2019) 81000 (2018) 183000 86000 93500 146000 291000 334000
2020-06-06 01:45 21.77 204000 363000 (2019) 81000 (2018) 183000 86000 93500 146000 291000 334000
2020-06-06 00:45 21.77 204000 363000 (2019) 81000 (2018) 183000 86000 93500 146000 291000 334000
2020-06-05 23:45 21.69 203000 363000 (2019) 79900 (2018) 173000 85300 93400 147000 266000 324000
2020-06-05 22:45 21.74 203000 363000 (2019) 79900 (2018) 173000 85300 93400 147000 266000 324000
2020-06-05 21:45 21.72 203000 363000 (2019) 79900 (2018) 173000 85300 93400 147000 266000 324000
2020-06-05 20:45 21.75 204000 363000 (2019) 79900 (2018) 173000 85300 93400 147000 266000 324000
2020-06-05 19:45 21.69 203000 363000 (2019) 79900 (2018) 173000 85300 93400 147000 266000 324000
2020-06-05 18:45 21.68 203000 363000 (2019) 79900 (2018) 173000 85300 93400 147000 266000 324000
2020-06-05 17:45 21.66 202000 363000 (2019) 79900 (2018) 173000 85300 93400 147000 266000 324000
2020-06-05 16:45 21.75 204000 363000 (2019) 79900 (2018) 173000 85300 93400 147000 266000 324000
2020-06-05 15:45 21.65 202000 363000 (2019) 79900 (2018) 173000 85300 93400 147000 266000 324000
2020-06-05 14:45 21.63 202000 363000 (2019) 79900 (2018) 173000 85300 93400 147000 266000 324000
2020-06-05 13:45 21.69 203000 363000 (2019) 79900 (2018) 173000 85300 93400 147000 266000 324000
2020-06-05 12:45 21.62 202000 363000 (2019) 79900 (2018) 173000 85300 93400 147000 266000 324000
2020-06-05 11:45 21.61 202000 363000 (2019) 79900 (2018) 173000 85300 93400 147000 266000 324000
2020-06-05 10:45 21.60 201000 363000 (2019) 79900 (2018) 173000 85300 93400 147000 266000 324000
2020-06-05 09:45 21.61 202000 363000 (2019) 79900 (2018) 173000 85300 93400 147000 266000 324000
2020-06-05 08:45 21.58 201000 363000 (2019) 79900 (2018) 173000 85300 93400 147000 266000 324000
2020-06-05 07:45 21.53 200000 363000 (2019) 79900 (2018) 173000 85300 93400 147000 266000 324000
2020-06-05 06:45 21.52 200000 363000 (2019) 79900 (2018) 173000 85300 93400 147000 266000 324000
2020-06-05 05:45 21.46 199000 363000 (2019) 79900 (2018) 173000 85300 93400 147000 266000 324000
2020-06-05 04:45 21.41 199000 363000 (2019) 79900 (2018) 173000 85300 93400 147000 266000 324000
2020-06-05 03:45 21.33 198000 363000 (2019) 79900 (2018) 173000 85300 93400 147000 266000 324000
2020-06-05 02:45 21.29 197000 363000 (2019) 79900 (2018) 173000 85300 93400 147000 266000 324000
2020-06-05 01:45 21.25 196000 363000 (2019) 79900 (2018) 173000 85300 93400 147000 266000 324000
2020-06-05 00:45 21.13 195000 363000 (2019) 79900 (2018) 173000 85300 93400 147000 266000 324000
2020-06-04 23:45 21.04 193000 358000 (2019) 81200 (2018) 164000 87000 95600 117000 256000 317000
2020-06-04 22:45 20.83 190000 358000 (2019) 81200 (2018) 164000 87000 95600 117000 256000 317000
2020-06-04 21:45 20.74 189000 358000 (2019) 81200 (2018) 164000 87000 95600 117000 256000 317000
2020-06-04 20:45 20.52 185000 358000 (2019) 81200 (2018) 164000 87000 95600 117000 256000 317000
2020-06-04 19:45 20.39 183000 358000 (2019) 81200 (2018) 164000 87000 95600 117000 256000 317000
2020-06-04 18:45 20.23 181000 358000 (2019) 81200 (2018) 164000 87000 95600 117000 256000 317000
2020-06-04 17:45 20.04 178000 358000 (2019) 81200 (2018) 164000 87000 95600 117000 256000 317000
2020-06-04 16:45 19.82 175000 358000 (2019) 81200 (2018) 164000 87000 95600 117000 256000 317000
2020-06-04 15:45 19.59 172000 358000 (2019) 81200 (2018) 164000 87000 95600 117000 256000 317000
2020-06-04 14:45 19.39 169000 358000 (2019) 81200 (2018) 164000 87000 95600 117000 256000 317000
2020-06-04 13:45 19.18 166000 358000 (2019) 81200 (2018) 164000 87000 95600 117000 256000 317000
2020-06-04 12:45 19.08 164000 358000 (2019) 81200 (2018) 164000 87000 95600 117000 256000 317000
2020-06-04 11:45 18.87 161000 358000 (2019) 81200 (2018) 164000 87000 95600 117000 256000 317000
2020-06-04 10:45 18.73 159000 358000 (2019) 81200 (2018) 164000 87000 95600 117000 256000 317000
2020-06-04 09:45 18.62 158000 358000 (2019) 81200 (2018) 164000 87000 95600 117000 256000 317000
2020-06-04 08:45 18.59 158000 358000 (2019) 81200 (2018) 164000 87000 95600 117000 256000 317000
2020-06-04 07:45 18.51 156000 358000 (2019) 81200 (2018) 164000 87000 95600 117000 256000 317000
2020-06-04 06:45 18.54 157000 358000 (2019) 81200 (2018) 164000 87000 95600 117000 256000 317000
2020-06-04 05:45 18.59 158000 358000 (2019) 81200 (2018) 164000 87000 95600 117000 256000 317000
2020-06-04 04:45 18.61 158000 358000 (2019) 81200 (2018) 164000 87000 95600 117000 256000 317000
2020-06-04 03:45 18.59 158000 358000 (2019) 81200 (2018) 164000 87000 95600 117000 256000 317000
2020-06-04 02:45 18.68 159000 358000 (2019) 81200 (2018) 164000 87000 95600 117000 256000 317000
2020-06-04 01:45 18.69 159000 358000 (2019) 81200 (2018) 164000 87000 95600 117000 256000 317000
2020-06-04 00:45 18.82 161000 358000 (2019) 81200 (2018) 164000 87000 95600 117000 256000 317000
2020-06-03 23:45 18.83 161000 348000 (2019) 82000 (2018) 167000 89000 99500 122000 257000 312000
2020-06-03 22:45 18.96 163000 348000 (2019) 82000 (2018) 167000 89000 99500 122000 257000 312000
2020-06-03 21:45 19.04 164000 348000 (2019) 82000 (2018) 167000 89000 99500 122000 257000 312000
2020-06-03 20:45 19.11 165000 348000 (2019) 82000 (2018) 167000 89000 99500 122000 257000 312000
2020-06-03 19:45 19.19 166000 348000 (2019) 82000 (2018) 167000 89000 99500 122000 257000 312000
2020-06-03 18:45 19.30 167000 348000 (2019) 82000 (2018) 167000 89000 99500 122000 257000 312000
2020-06-03 17:45 19.43 169000 348000 (2019) 82000 (2018) 167000 89000 99500 122000 257000 312000
2020-06-03 16:45 19.47 170000 348000 (2019) 82000 (2018) 167000 89000 99500 122000 257000 312000
2020-06-03 15:45 19.60 172000 348000 (2019) 82000 (2018) 167000 89000 99500 122000 257000 312000
2020-06-03 14:45 19.70 173000 348000 (2019) 82000 (2018) 167000 89000 99500 122000 257000 312000
2020-06-03 13:45 19.80 175000 348000 (2019) 82000 (2018) 167000 89000 99500 122000 257000 312000
2020-06-03 12:45 19.93 176000 348000 (2019) 82000 (2018) 167000 89000 99500 122000 257000 312000
2020-06-03 11:45 19.99 177000 348000 (2019) 82000 (2018) 167000 89000 99500 122000 257000 312000
2020-06-03 10:45 20.07 179000 348000 (2019) 82000 (2018) 167000 89000 99500 122000 257000 312000
2020-06-03 09:45 20.20 180000 348000 (2019) 82000 (2018) 167000 89000 99500 122000 257000 312000
2020-06-03 08:45 20.22 181000 348000 (2019) 82000 (2018) 167000 89000 99500 122000 257000 312000
2020-06-03 07:45 20.40 184000 348000 (2019) 82000 (2018) 167000 89000 99500 122000 257000 312000
2020-06-03 06:45 20.46 185000 348000 (2019) 82000 (2018) 167000 89000 99500 122000 257000 312000
2020-06-03 05:45 20.53 186000 348000 (2019) 82000 (2018) 167000 89000 99500 122000 257000 312000
2020-06-03 04:45 20.68 188000 348000 (2019) 82000 (2018) 167000 89000 99500 122000 257000 312000
2020-06-03 03:45 20.79 190000 348000 (2019) 82000 (2018) 167000 89000 99500 122000 257000 312000
2020-06-03 02:45 20.87 191000 348000 (2019) 82000 (2018) 167000 89000 99500 122000 257000 312000
2020-06-03 01:45 21.03 193000 348000 (2019) 82000 (2018) 167000 89000 99500 122000 257000 312000
2020-06-03 00:45 21.14 195000 348000 (2019) 82000 (2018) 167000 89000 99500 122000 257000 312000
2020-06-02 23:45 21.26 196000 342000 (2019) 83000 (2018) 176000 91000 103000 138000 268000 312000
2020-06-02 22:45 21.39 198000 342000 (2019) 83000 (2018) 176000 91000 103000 138000 268000 312000
2020-06-02 21:45 21.46 199000 342000 (2019) 83000 (2018) 176000 91000 103000 138000 268000 312000
2020-06-02 20:45 21.59 201000 342000 (2019) 83000 (2018) 176000 91000 103000 138000 268000 312000
2020-06-02 18:45 21.81 205000 342000 (2019) 83000 (2018) 176000 91000 103000 138000 268000 312000
2020-06-02 17:45 21.97 207000 342000 (2019) 83000 (2018) 176000 91000 103000 138000 268000 312000
2020-06-02 16:45 22.05 208000 342000 (2019) 83000 (2018) 176000 91000 103000 138000 268000 312000
2020-06-02 15:45 22.11 209000 342000 (2019) 83000 (2018) 176000 91000 103000 138000 268000 312000
2020-06-02 14:45 22.25 211000 342000 (2019) 83000 (2018) 176000 91000 103000 138000 268000 312000
2020-06-02 13:45 22.32 212000 342000 (2019) 83000 (2018) 176000 91000 103000 138000 268000 312000
2020-06-02 12:45 22.37 213000 342000 (2019) 83000 (2018) 176000 91000 103000 138000 268000 312000
2020-06-02 11:45 22.58 216000 342000 (2019) 83000 (2018) 176000 91000 103000 138000 268000 312000
2020-06-02 10:45 22.71 218000 342000 (2019) 83000 (2018) 176000 91000 103000 138000 268000 312000
2020-06-02 09:45 22.72 218000 342000 (2019) 83000 (2018) 176000 91000 103000 138000 268000 312000
2020-06-02 08:45 22.81 220000 342000 (2019) 83000 (2018) 176000 91000 103000 138000 268000 312000
2020-06-02 07:45 22.93 222000 342000 (2019) 83000 (2018) 176000 91000 103000 138000 268000 312000
2020-06-02 06:45 23.08 224000 342000 (2019) 83000 (2018) 176000 91000 103000 138000 268000 312000
2020-06-02 05:45 23.13 225000 342000 (2019) 83000 (2018) 176000 91000 103000 138000 268000 312000
2020-06-02 04:45 23.21 226000 342000 (2019) 83000 (2018) 176000 91000 103000 138000 268000 312000
2020-06-02 03:45 23.34 228000 342000 (2019) 83000 (2018) 176000 91000 103000 138000 268000 312000
2020-06-02 02:45 23.35 228000 342000 (2019) 83000 (2018) 176000 91000 103000 138000 268000 312000
2020-06-02 01:45 23.45 229000 342000 (2019) 83000 (2018) 176000 91000 103000 138000 268000 312000
2020-06-02 00:45 23.53 230000 342000 (2019) 83000 (2018) 176000 91000 103000 138000 268000 312000
2020-06-01 23:45 23.59 231000 347000 (2019) 82400 (2018) 192000 91300 105000 164000 293000 326000
2020-06-01 22:45 23.63 232000 347000 (2019) 82400 (2018) 192000 91300 105000 164000 293000 326000
2020-06-01 21:45 23.67 232000 347000 (2019) 82400 (2018) 192000 91300 105000 164000 293000 326000
2020-06-01 20:45 23.81 234000 347000 (2019) 82400 (2018) 192000 91300 105000 164000 293000 326000
2020-06-01 19:45 23.67 232000 347000 (2019) 82400 (2018) 192000 91300 105000 164000 293000 326000
2020-06-01 18:45 23.82 234000 347000 (2019) 82400 (2018) 192000 91300 105000 164000 293000 326000
2020-06-01 17:45 23.88 235000 347000 (2019) 82400 (2018) 192000 91300 105000 164000 293000 326000
2020-06-01 16:45 23.97 236000 347000 (2019) 82400 (2018) 192000 91300 105000 164000 293000 326000
2020-06-01 15:45 23.99 237000 347000 (2019) 82400 (2018) 192000 91300 105000 164000 293000 326000
2020-06-01 14:45 24.02 237000 347000 (2019) 82400 (2018) 192000 91300 105000 164000 293000 326000
2020-06-01 13:45 24.09 238000 347000 (2019) 82400 (2018) 192000 91300 105000 164000 293000 326000
2020-06-01 12:45 24.15 239000 347000 (2019) 82400 (2018) 192000 91300 105000 164000 293000 326000
2020-06-01 11:45 24.25 240000 347000 (2019) 82400 (2018) 192000 91300 105000 164000 293000 326000
2020-06-01 10:45 24.26 240000 347000 (2019) 82400 (2018) 192000 91300 105000 164000 293000 326000
2020-06-01 09:45 24.35 242000 347000 (2019) 82400 (2018) 192000 91300 105000 164000 293000 326000
2020-06-01 08:45 24.43 243000 347000 (2019) 82400 (2018) 192000 91300 105000 164000 293000 326000
2020-06-01 07:45 24.44 243000 347000 (2019) 82400 (2018) 192000 91300 105000 164000 293000 326000
2020-06-01 06:45 24.61 246000 347000 (2019) 82400 (2018) 192000 91300 105000 164000 293000 326000
2020-06-01 05:45 24.61 246000 347000 (2019) 82400 (2018) 192000 91300 105000 164000 293000 326000
2020-06-01 04:45 24.65 246000 347000 (2019) 82400 (2018) 192000 91300 105000 164000 293000 326000
2020-06-01 03:45 24.73 247000 347000 (2019) 82400 (2018) 192000 91300 105000 164000 293000 326000
2020-06-01 02:45 24.77 248000 347000 (2019) 82400 (2018) 192000 91300 105000 164000 293000 326000
2020-06-01 01:45 24.80 248000 347000 (2019) 82400 (2018) 192000 91300 105000 164000 293000 326000
2020-06-01 00:45 24.84 249000 347000 (2019) 82400 (2018) 192000 91300 105000 164000 293000 326000
2020-05-31 23:45 24.92 250000 347000 (2019) 81300 (2018) 205000 91400 107000 193000 309000 332000
2020-05-31 22:45 24.93 250000 347000 (2019) 81300 (2018) 205000 91400 107000 193000 309000 332000
2020-05-31 21:45 24.94 250000 347000 (2019) 81300 (2018) 205000 91400 107000 193000 309000 332000
2020-05-31 20:45 24.94 250000 347000 (2019) 81300 (2018) 205000 91400 107000 193000 309000 332000
2020-05-31 19:45 24.90 250000 347000 (2019) 81300 (2018) 205000 91400 107000 193000 309000 332000
2020-05-31 18:45 25.03 252000 347000 (2019) 81300 (2018) 205000 91400 107000 193000 309000 332000
2020-05-31 17:45 25.07 252000 347000 (2019) 81300 (2018) 205000 91400 107000 193000 309000 332000
2020-05-31 16:45 25.05 252000 347000 (2019) 81300 (2018) 205000 91400 107000 193000 309000 332000
2020-05-31 15:45 25.04 252000 347000 (2019) 81300 (2018) 205000 91400 107000 193000 309000 332000
2020-05-31 14:45 25.09 252000 347000 (2019) 81300 (2018) 205000 91400 107000 193000 309000 332000
2020-05-31 13:45 25.06 252000 347000 (2019) 81300 (2018) 205000 91400 107000 193000 309000 332000
2020-05-31 12:45 25.11 253000 347000 (2019) 81300 (2018) 205000 91400 107000 193000 309000 332000
2020-05-31 11:45 25.12 253000 347000 (2019) 81300 (2018) 205000 91400 107000 193000 309000 332000
2020-05-31 10:45 25.09 252000 347000 (2019) 81300 (2018) 205000 91400 107000 193000 309000 332000
2020-05-31 09:45 25.22 254000 347000 (2019) 81300 (2018) 205000 91400 107000 193000 309000 332000
2020-05-31 08:45 25.18 254000 347000 (2019) 81300 (2018) 205000 91400 107000 193000 309000 332000
2020-05-31 07:45 25.17 253000 347000 (2019) 81300 (2018) 205000 91400 107000 193000 309000 332000
2020-05-31 06:45 25.09 252000 347000 (2019) 81300 (2018) 205000 91400 107000 193000 309000 332000
2020-05-31 05:45 25.16 253000 347000 (2019) 81300 (2018) 205000 91400 107000 193000 309000 332000
2020-05-31 04:45 25.07 252000 347000 (2019) 81300 (2018) 205000 91400 107000 193000 309000 332000
2020-05-31 03:45 25.22 254000 347000 (2019) 81300 (2018) 205000 91400 107000 193000 309000 332000
2020-05-31 02:45 25.14 253000 347000 (2019) 81300 (2018) 205000 91400 107000 193000 309000 332000
2020-05-31 01:45 25.19 254000 347000 (2019) 81300 (2018) 205000 91400 107000 193000 309000 332000
2020-05-31 00:45 25.18 254000 347000 (2019) 81300 (2018) 205000 91400 107000 193000 309000 332000
2020-05-30 23:45 25.18 254000 346000 (2019) 82700 (2018) 208000 93400 109000 212000 305000 330000
2020-05-30 22:45 25.17 253000 346000 (2019) 82700 (2018) 208000 93400 109000 212000 305000 330000
2020-05-30 21:45 25.21 254000 346000 (2019) 82700 (2018) 208000 93400 109000 212000 305000 330000
2020-05-30 20:45 25.09 252000 346000 (2019) 82700 (2018) 208000 93400 109000 212000 305000 330000
2020-05-30 19:45 25.21 254000 346000 (2019) 82700 (2018) 208000 93400 109000 212000 305000 330000
2020-05-30 18:45 25.18 254000 346000 (2019) 82700 (2018) 208000 93400 109000 212000 305000 330000
2020-05-30 17:45 25.20 254000 346000 (2019) 82700 (2018) 208000 93400 109000 212000 305000 330000
2020-05-30 16:45 25.14 253000 346000 (2019) 82700 (2018) 208000 93400 109000 212000 305000 330000
2020-05-30 15:45 25.18 254000 346000 (2019) 82700 (2018) 208000 93400 109000 212000 305000 330000
2020-05-30 14:45 25.02 251000 346000 (2019) 82700 (2018) 208000 93400 109000 212000 305000 330000
2020-05-30 13:45 25.03 252000 346000 (2019) 82700 (2018) 208000 93400 109000 212000 305000 330000
2020-05-30 12:45 24.97 251000 346000 (2019) 82700 (2018) 208000 93400 109000 212000 305000 330000
2020-05-30 11:45 25.00 251000 346000 (2019) 82700 (2018) 208000 93400 109000 212000 305000 330000
2020-05-30 10:45 24.92 250000 346000 (2019) 82700 (2018) 208000 93400 109000 212000 305000 330000
2020-05-30 09:45 24.91 250000 346000 (2019) 82700 (2018) 208000 93400 109000 212000 305000 330000
2020-05-30 08:45 24.81 248000 346000 (2019) 82700 (2018) 208000 93400 109000 212000 305000 330000
2020-05-30 07:45 24.73 247000 346000 (2019) 82700 (2018) 208000 93400 109000 212000 305000 330000
2020-05-30 06:45 24.73 247000 346000 (2019) 82700 (2018) 208000 93400 109000 212000 305000 330000
2020-05-30 05:45 24.59 245000 346000 (2019) 82700 (2018) 208000 93400 109000 212000 305000 330000
2020-05-30 04:45 24.51 244000 346000 (2019) 82700 (2018) 208000 93400 109000 212000 305000 330000
2020-05-30 03:45 24.44 243000 346000 (2019) 82700 (2018) 208000 93400 109000 212000 305000 330000
2020-05-30 02:45 24.41 243000 346000 (2019) 82700 (2018) 208000 93400 109000 212000 305000 330000
2020-05-30 01:45 24.45 243000 346000 (2019) 82700 (2018) 208000 93400 109000 212000 305000 330000
2020-05-30 00:45 24.29 241000 346000 (2019) 82700 (2018) 208000 93400 109000 212000 305000 330000
2020-05-29 23:45 24.23 240000 344000 (2019) 83300 (2018) 204000 94000 110000 210000 296000 325000
2020-05-29 22:45 24.15 239000 344000 (2019) 83300 (2018) 204000 94000 110000 210000 296000 325000
2020-05-29 21:45 24.08 238000 344000 (2019) 83300 (2018) 204000 94000 110000 210000 296000 325000
2020-05-29 20:45 24.03 237000 344000 (2019) 83300 (2018) 204000 94000 110000 210000 296000 325000
2020-05-29 19:45 23.87 235000 344000 (2019) 83300 (2018) 204000 94000 110000 210000 296000 325000
2020-05-29 18:45 23.87 235000 344000 (2019) 83300 (2018) 204000 94000 110000 210000 296000 325000
2020-05-29 17:45 23.75 233000 344000 (2019) 83300 (2018) 204000 94000 110000 210000 296000 325000
2020-05-29 16:45 23.64 232000 344000 (2019) 83300 (2018) 204000 94000 110000 210000 296000 325000
2020-05-29 15:45 23.59 231000 344000 (2019) 83300 (2018) 204000 94000 110000 210000 296000 325000
2020-05-29 14:45 23.56 231000 344000 (2019) 83300 (2018) 204000 94000 110000 210000 296000 325000
2020-05-29 13:45 23.41 229000 344000 (2019) 83300 (2018) 204000 94000 110000 210000 296000 325000
2020-05-29 12:45 23.32 228000 344000 (2019) 83300 (2018) 204000 94000 110000 210000 296000 325000
2020-05-29 11:45 23.31 227000 344000 (2019) 83300 (2018) 204000 94000 110000 210000 296000 325000
2020-05-29 10:45 23.24 226000 344000 (2019) 83300 (2018) 204000 94000 110000 210000 296000 325000
2020-05-29 09:45 23.14 225000 344000 (2019) 83300 (2018) 204000 94000 110000 210000 296000 325000
2020-05-29 08:45 23.07 224000 344000 (2019) 83300 (2018) 204000 94000 110000 210000 296000 325000
2020-05-29 07:45 23.01 223000 344000 (2019) 83300 (2018) 204000 94000 110000 210000 296000 325000
2020-05-29 06:45 23.00 223000 344000 (2019) 83300 (2018) 204000 94000 110000 210000 296000 325000
2020-05-29 05:45 22.74 219000 344000 (2019) 83300 (2018) 204000 94000 110000 210000 296000 325000
2020-05-29 04:45 22.77 219000 344000 (2019) 83300 (2018) 204000 94000 110000 210000 296000 325000
2020-05-29 03:45 22.62 217000 344000 (2019) 83300 (2018) 204000 94000 110000 210000 296000 325000
2020-05-29 02:45 22.60 216000 344000 (2019) 83300 (2018) 204000 94000 110000 210000 296000 325000
2020-05-29 01:45 22.50 215000 344000 (2019) 83300 (2018) 204000 94000 110000 210000 296000 325000
2020-05-29 00:45 22.41 214000 344000 (2019) 83300 (2018) 204000 94000 110000 210000 296000 325000
2020-05-28 23:45 22.39 213000 344000 (2019) 85100 (2018) 194000 96300 113000 199000 274000 316000
2020-05-28 22:45 22.28 212000 344000 (2019) 85100 (2018) 194000 96300 113000 199000 274000 316000
2020-05-28 21:45 22.29 212000 344000 (2019) 85100 (2018) 194000 96300 113000 199000 274000 316000
2020-05-28 20:45 22.19 210000 344000 (2019) 85100 (2018) 194000 96300 113000 199000 274000 316000
2020-05-28 19:45 22.28 212000 344000 (2019) 85100 (2018) 194000 96300 113000 199000 274000 316000
2020-05-28 18:45 22.09 209000 344000 (2019) 85100 (2018) 194000 96300 113000 199000 274000 316000
2020-05-28 17:45 22.10 209000 344000 (2019) 85100 (2018) 194000 96300 113000 199000 274000 316000
2020-05-28 16:45 21.98 207000 344000 (2019) 85100 (2018) 194000 96300 113000 199000 274000 316000
2020-05-28 15:45 21.80 204000 344000 (2019) 85100 (2018) 194000 96300 113000 199000 274000 316000
2020-05-28 14:45 21.74 203000 344000 (2019) 85100 (2018) 194000 96300 113000 199000 274000 316000
2020-05-28 13:45 21.63 202000 344000 (2019) 85100 (2018) 194000 96300 113000 199000 274000 316000
2020-05-28 12:45 21.52 200000 344000 (2019) 85100 (2018) 194000 96300 113000 199000 274000 316000
2020-05-28 11:45 21.48 200000 344000 (2019) 85100 (2018) 194000 96300 113000 199000 274000 316000
2020-05-28 10:45 21.39 198000 344000 (2019) 85100 (2018) 194000 96300 113000 199000 274000 316000
2020-05-28 09:45 21.32 197000 344000 (2019) 85100 (2018) 194000 96300 113000 199000 274000 316000
2020-05-28 08:45 21.31 197000 344000 (2019) 85100 (2018) 194000 96300 113000 199000 274000 316000
2020-05-28 07:45 21.12 194000 344000 (2019) 85100 (2018) 194000 96300 113000 199000 274000 316000
2020-05-28 06:45 21.03 193000 344000 (2019) 85100 (2018) 194000 96300 113000 199000 274000 316000
2020-05-28 05:45 20.97 192000 344000 (2019) 85100 (2018) 194000 96300 113000 199000 274000 316000
2020-05-28 04:45 20.87 191000 344000 (2019) 85100 (2018) 194000 96300 113000 199000 274000 316000
2020-05-28 03:45 20.73 189000 344000 (2019) 85100 (2018) 194000 96300 113000 199000 274000 316000
2020-05-28 02:45 20.63 187000 344000 (2019) 85100 (2018) 194000 96300 113000 199000 274000 316000
2020-05-28 01:45 20.52 185000 344000 (2019) 85100 (2018) 194000 96300 113000 199000 274000 316000
2020-05-28 00:45 20.37 183000 344000 (2019) 85100 (2018) 194000 96300 113000 199000 274000 316000
2020-05-27 23:45 20.19 180000 343000 (2019) 90300 (2018) 182000 99000 112000 140000 272000 315000
2020-05-27 22:45 20.11 179000 343000 (2019) 90300 (2018) 182000 99000 112000 140000 272000 315000
2020-05-27 21:45 19.90 176000 343000 (2019) 90300 (2018) 182000 99000 112000 140000 272000 315000
2020-05-27 20:45 19.88 176000 343000 (2019) 90300 (2018) 182000 99000 112000 140000 272000 315000
2020-05-27 19:45 19.71 173000 343000 (2019) 90300 (2018) 182000 99000 112000 140000 272000 315000
2020-05-27 18:45 19.62 172000 343000 (2019) 90300 (2018) 182000 99000 112000 140000 272000 315000
2020-05-27 17:45 19.48 170000 343000 (2019) 90300 (2018) 182000 99000 112000 140000 272000 315000
2020-05-27 16:45 19.38 169000 343000 (2019) 90300 (2018) 182000 99000 112000 140000 272000 315000
2020-05-27 15:45 19.28 167000 343000 (2019) 90300 (2018) 182000 99000 112000 140000 272000 315000
2020-05-27 14:45 19.13 165000 343000 (2019) 90300 (2018) 182000 99000 112000 140000 272000 315000
2020-05-27 13:45 19.03 164000 343000 (2019) 90300 (2018) 182000 99000 112000 140000 272000 315000
2020-05-27 12:45 18.88 153000 343000 (2019) 90300 (2018) 182000 99000 112000 140000 272000 315000
2020-05-27 11:45 18.76 151000 343000 (2019) 90300 (2018) 182000 99000 112000 140000 272000 315000
2020-05-27 10:45 18.62 149000 343000 (2019) 90300 (2018) 182000 99000 112000 140000 272000 315000
2020-05-27 09:45 18.54 148000 343000 (2019) 90300 (2018) 182000 99000 112000 140000 272000 315000
2020-05-27 08:45 18.36 146000 343000 (2019) 90300 (2018) 182000 99000 112000 140000 272000 315000
2020-05-27 07:45 18.26 145000 343000 (2019) 90300 (2018) 182000 99000 112000 140000 272000 315000
2020-05-27 06:45 18.19 144000 343000 (2019) 90300 (2018) 182000 99000 112000 140000 272000 315000
2020-05-27 05:45 17.99 141000 343000 (2019) 90300 (2018) 182000 99000 112000 140000 272000 315000
2020-05-27 04:45 17.89 140000 343000 (2019) 90300 (2018) 182000 99000 112000 140000 272000 315000
2020-05-27 03:45 17.85 139000 343000 (2019) 90300 (2018) 182000 99000 112000 140000 272000 315000
2020-05-27 02:45 17.69 137000 343000 (2019) 90300 (2018) 182000 99000 112000 140000 272000 315000
2020-05-27 01:45 17.54 135000 343000 (2019) 90300 (2018) 182000 99000 112000 140000 272000 315000
2020-05-27 00:45 17.46 134000 343000 (2019) 90300 (2018) 182000 99000 112000 140000 272000 315000
2020-05-26 23:45 17.33 133000 346000 (2019) 89900 (2018) 180000 95100 103000 148000 274000 317000
2020-05-26 22:45 17.21 131000 346000 (2019) 89900 (2018) 180000 95100 103000 148000 274000 317000
2020-05-26 21:45 17.09 130000 346000 (2019) 89900 (2018) 180000 95100 103000 148000 274000 317000
2020-05-26 20:45 16.94 128000 346000 (2019) 89900 (2018) 180000 95100 103000 148000 274000 317000
2020-05-26 19:45 16.73 126000 346000 (2019) 89900 (2018) 180000 95100 103000 148000 274000 317000
2020-05-26 18:45 16.56 124000 346000 (2019) 89900 (2018) 180000 95100 103000 148000 274000 317000
2020-05-26 17:45 16.45 122000 346000 (2019) 89900 (2018) 180000 95100 103000 148000 274000 317000
2020-05-26 16:45 16.22 120000 346000 (2019) 89900 (2018) 180000 95100 103000 148000 274000 317000
2020-05-26 15:45 16.02 118000 346000 (2019) 89900 (2018) 180000 95100 103000 148000 274000 317000
2020-05-26 14:45 15.83 116000 346000 (2019) 89900 (2018) 180000 95100 103000 148000 274000 317000
2020-05-26 13:45 15.60 113000 346000 (2019) 89900 (2018) 180000 95100 103000 148000 274000 317000
2020-05-26 12:45 15.43 111000 346000 (2019) 89900 (2018) 180000 95100 103000 148000 274000 317000
2020-05-26 11:45 15.31 110000 346000 (2019) 89900 (2018) 180000 95100 103000 148000 274000 317000
2020-05-26 10:45 15.06 108000 346000 (2019) 89900 (2018) 180000 95100 103000 148000 274000 317000
2020-05-26 09:45 14.84 106000 346000 (2019) 89900 (2018) 180000 95100 103000 148000 274000 317000
2020-05-26 08:45 14.68 104000 346000 (2019) 89900 (2018) 180000 95100 103000 148000 274000 317000
2020-05-26 07:45 14.53 103000 346000 (2019) 89900 (2018) 180000 95100 103000 148000 274000 317000
2020-05-26 06:45 14.31 101000 346000 (2019) 89900 (2018) 180000 95100 103000 148000 274000 317000
2020-05-26 05:45 14.20 99600 346000 (2019) 89900 (2018) 180000 95100 103000 148000 274000 317000
2020-05-26 04:45 14.05 98300 346000 (2019) 89900 (2018) 180000 95100 103000 148000 274000 317000
2020-05-26 03:45 13.92 97200 346000 (2019) 89900 (2018) 180000 95100 103000 148000 274000 317000
2020-05-26 02:45 13.79 96100 346000 (2019) 89900 (2018) 180000 95100 103000 148000 274000 317000
2020-05-26 01:45 13.69 95200 346000 (2019) 89900 (2018) 180000 95100 103000 148000 274000 317000
2020-05-26 00:45 13.53 93800 346000 (2019) 89900 (2018) 180000 95100 103000 148000 274000 317000
2020-05-25 23:45 13.44 93000 351000 (2019) 89000 (2018) 174000 93600 101000 150000 260000 315000
2020-05-25 22:45 13.33 92100 351000 (2019) 89000 (2018) 174000 93600 101000 150000 260000 315000
2020-05-25 21:45 13.23 91300 351000 (2019) 89000 (2018) 174000 93600 101000 150000 260000 315000
2020-05-25 20:45 13.14 90500 351000 (2019) 89000 (2018) 174000 93600 101000 150000 260000 315000
2020-05-25 19:45 13.06 89900 351000 (2019) 89000 (2018) 174000 93600 101000 150000 260000 315000
2020-05-25 18:45 12.99 89300 351000 (2019) 89000 (2018) 174000 93600 101000 150000 260000 315000
2020-05-25 17:45 12.92 88700 351000 (2019) 89000 (2018) 174000 93600 101000 150000 260000 315000
2020-05-25 16:45 12.85 88100 351000 (2019) 89000 (2018) 174000 93600 101000 150000 260000 315000
2020-05-25 15:45 12.78 87600 351000 (2019) 89000 (2018) 174000 93600 101000 150000 260000 315000
2020-05-25 14:45 12.74 87200 351000 (2019) 89000 (2018) 174000 93600 101000 150000 260000 315000
2020-05-25 13:45 12.67 86700 351000 (2019) 89000 (2018) 174000 93600 101000 150000 260000 315000
2020-05-25 12:45 12.64 86400 351000 (2019) 89000 (2018) 174000 93600 101000 150000 260000 315000
2020-05-25 11:45 12.62 86300 351000 (2019) 89000 (2018) 174000 93600 101000 150000 260000 315000
2020-05-25 10:45 12.58 86000 351000 (2019) 89000 (2018) 174000 93600 101000 150000 260000 315000
2020-05-25 09:45 12.58 86000 351000 (2019) 89000 (2018) 174000 93600 101000 150000 260000 315000
2020-05-25 08:45 12.53 85600 351000 (2019) 89000 (2018) 174000 93600 101000 150000 260000 315000
2020-05-25 07:45 12.54 85600 351000 (2019) 89000 (2018) 174000 93600 101000 150000 260000 315000
2020-05-25 06:45 12.54 85600 351000 (2019) 89000 (2018) 174000 93600 101000 150000 260000 315000
2020-05-25 05:45 12.53 85600 351000 (2019) 89000 (2018) 174000 93600 101000 150000 260000 315000
2020-05-25 04:45 12.53 85600 351000 (2019) 89000 (2018) 174000 93600 101000 150000 260000 315000
2020-05-25 03:45 12.54 85600 351000 (2019) 89000 (2018) 174000 93600 101000 150000 260000 315000
2020-05-25 02:45 12.55 85700 351000 (2019) 89000 (2018) 174000 93600 101000 150000 260000 315000
2020-05-25 01:45 12.56 85800 351000 (2019) 89000 (2018) 174000 93600 101000 150000 260000 315000
2020-05-25 00:45 12.52 85500 351000 (2019) 89000 (2018) 174000 93600 101000 150000 260000 315000
2020-05-24 23:45 12.54 85600 352000 (2019) 88900 (2018) 174000 92700 98500 136000 270000 319000
2020-05-24 22:45 12.55 85700 352000 (2019) 88900 (2018) 174000 92700 98500 136000 270000 319000
2020-05-24 21:45 12.57 85900 352000 (2019) 88900 (2018) 174000 92700 98500 136000 270000 319000
2020-05-24 20:45 12.58 86000 352000 (2019) 88900 (2018) 174000 92700 98500 136000 270000 319000
2020-05-24 19:45 12.59 86000 352000 (2019) 88900 (2018) 174000 92700 98500 136000 270000 319000
2020-05-24 18:45 12.59 86000 352000 (2019) 88900 (2018) 174000 92700 98500 136000 270000 319000
2020-05-24 17:45 12.65 86500 352000 (2019) 88900 (2018) 174000 92700 98500 136000 270000 319000
2020-05-24 16:45 12.63 86400 352000 (2019) 88900 (2018) 174000 92700 98500 136000 270000 319000
2020-05-24 15:45 12.66 86600 352000 (2019) 88900 (2018) 174000 92700 98500 136000 270000 319000
2020-05-24 14:45 12.66 86600 352000 (2019) 88900 (2018) 174000 92700 98500 136000 270000 319000
2020-05-24 13:45 12.68 86800 352000 (2019) 88900 (2018) 174000 92700 98500 136000 270000 319000
2020-05-24 12:45 12.68 86800 352000 (2019) 88900 (2018) 174000 92700 98500 136000 270000 319000
2020-05-24 11:45 12.67 86700 352000 (2019) 88900 (2018) 174000 92700 98500 136000 270000 319000
2020-05-24 10:45 12.71 87000 352000 (2019) 88900 (2018) 174000 92700 98500 136000 270000 319000
2020-05-24 09:45 12.70 86900 352000 (2019) 88900 (2018) 174000 92700 98500 136000 270000 319000
2020-05-24 08:45 12.72 87100 352000 (2019) 88900 (2018) 174000 92700 98500 136000 270000 319000
2020-05-24 07:45 12.73 87200 352000 (2019) 88900 (2018) 174000 92700 98500 136000 270000 319000
2020-05-24 06:45 12.72 87100 352000 (2019) 88900 (2018) 174000 92700 98500 136000 270000 319000
2020-05-24 05:45 12.76 87400 352000 (2019) 88900 (2018) 174000 92700 98500 136000 270000 319000
2020-05-24 04:45 12.76 87400 352000 (2019) 88900 (2018) 174000 92700 98500 136000 270000 319000
2020-05-24 03:45 12.75 87300 352000 (2019) 88900 (2018) 174000 92700 98500 136000 270000 319000
2020-05-24 02:45 12.74 87200 352000 (2019) 88900 (2018) 174000 92700 98500 136000 270000 319000
2020-05-24 01:45 12.78 87600 352000 (2019) 88900 (2018) 174000 92700 98500 136000 270000 319000
2020-05-24 00:45 12.81 87800 352000 (2019) 88900 (2018) 174000 92700 98500 136000 270000 319000
2020-05-23 23:45 12.79 87600 335000 (2019) 91200 (2018) 176000 94600 99600 158000 261000 305000
2020-05-23 22:45 12.82 87900 335000 (2019) 91200 (2018) 176000 94600 99600 158000 261000 305000
2020-05-23 21:45 12.83 88000 335000 (2019) 91200 (2018) 176000 94600 99600 158000 261000 305000
2020-05-23 20:45 12.86 88200 335000 (2019) 91200 (2018) 176000 94600 99600 158000 261000 305000
2020-05-23 19:45 12.83 88000 335000 (2019) 91200 (2018) 176000 94600 99600 158000 261000 305000
2020-05-23 18:45 12.87 88300 335000 (2019) 91200 (2018) 176000 94600 99600 158000 261000 305000
2020-05-23 17:45 12.92 88700 335000 (2019) 91200 (2018) 176000 94600 99600 158000 261000 305000
2020-05-23 16:45 12.90 88500 335000 (2019) 91200 (2018) 176000 94600 99600 158000 261000 305000
2020-05-23 15:45 12.96 89000 335000 (2019) 91200 (2018) 176000 94600 99600 158000 261000 305000
2020-05-23 14:45 12.96 89000 335000 (2019) 91200 (2018) 176000 94600 99600 158000 261000 305000
2020-05-23 13:45 12.92 88700 335000 (2019) 91200 (2018) 176000 94600 99600 158000 261000 305000
2020-05-23 12:45 12.97 89100 335000 (2019) 91200 (2018) 176000 94600 99600 158000 261000 305000
2020-05-23 11:45 13.00 89400 335000 (2019) 91200 (2018) 176000 94600 99600 158000 261000 305000
2020-05-23 10:45 13.03 89600 335000 (2019) 91200 (2018) 176000 94600 99600 158000 261000 305000
2020-05-23 09:45 13.09 90100 335000 (2019) 91200 (2018) 176000 94600 99600 158000 261000 305000
2020-05-23 08:45 13.09 90100 335000 (2019) 91200 (2018) 176000 94600 99600 158000 261000 305000
2020-05-23 07:45 13.15 90600 335000 (2019) 91200 (2018) 176000 94600 99600 158000 261000 305000
2020-05-23 06:45 13.18 90800 335000 (2019) 91200 (2018) 176000 94600 99600 158000 261000 305000
2020-05-23 05:45 13.22 91200 335000 (2019) 91200 (2018) 176000 94600 99600 158000 261000 305000
2020-05-23 04:45 13.22 91200 335000 (2019) 91200 (2018) 176000 94600 99600 158000 261000 305000
2020-05-23 03:45 13.24 91300 335000 (2019) 91200 (2018) 176000 94600 99600 158000 261000 305000
2020-05-23 02:45 13.27 91600 335000 (2019) 91200 (2018) 176000 94600 99600 158000 261000 305000
2020-05-23 01:45 13.32 92000 335000 (2019) 91200 (2018) 176000 94600 99600 158000 261000 305000
2020-05-23 00:45 13.33 92100 335000 (2019) 91200 (2018) 176000 94600 99600 158000 261000 305000
2020-05-22 23:45 13.36 92400 302000 (2019) 96700 (2018) 174000 99600 104000 175000 243000 278000
2020-05-22 22:45 13.41 92700 302000 (2019) 96700 (2018) 174000 99600 104000 175000 243000 278000
2020-05-22 21:45 13.43 92900 302000 (2019) 96700 (2018) 174000 99600 104000 175000 243000 278000
2020-05-22 20:45 13.45 93100 302000 (2019) 96700 (2018) 174000 99600 104000 175000 243000 278000
2020-05-22 19:45 13.48 93400 302000 (2019) 96700 (2018) 174000 99600 104000 175000 243000 278000
2020-05-22 18:45 13.54 93900 302000 (2019) 96700 (2018) 174000 99600 104000 175000 243000 278000
2020-05-22 17:45 13.59 94300 302000 (2019) 96700 (2018) 174000 99600 104000 175000 243000 278000
2020-05-22 16:45 13.66 94900 302000 (2019) 96700 (2018) 174000 99600 104000 175000 243000 278000
2020-05-22 15:45 13.68 95100 302000 (2019) 96700 (2018) 174000 99600 104000 175000 243000 278000
2020-05-22 14:45 13.69 95200 302000 (2019) 96700 (2018) 174000 99600 104000 175000 243000 278000
2020-05-22 13:45 13.69 95200 302000 (2019) 96700 (2018) 174000 99600 104000 175000 243000 278000
2020-05-22 12:45 13.75 95700 302000 (2019) 96700 (2018) 174000 99600 104000 175000 243000 278000
2020-05-22 11:45 13.77 95900 302000 (2019) 96700 (2018) 174000 99600 104000 175000 243000 278000
2020-05-22 10:45 13.85 96600 302000 (2019) 96700 (2018) 174000 99600 104000 175000 243000 278000
2020-05-22 09:45 13.84 96500 302000 (2019) 96700 (2018) 174000 99600 104000 175000 243000 278000
2020-05-22 08:45 13.86 96700 302000 (2019) 96700 (2018) 174000 99600 104000 175000 243000 278000
2020-05-22 07:45 13.89 96900 302000 (2019) 96700 (2018) 174000 99600 104000 175000 243000 278000
2020-05-22 06:45 13.94 97300 302000 (2019) 96700 (2018) 174000 99600 104000 175000 243000 278000
2020-05-22 05:45 13.96 97500 302000 (2019) 96700 (2018) 174000 99600 104000 175000 243000 278000
2020-05-22 04:45 14.00 97900 302000 (2019) 96700 (2018) 174000 99600 104000 175000 243000 278000
2020-05-22 03:45 14.07 98500 302000 (2019) 96700 (2018) 174000 99600 104000 175000 243000 278000
2020-05-22 02:45 14.09 98700 302000 (2019) 96700 (2018) 174000 99600 104000 175000 243000 278000
2020-05-22 01:45 14.09 98700 302000 (2019) 96700 (2018) 174000 99600 104000 175000 243000 278000
2020-05-22 00:45 14.14 99100 302000 (2019) 96700 (2018) 174000 99600 104000 175000 243000 278000
2020-05-21 23:45 14.18 99500 260000 (2019) 90800 (2018) 166000 95800 103000 163000 229000 248000
2020-05-21 22:45 14.25 100000 260000 (2019) 90800 (2018) 166000 95800 103000 163000 229000 248000
2020-05-21 21:45 14.25 100000 260000 (2019) 90800 (2018) 166000 95800 103000 163000 229000 248000
2020-05-21 20:45 14.32 101000 260000 (2019) 90800 (2018) 166000 95800 103000 163000 229000 248000
2020-05-21 19:45 14.34 101000 260000 (2019) 90800 (2018) 166000 95800 103000 163000 229000 248000
2020-05-21 18:45 14.39 101000 260000 (2019) 90800 (2018) 166000 95800 103000 163000 229000 248000
2020-05-21 17:45 14.44 102000 260000 (2019) 90800 (2018) 166000 95800 103000 163000 229000 248000
2020-05-21 16:45 14.45 102000 260000 (2019) 90800 (2018) 166000 95800 103000 163000 229000 248000
2020-05-21 15:45 14.49 102000 260000 (2019) 90800 (2018) 166000 95800 103000 163000 229000 248000
2020-05-21 14:45 14.50 102000 260000 (2019) 90800 (2018) 166000 95800 103000 163000 229000 248000
2020-05-21 13:45 14.56 103000 260000 (2019) 90800 (2018) 166000 95800 103000 163000 229000 248000
2020-05-21 12:45 14.59 103000 260000 (2019) 90800 (2018) 166000 95800 103000 163000 229000 248000
2020-05-21 11:45 14.61 103000 260000 (2019) 90800 (2018) 166000 95800 103000 163000 229000 248000
2020-05-21 10:45 14.67 104000 260000 (2019) 90800 (2018) 166000 95800 103000 163000 229000 248000
2020-05-21 09:45 14.67 104000 260000 (2019) 90800 (2018) 166000 95800 103000 163000 229000 248000
2020-05-21 08:45 14.70 104000 260000 (2019) 90800 (2018) 166000 95800 103000 163000 229000 248000
2020-05-21 07:45 14.76 105000 260000 (2019) 90800 (2018) 166000 95800 103000 163000 229000 248000
2020-05-21 06:45 14.75 105000 260000 (2019) 90800 (2018) 166000 95800 103000 163000 229000 248000
2020-05-21 05:45 14.80 105000 260000 (2019) 90800 (2018) 166000 95800 103000 163000 229000 248000
2020-05-21 04:45 14.85 106000 260000 (2019) 90800 (2018) 166000 95800 103000 163000 229000 248000
2020-05-21 03:45 14.84 106000 260000 (2019) 90800 (2018) 166000 95800 103000 163000 229000 248000
2020-05-21 02:45 14.91 106000 260000 (2019) 90800 (2018) 166000 95800 103000 163000 229000 248000
2020-05-21 01:45 14.92 106000 260000 (2019) 90800 (2018) 166000 95800 103000 163000 229000 248000
2020-05-21 00:45 14.94 106000 260000 (2019) 90800 (2018) 166000 95800 103000 163000 229000 248000
2020-05-20 23:45 14.96 107000 213000 (2015) 87300 (2018) 152000 94200 105000 123000 213000 213000
2020-05-20 22:45 15.01 107000 213000 (2015) 87300 (2018) 152000 94200 105000 123000 213000 213000
2020-05-20 21:45 15.05 108000 213000 (2015) 87300 (2018) 152000 94200 105000 123000 213000 213000
2020-05-20 20:45 15.10 108000 213000 (2015) 87300 (2018) 152000 94200 105000 123000 213000 213000
2020-05-20 19:45 15.09 108000 213000 (2015) 87300 (2018) 152000 94200 105000 123000 213000 213000
2020-05-20 18:45 15.11 108000 213000 (2015) 87300 (2018) 152000 94200 105000 123000 213000 213000
2020-05-20 17:45 15.16 109000 213000 (2015) 87300 (2018) 152000 94200 105000 123000 213000 213000
2020-05-20 16:45 15.17 109000 213000 (2015) 87300 (2018) 152000 94200 105000 123000 213000 213000
2020-05-20 15:45 15.15 108000 213000 (2015) 87300 (2018) 152000 94200 105000 123000 213000 213000
2020-05-20 14:45 15.23 109000 213000 (2015) 87300 (2018) 152000 94200 105000 123000 213000 213000
2020-05-20 13:45 15.24 109000 213000 (2015) 87300 (2018) 152000 94200 105000 123000 213000 213000
2020-05-20 12:45 15.29 110000 213000 (2015) 87300 (2018) 152000 94200 105000 123000 213000 213000
2020-05-20 11:45 15.29 110000 213000 (2015) 87300 (2018) 152000 94200 105000 123000 213000 213000
2020-05-20 10:45 15.30 110000 213000 (2015) 87300 (2018) 152000 94200 105000 123000 213000 213000
2020-05-20 09:45 15.35 110000 213000 (2015) 87300 (2018) 152000 94200 105000 123000 213000 213000
2020-05-20 08:45 15.42 111000 213000 (2015) 87300 (2018) 152000 94200 105000 123000 213000 213000
2020-05-20 07:45 15.46 112000 213000 (2015) 87300 (2018) 152000 94200 105000 123000 213000 213000
2020-05-20 06:45 15.46 112000 213000 (2015) 87300 (2018) 152000 94200 105000 123000 213000 213000
2020-05-20 05:45 15.56 113000 213000 (2015) 87300 (2018) 152000 94200 105000 123000 213000 213000
2020-05-20 04:45 15.58 113000 213000 (2015) 87300 (2018) 152000 94200 105000 123000 213000 213000
2020-05-20 03:45 15.61 113000 213000 (2015) 87300 (2018) 152000 94200 105000 123000 213000 213000
2020-05-20 02:45 15.63 113000 213000 (2015) 87300 (2018) 152000 94200 105000 123000 213000 213000
2020-05-20 01:45 15.70 114000 213000 (2015) 87300 (2018) 152000 94200 105000 123000 213000 213000
2020-05-20 00:45 15.75 115000 213000 (2015) 87300 (2018) 152000 94200 105000 123000 213000 213000
2020-05-19 23:45 15.79 115000 215000 (2015) 86000 (2018) 139000 87600 90000 129000 194000 206000
2020-05-19 22:45 15.84 116000 215000 (2015) 86000 (2018) 139000 87600 90000 129000 194000 206000
2020-05-19 21:45 15.92 116000 215000 (2015) 86000 (2018) 139000 87600 90000 129000 194000 206000
2020-05-19 20:45 15.95 117000 215000 (2015) 86000 (2018) 139000 87600 90000 129000 194000 206000
2020-05-19 19:45 16.00 117000 215000 (2015) 86000 (2018) 139000 87600 90000 129000 194000 206000
2020-05-19 18:45 16.00 117000 215000 (2015) 86000 (2018) 139000 87600 90000 129000 194000 206000
2020-05-19 17:45 16.07 118000 215000 (2015) 86000 (2018) 139000 87600 90000 129000 194000 206000
2020-05-19 16:45 16.12 119000 215000 (2015) 86000 (2018) 139000 87600 90000 129000 194000 206000
2020-05-19 15:45 16.17 119000 215000 (2015) 86000 (2018) 139000 87600 90000 129000 194000 206000
2020-05-19 14:45 16.25 120000 215000 (2015) 86000 (2018) 139000 87600 90000 129000 194000 206000
2020-05-19 13:45 16.35 121000 215000 (2015) 86000 (2018) 139000 87600 90000 129000 194000 206000
2020-05-19 12:45 16.34 121000 215000 (2015) 86000 (2018) 139000 87600 90000 129000 194000 206000
2020-05-19 11:45 16.47 123000 215000 (2015) 86000 (2018) 139000 87600 90000 129000 194000 206000
2020-05-19 10:45 16.48 123000 215000 (2015) 86000 (2018) 139000 87600 90000 129000 194000 206000
2020-05-19 09:45 16.58 124000 215000 (2015) 86000 (2018) 139000 87600 90000 129000 194000 206000
2020-05-19 08:45 16.63 125000 215000 (2015) 86000 (2018) 139000 87600 90000 129000 194000 206000
2020-05-19 07:45 16.71 125000 215000 (2015) 86000 (2018) 139000 87600 90000 129000 194000 206000
2020-05-19 06:45 16.76 126000 215000 (2015) 86000 (2018) 139000 87600 90000 129000 194000 206000
2020-05-19 05:45 16.83 127000 215000 (2015) 86000 (2018) 139000 87600 90000 129000 194000 206000
2020-05-19 04:45 16.97 128000 215000 (2015) 86000 (2018) 139000 87600 90000 129000 194000 206000
2020-05-19 03:45 16.98 129000 215000 (2015) 86000 (2018) 139000 87600 90000 129000 194000 206000
2020-05-19 02:45 17.09 130000 215000 (2015) 86000 (2018) 139000 87600 90000 129000 194000 206000
2020-05-19 01:45 17.19 131000 215000 (2015) 86000 (2018) 139000 87600 90000 129000 194000 206000
2020-05-19 00:45 17.30 133000 215000 (2015) 86000 (2018) 139000 87600 90000 129000 194000 206000
2020-05-18 23:45 17.35 133000 174000 (2019) 81900 (2018) 128000 84800 89200 130000 166000 171000
2020-05-18 22:45 17.44 134000 174000 (2019) 81900 (2018) 128000 84800 89200 130000 166000 171000
2020-05-18 21:45 17.53 135000 174000 (2019) 81900 (2018) 128000 84800 89200 130000 166000 171000
2020-05-18 20:45 17.61 136000 174000 (2019) 81900 (2018) 128000 84800 89200 130000 166000 171000
2020-05-18 19:45 17.69 137000 174000 (2019) 81900 (2018) 128000 84800 89200 130000 166000 171000
2020-05-18 18:45 17.75 138000 174000 (2019) 81900 (2018) 128000 84800 89200 130000 166000 171000
2020-05-18 17:45 17.76 138000 174000 (2019) 81900 (2018) 128000 84800 89200 130000 166000 171000
2020-05-18 16:45 17.82 139000 174000 (2019) 81900 (2018) 128000 84800 89200 130000 166000 171000
2020-05-18 15:45 17.94 140000 174000 (2019) 81900 (2018) 128000 84800 89200 130000 166000 171000
2020-05-18 14:45 17.95 141000 174000 (2019) 81900 (2018) 128000 84800 89200 130000 166000 171000
2020-05-18 13:45 18.01 141000 174000 (2019) 81900 (2018) 128000 84800 89200 130000 166000 171000
2020-05-18 12:45 18.09 142000 174000 (2019) 81900 (2018) 128000 84800 89200 130000 166000 171000
2020-05-18 11:45 18.13 143000 174000 (2019) 81900 (2018) 128000 84800 89200 130000 166000 171000
2020-05-18 10:45 18.21 144000 174000 (2019) 81900 (2018) 128000 84800 89200 130000 166000 171000
2020-05-18 09:45 18.18 144000 174000 (2019) 81900 (2018) 128000 84800 89200 130000 166000 171000
2020-05-18 08:45 18.32 145000 174000 (2019) 81900 (2018) 128000 84800 89200 130000 166000 171000
2020-05-18 07:45 18.28 145000 174000 (2019) 81900 (2018) 128000 84800 89200 130000 166000 171000
2020-05-18 06:45 18.30 145000 174000 (2019) 81900 (2018) 128000 84800 89200 130000 166000 171000
2020-05-18 05:45 18.37 146000 174000 (2019) 81900 (2018) 128000 84800 89200 130000 166000 171000
2020-05-18 04:45 18.33 146000 174000 (2019) 81900 (2018) 128000 84800 89200 130000 166000 171000
2020-05-18 03:45 18.36 146000 174000 (2019) 81900 (2018) 128000 84800 89200 130000 166000 171000
2020-05-18 02:45 18.34 146000 174000 (2019) 81900 (2018) 128000 84800 89200 130000 166000 171000
2020-05-18 01:45 18.34 146000 174000 (2019) 81900 (2018) 128000 84800 89200 130000 166000 171000
2020-05-18 00:45 18.28 145000 174000 (2019) 81900 (2018) 128000 84800 89200 130000 166000 171000
2020-05-17 23:45 18.22 144000 188000 (2019) 80700 (2018) 122000 84300 89600 107000 161000 177000
2020-05-17 22:45 18.25 144000 188000 (2019) 80700 (2018) 122000 84300 89600 107000 161000 177000
2020-05-17 21:45 18.26 145000 188000 (2019) 80700 (2018) 122000 84300 89600 107000 161000 177000
2020-05-17 20:45 18.23 144000 188000 (2019) 80700 (2018) 122000 84300 89600 107000 161000 177000
2020-05-17 19:45 18.22 144000 188000 (2019) 80700 (2018) 122000 84300 89600 107000 161000 177000
2020-05-17 18:45 18.14 143000 188000 (2019) 80700 (2018) 122000 84300 89600 107000 161000 177000
2020-05-17 17:45 18.12 143000 188000 (2019) 80700 (2018) 122000 84300 89600 107000 161000 177000
2020-05-17 16:45 18.13 143000 188000 (2019) 80700 (2018) 122000 84300 89600 107000 161000 177000
2020-05-17 15:45 18.10 143000 188000 (2019) 80700 (2018) 122000 84300 89600 107000 161000 177000
2020-05-17 14:45 18.13 143000 188000 (2019) 80700 (2018) 122000 84300 89600 107000 161000 177000
2020-05-17 13:45 18.08 142000 188000 (2019) 80700 (2018) 122000 84300 89600 107000 161000 177000
2020-05-17 12:45 18.08 142000 188000 (2019) 80700 (2018) 122000 84300 89600 107000 161000 177000
2020-05-17 11:45 18.07 142000 188000 (2019) 80700 (2018) 122000 84300 89600 107000 161000 177000
2020-05-17 10:45 18.10 143000 188000 (2019) 80700 (2018) 122000 84300 89600 107000 161000 177000
2020-05-17 09:45 18.09 142000 188000 (2019) 80700 (2018) 122000 84300 89600 107000 161000 177000
2020-05-17 08:45 18.11 143000 188000 (2019) 80700 (2018) 122000 84300 89600 107000 161000 177000
2020-05-17 07:45 18.05 142000 188000 (2019) 80700 (2018) 122000 84300 89600 107000 161000 177000
2020-05-17 06:45 18.11 143000 188000 (2019) 80700 (2018) 122000 84300 89600 107000 161000 177000
2020-05-17 05:45 18.08 142000 188000 (2019) 80700 (2018) 122000 84300 89600 107000 161000 177000
2020-05-17 04:45 18.05 142000 188000 (2019) 80700 (2018) 122000 84300 89600 107000 161000 177000
2020-05-17 03:45 18.10 143000 188000 (2019) 80700 (2018) 122000 84300 89600 107000 161000 177000
2020-05-17 02:45 18.02 142000 188000 (2019) 80700 (2018) 122000 84300 89600 107000 161000 177000
2020-05-17 01:45 18.05 142000 188000 (2019) 80700 (2018) 122000 84300 89600 107000 161000 177000
2020-05-17 00:45 18.01 141000 188000 (2019) 80700 (2018) 122000 84300 89600 107000 161000 177000
2020-05-16 23:45 18.00 141000 201000 (2019) 82800 (2018) 125000 84900 88000 103000 173000 190000
2020-05-16 22:45 17.96 141000 201000 (2019) 82800 (2018) 125000 84900 88000 103000 173000 190000
2020-05-16 21:45 17.85 139000 201000 (2019) 82800 (2018) 125000 84900 88000 103000 173000 190000
2020-05-16 20:45 17.78 138000 201000 (2019) 82800 (2018) 125000 84900 88000 103000 173000 190000
2020-05-16 19:45 17.67 137000 201000 (2019) 82800 (2018) 125000 84900 88000 103000 173000 190000
2020-05-16 18:45 17.48 135000 201000 (2019) 82800 (2018) 125000 84900 88000 103000 173000 190000
2020-05-16 17:45 17.41 134000 201000 (2019) 82800 (2018) 125000 84900 88000 103000 173000 190000
2020-05-16 16:45 17.28 132000 201000 (2019) 82800 (2018) 125000 84900 88000 103000 173000 190000
2020-05-16 15:45 17.14 131000 201000 (2019) 82800 (2018) 125000 84900 88000 103000 173000 190000
2020-05-16 14:45 16.98 129000 201000 (2019) 82800 (2018) 125000 84900 88000 103000 173000 190000
2020-05-16 13:45 16.81 127000 201000 (2019) 82800 (2018) 125000 84900 88000 103000 173000 190000
2020-05-16 12:45 16.58 124000 201000 (2019) 82800 (2018) 125000 84900 88000 103000 173000 190000
2020-05-16 11:45 16.43 122000 201000 (2019) 82800 (2018) 125000 84900 88000 103000 173000 190000
2020-05-16 10:45 16.25 120000 201000 (2019) 82800 (2018) 125000 84900 88000 103000 173000 190000
2020-05-16 09:45 16.07 118000 201000 (2019) 82800 (2018) 125000 84900 88000 103000 173000 190000
2020-05-16 08:45 15.87 116000 201000 (2019) 82800 (2018) 125000 84900 88000 103000 173000 190000
2020-05-16 07:45 15.63 113000 201000 (2019) 82800 (2018) 125000 84900 88000 103000 173000 190000
2020-05-16 06:45 15.49 112000 201000 (2019) 82800 (2018) 125000 84900 88000 103000 173000 190000
2020-05-16 05:45 15.29 110000 201000 (2019) 82800 (2018) 125000 84900 88000 103000 173000 190000
2020-05-16 04:45 15.07 108000 201000 (2019) 82800 (2018) 125000 84900 88000 103000 173000 190000
2020-05-16 03:45 14.88 106000 201000 (2019) 82800 (2018) 125000 84900 88000 103000 173000 190000
2020-05-16 02:45 14.68 104000 201000 (2019) 82800 (2018) 125000 84900 88000 103000 173000 190000
2020-05-16 01:45 14.57 103000 201000 (2019) 82800 (2018) 125000 84900 88000 103000 173000 190000
2020-05-16 00:45 14.43 102000 201000 (2019) 82800 (2018) 125000 84900 88000 103000 173000 190000
2020-05-15 23:45 14.25 100000 215000 (2019) 83400 (2018) 130000 84000 84900 108000 186000 204000
2020-05-15 22:45 14.07 98500 215000 (2019) 83400 (2018) 130000 84000 84900 108000 186000 204000
2020-05-15 21:45 13.94 97300 215000 (2019) 83400 (2018) 130000 84000 84900 108000 186000 204000
2020-05-15 20:45 13.80 96100 215000 (2019) 83400 (2018) 130000 84000 84900 108000 186000 204000
2020-05-15 19:45 13.70 95200 215000 (2019) 83400 (2018) 130000 84000 84900 108000 186000 204000
2020-05-15 18:45 13.54 93900 215000 (2019) 83400 (2018) 130000 84000 84900 108000 186000 204000
2020-05-15 17:45 13.43 92900 215000 (2019) 83400 (2018) 130000 84000 84900 108000 186000 204000
2020-05-15 16:45 13.29 91800 215000 (2019) 83400 (2018) 130000 84000 84900 108000 186000 204000
2020-05-15 15:45 13.23 91300 215000 (2019) 83400 (2018) 130000 84000 84900 108000 186000 204000
2020-05-15 14:45 13.15 90600 215000 (2019) 83400 (2018) 130000 84000 84900 108000 186000 204000
2020-05-15 13:45 13.05 89800 215000 (2019) 83400 (2018) 130000 84000 84900 108000 186000 204000
2020-05-15 12:45 13.03 89600 215000 (2019) 83400 (2018) 130000 84000 84900 108000 186000 204000
2020-05-15 11:45 12.93 88800 215000 (2019) 83400 (2018) 130000 84000 84900 108000 186000 204000
2020-05-15 10:45 12.87 88300 215000 (2019) 83400 (2018) 130000 84000 84900 108000 186000 204000
2020-05-15 09:45 12.88 88400 215000 (2019) 83400 (2018) 130000 84000 84900 108000 186000 204000
2020-05-15 08:45 12.87 88300 215000 (2019) 83400 (2018) 130000 84000 84900 108000 186000 204000
2020-05-15 07:45 12.82 87900 215000 (2019) 83400 (2018) 130000 84000 84900 108000 186000 204000
2020-05-15 06:45 12.84 88100 215000 (2019) 83400 (2018) 130000 84000 84900 108000 186000 204000
2020-05-15 05:45 12.88 88400 215000 (2019) 83400 (2018) 130000 84000 84900 108000 186000 204000
2020-05-15 04:45 12.85 88100 215000 (2019) 83400 (2018) 130000 84000 84900 108000 186000 204000
2020-05-15 03:45 12.79 87600 215000 (2019) 83400 (2018) 130000 84000 84900 108000 186000 204000
2020-05-15 02:45 12.81 87800 215000 (2019) 83400 (2018) 130000 84000 84900 108000 186000 204000
2020-05-15 01:45 12.76 87400 215000 (2019) 83400 (2018) 130000 84000 84900 108000 186000 204000
2020-05-15 00:45 12.79 87600 215000 (2019) 83400 (2018) 130000 84000 84900 108000 186000 204000
2020-05-14 23:45 12.81 87800 233000 (2019) 84100 (2018) 137000 85000 86300 107000 202000 220000
2020-05-14 22:45 12.82 87900 233000 (2019) 84100 (2018) 137000 85000 86300 107000 202000 220000
2020-05-14 21:45 12.80 87700 233000 (2019) 84100 (2018) 137000 85000 86300 107000 202000 220000
2020-05-14 20:45 12.86 88200 233000 (2019) 84100 (2018) 137000 85000 86300 107000 202000 220000
2020-05-14 19:45 12.90 88500 233000 (2019) 84100 (2018) 137000 85000 86300 107000 202000 220000
2020-05-14 18:45 12.86 88200 233000 (2019) 84100 (2018) 137000 85000 86300 107000 202000 220000
2020-05-14 17:45 12.88 88400 233000 (2019) 84100 (2018) 137000 85000 86300 107000 202000 220000
2020-05-14 16:45 12.93 88800 233000 (2019) 84100 (2018) 137000 85000 86300 107000 202000 220000
2020-05-14 15:45 12.94 88900 233000 (2019) 84100 (2018) 137000 85000 86300 107000 202000 220000
2020-05-14 14:45 12.95 88900 233000 (2019) 84100 (2018) 137000 85000 86300 107000 202000 220000
2020-05-14 13:45 12.93 88800 233000 (2019) 84100 (2018) 137000 85000 86300 107000 202000 220000
2020-05-14 12:45 12.96 89000 233000 (2019) 84100 (2018) 137000 85000 86300 107000 202000 220000
2020-05-14 11:45 12.99 89300 233000 (2019) 84100 (2018) 137000 85000 86300 107000 202000 220000
2020-05-14 10:45 12.98 89200 233000 (2019) 84100 (2018) 137000 85000 86300 107000 202000 220000
2020-05-14 09:45 13.00 89400 233000 (2019) 84100 (2018) 137000 85000 86300 107000 202000 220000
2020-05-14 08:45 13.09 90100 233000 (2019) 84100 (2018) 137000 85000 86300 107000 202000 220000
2020-05-14 07:45 13.04 89700 233000 (2019) 84100 (2018) 137000 85000 86300 107000 202000 220000
2020-05-14 06:45 13.05 89800 233000 (2019) 84100 (2018) 137000 85000 86300 107000 202000 220000
2020-05-14 05:45 13.07 90000 233000 (2019) 84100 (2018) 137000 85000 86300 107000 202000 220000
2020-05-14 04:45 13.07 90000 233000 (2019) 84100 (2018) 137000 85000 86300 107000 202000 220000
2020-05-14 03:45 13.09 90100 233000 (2019) 84100 (2018) 137000 85000 86300 107000 202000 220000
2020-05-14 02:45 13.07 90000 233000 (2019) 84100 (2018) 137000 85000 86300 107000 202000 220000
2020-05-14 01:45 13.09 90100 233000 (2019) 84100 (2018) 137000 85000 86300 107000 202000 220000
2020-05-14 00:45 13.11 90300 233000 (2019) 84100 (2018) 137000 85000 86300 107000 202000 220000
2020-05-13 23:45 13.12 90400 255000 (2019) 86300 (2018) 141000 87500 89400 105000 211000 238000
2020-05-13 22:45 13.11 90300 255000 (2019) 86300 (2018) 141000 87500 89400 105000 211000 238000
2020-05-13 21:45 13.12 90400 255000 (2019) 86300 (2018) 141000 87500 89400 105000 211000 238000
2020-05-13 20:45 13.14 90500 255000 (2019) 86300 (2018) 141000 87500 89400 105000 211000 238000
2020-05-13 19:45 13.11 90300 255000 (2019) 86300 (2018) 141000 87500 89400 105000 211000 238000
2020-05-13 18:45 13.11 90300 255000 (2019) 86300 (2018) 141000 87500 89400 105000 211000 238000
2020-05-13 17:45 13.15 90600 255000 (2019) 86300 (2018) 141000 87500 89400 105000 211000 238000
2020-05-13 16:45 13.12 90400 255000 (2019) 86300 (2018) 141000 87500 89400 105000 211000 238000
2020-05-13 15:45 13.16 90700 255000 (2019) 86300 (2018) 141000 87500 89400 105000 211000 238000
2020-05-13 14:45 13.17 90700 255000 (2019) 86300 (2018) 141000 87500 89400 105000 211000 238000
2020-05-13 13:45 13.18 90800 255000 (2019) 86300 (2018) 141000 87500 89400 105000 211000 238000
2020-05-13 12:45 13.17 90700